GFSSGP_prec_cthk_000.txt.gz
RH
3 5 6 10 12 14 19 22 23 26 27 29 37 43 51 44 54 66 59 50 43 46 49 41 40 39 38 39 41 44 47 43 50 54 54 59 72 78 79 79 82 90 88 84 85 81 83 69 45
3 5 8 11 18 26 26 25 27 26 23 20 27 46 50 59 51 64 57 52 44 45 48 43 39 39 36 36 35 34 38 42 47 43 41 58 65 67 75 73 73 64 73 78 82 86 97 85 76
4 8 9 15 20 29 36 30 29 25 20 18 34 46 51 57 45 41 42 44 40 41 40 38 38 38 36 36 35 35 34 36 40 43 53 61 64 67 76 75 71 61 63 63 78 87 98 97 91
8 9 11 22 24 26 30 31 29 22 17 20 41 48 48 52 46 41 42 39 37 38 33 33 33 30 32 33 33 35 35 36 37 38 42 44 49 53 56 55 55 56 53 58 79 82 81 97 95
10 12 17 20 23 23 22 24 25 24 42 35 43 59 81 53 41 37 38 39 39 33 32 33 30 32 32 31 31 33 37 38 38 38 37 35 36 39 41 45 49 50 55 66 66 62 56 95 82
14 20 20 21 19 14 14 16 24 31 35 36 57 73 53 47 44 42 42 41 43 39 36 35 36 34 29 23 22 26 31 34 33 32 34 37 37 35 35 35 36 34 36 39 40 46 63 72 78
18 22 22 21 18 15 12 12 18 23 32 28 42 53 62 35 36 39 37 37 37 43 42 42 33 30 26 23 24 24 25 26 28 30 30 35 33 30 29 29 28 24 20 22 29 35 51 63 66
18 18 17 18 20 19 11 13 14 15 15 13 17 45 52 59 29 30 30 35 36 32 35 34 33 30 23 22 24 24 28 30 29 28 27 28 29 28 28 29 33 36 34 32 35 39 45 52 54
19 20 18 16 21 18 15 14 19 13 15 14 14 22 44 42 31 26 32 33 38 31 26 24 26 31 26 33 28 28 32 30 31 32 32 37 37 37 34 34 41 45 48 50 52 51 48 49 53
24 23 20 16 16 18 18 15 15 12 22 25 26 21 25 26 27 27 34 43 42 31 28 29 28 32 34 42 44 45 45 41 39 38 34 37 37 33 30 27 27 29 30 35 42 55 59 57 59
21 18 16 17 16 14 16 17 19 19 23 28 25 28 30 26 29 35 37 46 41 33 35 35 33 30 33 44 45 49 38 34 33 29 30 28 23 18 16 14 16 14 15 20 26 46 53 47 52
18 12 13 14 12 12 15 15 14 16 15 16 18 20 23 26 29 31 31 31 27 28 27 23 20 16 16 22 26 29 25 23 25 21 18 19 17 14 12 12 12 11 12 14 15 16 19 28 39
14 15 15 13 14 13 10 12 15 12 13 10 11 15 18 20 24 24 21 21 20 20 20 19 15 13 15 17 19 21 21 18 18 16 16 17 19 15 16 15 15 15 16 16 17 17 18 19 28
13 15 17 15 17 14 14 15 15 14 15 13 13 15 17 19 21 22 18 19 19 20 21 19 16 15 16 21 19 18 17 17 17 18 18 18 20 19 24 24 23 22 21 21 25 26 26 25 24
20 21 23 25 18 14 15 16 17 19 18 16 14 15 16 19 20 19 20 20 21 22 21 19 18 20 21 24 24 24 24 25 25 24 22 21 22 22 23 25 29 29 23 23 23 24 27 29 31
24 26 27 22 18 18 15 16 21 18 19 19 20 19 20 20 20 22 22 22 23 24 23 22 23 24 27 28 31 31 32 32 33 34 32 31 31 30 31 34 32 30 34 35 32 31 30 30 32
32 23 24 26 25 20 18 18 18 20 21 21 22 22 23 23 26 26 24 23 23 25 26 26 28 29 30 32 34 34 35 35 37 40 40 39 40 40 42 42 41 39 40 41 41 41 41 40 37
21 25 27 31 28 23 22 22 21 21 21 22 22 23 23 24 23 25 27 27 25 26 27 27 28 28 30 31 32 34 35 37 39 39 42 42 43 42 44 45 46 47 47 47 48 48 48 47 46
20 26 26 28 24 23 22 22 22 22 19 18 18 20 22 22 22 23 26 27 26 26 26 28 28 29 30 33 35 37 38 40 43 45 47 47 48 46 48 51 52 53 55 56 54 54 55 54 53
19 24 26 24 24 23 23 22 23 21 18 17 18 20 21 22 24 25 26 26 25 27 28 30 32 33 34 36 38 39 41 43 45 48 51 52 51 51 56 57 59 62 63 64 65 65 62 60 58
19 28 27 27 25 25 25 25 26 23 18 17 20 21 23 24 25 26 28 30 31 32 33 35 36 37 38 39 42 42 44 49 51 53 55 54 56 62 66 68 71 71 71 72 71 68 67 67 67
22 25 27 29 30 29 25 26 29 26 23 22 23 26 28 30 31 32 33 34 36 37 39 41 42 44 46 46 47 51 51 52 55 58 60 63 66 70 73 75 77 79 77 80 81 79 76 73 69
25 27 30 29 31 30 29 27 30 30 29 29 27 29 31 33 34 36 38 39 40 42 43 45 48 51 54 55 54 54 58 58 63 66 68 71 74 75 75 78 84 87 86 82 81 72 69 71 71
29 30 28 32 34 41 37 37 26 33 37 33 32 33 35 36 39 41 43 44 46 47 48 51 54 55 56 58 60 59 57 62 65 68 70 72 73 76 81 83 86 81 79 80 71 70 69 69 69
34 34 43 51 52 51 46 39 33 33 38 36 38 40 41 42 45 45 47 49 51 52 55 59 59 59 60 62 64 65 63 64 67 70 71 74 75 78 79 77 83 84 82 74 74 73 70 67 65
39 42 55 61 54 48 35 38 34 40 44 44 46 49 51 52 56 55 56 61 61 59 61 66 68 68 67 69 69 70 69 68 69 72 76 77 79 80 82 85 85 80 81 84 79 74 70 65 62
42 49 47 52 63 64 51 46 39 44 48 52 56 57 60 59 60 61 63 66 67 66 68 72 70 69 68 71 73 74 73 72 72 75 79 82 82 84 87 90 86 89 83 79 76 71 65 60 56
46 48 55 64 79 70 50 51 44 50 50 49 55 60 58 61 63 66 66 70 71 73 72 69 69 68 69 71 71 71 72 75 78 81 85 86 90 92 93 91 92 85 80 77 73 69 61 54 49
49 51 59 61 68 77 77 56 48 48 48 53 57 62 65 67 68 70 71 74 72 71 69 67 67 67 66 66 67 68 70 74 79 84 85 93 95 95 96 93 84 81 79 73 66 59 54 47 41
50 55 59 79 75 73 75 60 52 56 61 63 63 65 64 65 67 68 69 73 70 70 69 69 69 67 64 66 64 62 69 74 75 78 88 92 94 95 89 85 85 80 74 65 57 48 42 40 37

GFSSGP_prec_cthk_003.txt.gz
RH
3 4 5 8 12 19 25 27 29 27 25 36 34 30 39 47 53 75 66 57 47 46 44 40 40 42 41 41 41 40 42 45 43 49 46 52 58 62 62 68 72 72 70 73 65 74 81 85 84
3 4 7 10 24 29 31 29 27 24 25 32 36 37 38 48 55 58 56 54 49 44 43 40 42 40 38 36 33 33 36 38 40 33 31 38 52 56 59 61 59 61 66 56 55 69 91 89 95
5 10 14 26 28 37 34 30 28 26 26 27 39 34 42 61 63 55 46 42 41 39 38 36 34 34 35 33 31 30 30 32 36 36 40 46 49 52 56 51 50 53 53 53 51 60 65 70 86
8 11 21 25 27 30 30 31 30 27 30 27 34 53 57 61 57 42 41 34 35 32 30 30 31 31 31 31 30 28 26 28 31 34 35 36 36 40 40 40 37 39 45 52 54 53 63 73 62
13 18 23 24 23 23 24 25 29 38 46 37 32 47 51 58 50 44 42 42 36 32 31 31 31 31 30 29 30 26 25 23 26 30 32 34 33 31 30 31 29 30 36 41 41 44 52 52 48
20 22 25 25 22 18 13 20 21 31 33 34 39 49 54 49 41 43 49 45 45 35 36 36 35 35 33 29 24 23 23 23 25 26 28 30 29 29 29 30 27 27 28 32 33 30 29 35 36
21 23 26 24 22 16 11 9 15 18 24 23 27 43 43 47 40 43 50 40 34 30 31 32 30 28 24 19 19 17 18 22 26 28 29 28 28 27 26 27 28 28 31 30 29 29 30 33 37
19 20 20 21 18 14 13 11 12 14 15 14 16 35 30 35 38 33 35 32 32 30 33 30 27 25 25 18 20 21 24 27 27 25 26 29 31 31 30 29 29 34 38 39 37 40 40 40 43
23 25 20 16 14 14 13 13 17 14 13 12 17 20 23 30 38 36 30 29 36 32 26 25 27 24 24 27 32 33 36 36 35 32 30 30 33 28 23 22 21 22 24 25 28 29 35 43 46
20 20 18 17 15 15 15 15 13 13 15 19 23 27 30 32 25 25 25 31 43 41 35 28 29 31 29 30 30 33 38 39 26 21 18 19 20 19 16 12 12 12 10 11 14 21 32 38 44
18 20 18 15 11 10 11 12 12 12 14 20 22 22 24 26 27 25 32 33 37 37 31 25 24 21 19 21 25 26 28 28 26 21 18 19 16 14 12 10 12 13 12 16 19 21 27 32 32
12 8 9 9 7 8 9 9 11 10 11 11 14 17 18 16 19 25 23 27 27 24 20 18 17 15 13 15 16 19 21 20 18 18 16 16 16 16 14 14 13 14 15 17 19 20 22 22 21
13 11 11 11 13 11 11 12 13 12 11 10 10 10 13 16 19 23 24 23 22 21 19 17 17 15 13 13 17 21 23 22 22 22 19 19 20 20 19 20 19 20 21 22 22 23 23 23 26
17 17 17 19 17 16 13 16 17 16 15 15 14 13 13 16 18 22 23 22 20 20 20 20 20 18 16 17 21 25 28 29 28 26 26 26 26 27 26 28 26 27 27 27 27 27 28 27 27
22 23 22 22 18 18 16 15 17 17 17 18 18 20 20 18 19 20 20 21 21 21 23 23 25 24 24 27 29 30 31 31 30 30 31 31 32 33 33 35 35 35 35 32 32 31 31 31 33
26 23 26 23 23 21 17 18 16 17 18 18 18 20 21 23 23 24 24 25 25 23 23 23 24 25 27 28 29 29 30 31 31 32 34 35 36 37 38 39 40 39 38 40 41 40 38 37 36
25 24 23 27 24 22 21 21 20 18 20 20 19 20 20 21 22 23 24 25 26 26 26 26 25 26 27 28 29 31 30 32 34 35 36 38 39 39 39 42 43 44 44 46 49 50 49 47 43
19 22 25 30 29 25 22 21 20 20 19 19 19 20 21 21 22 22 23 24 25 26 26 26 27 28 30 31 34 35 35 36 37 37 40 39 42 44 44 46 48 50 50 51 53 53 54 54 53
18 20 24 26 24 23 22 21 21 21 19 19 18 20 20 20 21 21 23 26 28 30 30 31 32 33 35 37 38 40 40 40 41 44 46 47 49 52 51 50 52 52 55 58 61 61 61 60 59
18 22 26 24 23 24 24 22 23 22 21 18 15 18 21 23 25 27 28 31 33 34 34 35 37 39 41 43 45 46 47 47 48 50 52 53 54 54 53 55 57 59 61 63 66 67 68 66 64
19 25 26 27 26 25 26 24 22 22 21 25 26 26 25 26 28 31 34 35 36 38 40 42 45 45 47 49 49 50 50 50 52 54 56 57 57 58 59 62 65 67 69 68 70 72 73 72 69
22 22 25 29 33 34 31 35 28 27 27 27 26 28 30 31 32 35 38 40 40 41 43 44 46 49 52 53 53 54 55 56 56 58 60 61 61 62 64 69 73 72 73 72 74 75 75 76 71
26 27 29 31 34 35 36 39 33 33 32 36 35 34 37 41 38 40 42 43 44 45 46 48 51 53 56 58 59 59 60 61 61 64 65 65 66 66 72 77 78 78 80 81 84 82 78 80 70
28 30 28 35 36 49 40 39 38 32 36 42 45 46 47 45 44 45 45 45 46 48 50 52 56 60 60 59 61 61 60 63 67 68 68 69 70 72 74 76 78 81 83 86 90 90 88 77 74
31 36 50 50 56 57 45 43 39 40 43 46 47 47 46 48 50 49 49 53 59 60 60 62 66 68 64 62 67 69 70 72 72 72 70 71 70 74 78 81 85 87 87 86 88 91 89 86 80
39 40 61 62 65 56 38 42 38 43 46 50 53 55 54 54 55 58 63 65 67 66 64 68 73 71 67 61 62 67 70 72 73 74 71 69 70 73 78 85 90 91 88 90 92 93 83 79 75
45 52 46 55 67 68 57 44 42 49 51 61 59 62 64 61 63 67 69 70 70 67 70 76 76 69 64 61 61 61 61 61 64 67 68 70 73 77 82 86 89 87 92 96 88 84 79 76 69
47 46 59 69 80 80 59 50 57 53 50 55 55 57 57 62 62 62 64 62 64 68 73 74 72 67 62 60 60 60 58 60 64 70 72 76 83 88 92 96 96 96 92 89 86 82 75 70 66
52 58 64 69 80 89 93 69 53 55 62 64 62 67 68 71 69 68 69 72 75 74 75 73 69 63 61 58 56 56 55 59 62 67 74 82 92 93 91 93 92 91 90 87 83 76 69 64 55
56 62 65 85 89 82 89 69 49 56 58 55 69 73 67 68 66 65 68 72 72 70 70 68 65 65 60 57 54 54 53 54 60 70 76 82 87 85 90 91 90 88 87 83 76 67 56 46 41

GFSSGP_prec_cthk_006.txt.gz
RH
3 4 5 9 13 17 19 23 23 23 31 40 38 37 43 44 48 57 59 62 50 48 46 42 43 44 45 45 45 44 45 45 46 45 46 46 52 56 58 64 65 67 59 54 52 48 54 68 71
3 5 9 17 25 26 25 22 25 28 41 43 41 44 43 52 48 45 48 50 50 47 46 39 37 37 37 41 39 37 36 40 40 33 32 36 41 50 57 56 60 59 54 48 49 44 52 62 77
6 11 14 22 28 29 28 25 25 32 34 33 42 43 43 47 46 44 40 40 39 40 38 36 36 34 33 32 32 32 33 32 31 29 30 32 39 44 47 47 51 49 47 46 44 45 46 52 62
13 17 18 21 25 24 26 33 31 32 39 41 44 48 46 41 41 37 36 37 37 33 32 28 29 30 30 31 33 34 32 30 26 24 20 24 29 33 36 36 34 33 40 44 42 50 52 54 58
15 19 22 19 20 22 27 28 34 36 39 37 40 44 41 42 36 33 40 33 34 30 32 32 32 31 31 31 32 32 29 26 23 23 21 21 23 27 27 28 29 31 28 31 34 39 43 51 53
19 19 19 19 19 20 22 21 21 28 32 35 34 36 39 38 34 35 41 42 40 33 32 31 35 35 33 30 27 24 21 18 20 20 19 21 22 24 25 23 23 25 27 28 29 29 33 32 35
18 18 21 19 18 20 14 12 15 17 20 23 21 25 37 45 48 43 42 38 35 31 30 30 32 30 29 24 23 23 20 21 21 20 21 21 21 22 22 24 24 25 26 28 32 33 34 36 38
18 16 17 16 17 14 12 12 13 14 13 16 18 20 22 28 37 47 41 44 34 31 31 33 29 25 25 25 25 28 29 31 34 33 22 20 21 25 25 19 17 16 18 20 22 26 27 31 43
15 16 17 18 16 15 13 14 14 12 12 14 18 20 24 29 35 40 39 37 42 44 47 41 32 29 32 32 28 27 30 34 35 30 22 20 22 20 18 14 11 11 11 11 14 18 22 30 34
17 18 18 18 16 12 10 10 9 11 12 17 19 20 22 23 26 23 22 30 32 41 41 37 30 22 19 16 16 18 18 20 22 19 17 17 18 17 14 12 11 11 11 11 13 16 21 25 33
14 17 18 15 11 9 9 9 10 10 12 14 19 18 17 18 16 15 23 29 33 38 36 29 24 16 14 13 15 17 16 18 19 18 18 18 17 16 17 16 16 16 16 15 19 21 22 24 29
9 8 8 7 6 6 7 7 9 10 10 12 12 14 18 19 19 19 25 25 29 30 25 24 19 18 17 15 16 17 21 24 24 26 26 26 23 22 21 20 20 21 20 21 23 25 25 25 25
11 14 16 17 17 14 11 13 13 14 14 13 13 17 18 18 19 22 26 26 25 26 25 23 22 22 20 20 21 25 28 30 31 30 30 29 28 28 29 28 28 28 28 27 28 28 29 30 29
21 18 18 18 18 18 17 15 18 18 17 18 18 21 22 22 22 23 24 25 25 25 22 20 20 22 24 24 26 31 32 33 34 35 35 32 31 32 33 34 35 35 34 33 32 31 31 31 31
23 22 20 21 20 20 19 19 18 18 18 18 19 21 23 23 24 26 25 26 26 25 25 26 26 26 25 25 27 30 31 32 31 31 31 32 34 34 35 35 37 38 39 40 40 40 38 38 38
24 21 22 22 22 21 20 22 20 18 17 17 18 19 20 20 22 23 24 25 27 28 27 28 27 27 26 26 28 30 32 35 37 37 37 38 38 39 39 38 40 41 41 42 43 45 45 46 46
20 20 20 21 22 22 21 20 19 19 19 18 17 18 18 19 19 20 21 23 24 26 27 29 30 31 32 32 34 36 37 40 41 42 43 43 43 45 45 45 46 47 47 48 49 50 50 50 50
20 19 20 24 24 24 22 20 20 19 19 17 17 17 18 19 22 23 24 26 28 31 32 34 34 34 36 38 40 42 43 44 45 46 47 48 50 52 52 51 52 53 53 53 54 54 55 55 56
20 19 23 24 24 22 22 23 21 20 21 19 17 18 21 22 24 25 27 29 32 35 37 38 39 40 43 44 45 46 47 47 48 49 49 51 53 54 55 56 55 56 56 56 57 59 60 61 62
22 21 24 22 23 25 24 23 20 19 22 23 24 22 28 29 29 29 31 36 38 41 41 44 46 48 50 49 48 49 49 50 51 53 54 54 56 57 59 60 61 61 61 61 61 62 63 64 65
23 22 24 27 27 28 27 24 22 23 24 26 27 28 30 32 34 33 34 37 41 41 42 44 48 52 53 52 50 49 48 49 50 52 54 55 55 57 59 62 64 65 65 65 67 67 66 65 66
25 24 26 29 31 36 30 38 30 28 28 29 30 30 32 35 36 36 39 40 41 42 44 45 48 51 52 53 53 53 52 53 55 56 57 58 59 60 61 63 64 67 69 71 71 70 67 64 66
27 26 28 30 36 37 37 40 36 35 34 33 36 38 39 39 40 43 45 47 47 48 49 53 55 56 59 61 58 55 52 50 53 56 59 60 61 61 61 63 63 65 67 69 71 73 74 73 72
29 29 31 37 39 49 40 41 46 44 42 45 47 44 44 45 51 57 57 55 55 56 59 58 60 65 65 68 68 61 56 55 58 61 63 63 66 68 75 69 68 71 71 72 75 81 81 83 83
34 37 50 49 56 56 44 44 42 44 47 49 51 55 58 62 66 64 60 60 60 63 64 68 74 77 75 79 73 67 61 58 58 60 61 63 68 70 81 74 74 77 77 83 86 89 84 89 92
41 42 56 59 64 57 43 46 44 44 49 50 53 59 63 65 64 60 60 64 67 70 72 73 74 73 71 68 67 62 59 59 58 58 56 55 65 70 73 74 73 79 88 88 97 91 98 98 89
44 49 46 55 68 68 56 48 42 48 53 55 57 60 61 59 60 59 66 67 68 69 75 77 73 68 63 58 56 56 56 55 56 54 51 50 54 62 69 78 90 92 98 97 94 93 90 87 84
47 47 60 70 76 83 66 57 56 53 57 56 63 61 60 62 64 64 66 68 68 68 71 71 73 68 63 60 58 55 54 53 53 51 52 57 61 69 78 89 94 97 95 93 91 88 85 81 77
51 60 64 67 77 88 91 71 53 54 64 68 69 68 65 69 66 65 67 70 73 73 70 67 64 62 58 56 55 54 53 52 51 55 61 65 69 76 86 83 86 88 87 85 84 81 78 75 70
55 58 65 81 80 81 89 66 51 59 60 66 65 67 71 69 68 71 71 72 69 64 63 61 59 58 56 53 51 51 51 53 58 61 66 71 74 75 79 82 84 78 75 73 70 66 59 53 48

GFSSGP_prec_cthk_009.txt.gz
RH
3 3 5 11 13 13 18 20 21 24 45 45 45 46 47 47 48 51 48 51 50 40 44 48 46 49 48 46 48 52 50 51 50 48 47 53 53 53 52 49 51 55 57 56 56 54 47 47 47
3 6 11 15 18 18 19 20 25 34 44 44 45 47 46 49 46 44 44 49 48 44 44 41 39 39 39 38 38 40 42 44 40 37 35 39 44 47 55 55 57 55 54 52 54 50 47 45 43
9 13 15 21 23 21 23 22 32 34 36 38 46 49 49 46 44 42 41 44 39 40 39 37 36 34 34 33 32 32 32 33 33 34 33 32 36 38 42 51 55 54 49 47 47 47 46 44 48
13 13 17 23 21 24 30 31 37 38 42 43 46 51 52 48 36 30 36 39 38 38 34 30 29 29 27 26 27 29 29 30 29 29 25 22 23 23 26 33 36 36 37 39 43 43 45 44 45
14 16 17 21 21 24 28 30 30 31 35 35 34 37 42 39 29 32 37 40 37 33 31 29 29 28 28 29 31 30 31 29 25 20 17 18 19 20 22 24 26 27 29 31 32 35 35 43 44
15 15 19 21 20 17 19 22 25 28 29 29 30 30 34 34 31 36 38 36 34 32 30 27 26 26 26 23 22 21 21 22 22 22 21 20 20 21 23 24 24 24 26 27 28 29 28 30 35
16 16 19 19 18 17 16 14 14 14 19 21 24 27 29 33 35 44 44 38 31 26 26 26 23 22 22 20 20 22 23 24 27 29 30 24 19 22 25 26 26 23 23 23 25 23 25 26 27
15 17 17 15 14 14 14 14 14 14 16 16 16 21 29 27 28 33 37 43 35 32 33 32 29 26 25 26 26 25 25 28 32 34 24 19 19 20 20 18 16 13 14 13 15 17 18 21 24
15 16 16 16 16 15 14 13 12 12 12 12 15 16 19 24 26 29 32 31 30 28 32 32 33 30 23 18 15 17 17 22 25 23 18 17 18 18 17 14 11 10 11 11 13 15 17 20 25
15 15 15 15 13 11 9 9 9 10 13 15 14 15 17 20 23 23 23 22 24 26 32 33 28 23 17 16 14 16 16 18 20 21 19 18 20 19 17 15 14 15 14 13 14 17 19 22 25
14 14 15 12 9 9 10 9 9 9 11 13 12 13 16 19 20 23 23 25 26 33 36 37 30 26 20 19 17 16 18 20 23 23 24 24 24 23 21 21 21 20 20 19 18 20 21 23 25
7 9 11 13 11 8 10 9 10 11 9 10 13 16 17 19 18 18 21 27 30 32 38 31 26 23 22 21 20 21 25 29 31 30 30 30 30 28 28 28 28 27 26 25 25 26 27 28 28
13 15 16 18 18 17 15 16 14 16 14 15 18 20 21 22 23 26 29 29 29 31 31 29 27 25 24 23 23 24 29 32 33 33 34 33 33 31 30 31 31 32 32 32 31 30 30 31 30
18 18 18 21 21 19 19 17 18 17 17 16 19 21 21 23 24 27 29 28 29 31 31 31 30 29 28 29 27 27 30 33 35 36 39 39 39 35 33 33 34 35 36 36 36 36 35 34 33
21 21 20 20 21 21 19 20 20 19 18 16 17 20 21 21 24 24 24 25 28 30 31 30 30 29 28 29 29 31 34 36 38 39 40 41 41 41 41 41 41 42 41 41 41 40 40 40 39
21 20 20 20 21 21 20 20 20 18 19 18 17 19 19 20 21 23 24 26 28 30 32 34 36 37 37 36 37 38 39 40 42 44 44 44 44 44 43 44 44 44 44 45 45 45 46 46 46
19 20 21 21 21 23 20 19 18 19 19 19 17 17 19 21 23 24 26 29 32 34 37 39 40 41 39 39 40 42 43 43 43 44 45 46 46 47 47 49 49 49 49 50 50 50 50 51 50
21 19 20 22 23 24 22 19 19 20 20 20 18 20 21 24 28 28 31 32 36 39 42 43 45 44 46 46 46 47 46 45 44 45 45 46 47 48 49 51 52 51 52 53 53 54 54 55 55
21 22 22 23 22 23 23 23 21 19 21 23 21 21 23 26 29 30 31 33 38 42 44 44 46 49 50 51 51 48 49 48 46 45 46 48 49 51 51 51 53 53 53 53 54 56 57 58 58
23 24 22 21 24 26 25 24 21 21 22 22 24 27 27 29 32 33 35 38 42 44 45 45 49 53 55 56 54 54 53 52 50 50 49 50 52 53 54 55 57 57 56 56 56 56 58 60 60
23 23 25 28 28 29 29 26 25 25 24 26 28 29 31 34 38 40 42 43 45 47 50 53 53 53 54 56 59 60 57 55 53 51 48 49 52 52 53 55 57 60 61 60 60 57 54 55 56
26 25 26 29 33 36 31 36 34 29 30 32 32 33 35 38 39 40 42 45 49 53 54 52 54 56 56 56 56 56 57 56 56 54 50 49 54 56 57 56 57 60 64 70 71 68 64 64 64
28 27 30 31 38 38 36 38 36 34 34 35 36 39 41 40 40 43 46 50 57 54 55 58 60 61 60 63 62 61 60 56 51 48 46 47 50 54 55 58 59 64 67 72 80 80 73 73 71
29 30 33 38 39 46 39 41 39 40 40 42 44 46 47 47 49 51 53 59 60 59 61 62 64 62 63 65 64 62 61 57 51 50 49 49 50 52 55 59 62 65 69 72 87 84 73 76 82
34 36 47 47 54 52 43 41 42 43 46 50 54 57 57 57 58 58 59 62 64 65 65 64 64 63 62 60 60 62 60 57 54 53 52 51 49 48 47 50 55 69 72 79 84 81 84 89 94
39 41 53 52 61 56 45 48 46 47 53 58 61 61 58 58 60 62 64 64 68 66 63 63 63 61 60 59 57 56 57 55 53 51 48 46 44 44 46 50 60 69 74 87 78 82 90 97 97
43 49 47 58 67 68 56 51 46 49 54 60 59 57 58 58 62 65 66 67 67 64 62 60 59 56 53 52 52 52 51 49 46 46 46 44 44 46 52 58 65 70 78 82 93 98 98 97 94
45 48 58 67 74 75 61 55 51 51 58 52 53 56 58 59 63 66 67 70 67 65 62 62 62 62 60 60 55 49 45 41 41 42 45 48 53 56 60 66 72 82 86 86 88 86 86 87 86
52 58 60 63 72 77 81 61 50 49 53 54 57 60 64 66 68 69 72 75 70 70 68 63 63 63 60 56 52 45 40 38 40 45 47 52 56 61 67 73 79 76 76 76 78 75 73 72 69
50 57 58 72 71 72 76 59 49 56 59 59 64 66 66 66 68 72 75 76 75 74 70 64 63 60 57 53 51 47 41 40 42 43 45 55 64 74 76 71 71 74 78 78 74 69 65 59 53

GFSSGP_prec_cthk_012.txt.gz
RH
3 3 6 10 11 14 18 19 24 32 41 42 41 40 44 50 50 51 51 55 49 45 44 44 47 48 50 49 50 51 50 51 52 51 51 51 53 53 55 50 49 50 55 58 58 56 55 53 51
3 8 12 13 15 17 18 24 32 36 41 44 44 46 47 51 46 48 48 51 48 43 42 40 39 38 38 36 36 35 35 36 38 35 34 40 47 50 47 48 48 51 55 59 59 58 55 54 53
10 12 14 16 18 19 20 26 37 42 42 46 48 51 51 53 48 47 47 41 39 41 39 37 35 34 34 32 31 31 30 32 33 33 34 35 39 40 44 45 45 49 54 54 51 50 52 51 51
13 14 15 19 21 23 24 31 39 40 42 44 46 46 45 46 40 41 32 30 32 33 34 33 31 29 30 28 28 29 28 28 28 29 27 24 23 23 29 31 30 28 30 34 38 43 47 47 46
13 14 18 24 23 26 27 30 33 33 32 32 34 38 34 30 30 28 28 29 31 33 33 32 31 31 31 30 25 23 22 20 20 21 22 21 19 19 19 20 23 24 26 27 28 32 38 42 40
13 16 19 19 20 22 26 25 25 26 27 30 30 28 28 26 30 30 32 32 31 31 30 26 25 23 22 21 21 21 21 24 27 28 28 26 23 22 22 22 22 23 23 25 27 29 30 31 35
14 16 18 17 19 17 15 13 14 15 17 21 22 28 25 29 32 33 36 36 34 28 27 30 29 27 25 23 22 20 20 21 26 30 32 24 22 22 22 21 21 19 15 14 16 19 23 25 27
14 16 18 18 18 16 14 13 12 14 16 18 18 24 26 24 28 30 31 36 30 24 31 34 32 34 25 18 14 11 12 17 20 22 20 16 16 17 18 16 13 10 10 10 11 13 13 14 16
18 18 19 15 14 13 12 12 10 10 13 11 14 16 16 18 22 25 27 26 24 24 30 28 26 21 18 14 12 10 11 13 16 20 19 19 20 21 20 17 13 12 12 12 11 11 12 14 17
15 16 14 13 10 9 9 9 9 10 11 13 13 13 13 16 20 22 24 24 21 22 28 29 29 25 21 18 16 13 13 16 20 21 23 24 25 26 26 24 21 20 19 18 17 16 16 17 19
13 13 12 9 8 9 10 10 10 10 11 11 11 14 16 19 19 21 24 23 24 27 27 32 33 26 22 20 19 18 18 23 27 29 29 29 29 29 28 26 25 25 24 24 23 22 21 21 21
9 11 12 12 10 10 11 12 12 13 10 13 14 17 18 22 23 25 27 24 28 27 30 37 31 26 24 24 24 24 24 27 30 32 32 33 32 32 31 31 30 30 29 29 29 29 28 27 27
12 15 19 20 18 16 15 16 16 18 16 15 18 20 21 23 22 25 28 30 32 32 33 34 30 28 27 27 26 26 26 29 32 34 36 37 39 40 40 39 38 38 37 36 36 35 34 31 29
15 17 19 21 21 19 18 18 18 17 17 16 18 19 21 21 21 24 25 27 29 31 31 33 32 32 33 35 33 33 34 36 38 39 41 43 44 43 43 42 42 41 41 41 42 42 41 39 37
19 18 17 19 21 22 20 20 19 19 19 19 17 19 20 19 22 23 26 29 30 32 38 38 39 40 40 39 37 37 38 38 39 40 41 43 43 44 44 44 43 43 43 43 44 44 44 43 43
19 18 20 20 22 21 20 21 19 19 20 20 19 18 21 21 23 25 27 30 33 37 40 41 42 43 43 41 42 42 43 42 42 41 41 41 41 42 43 43 43 45 46 46 47 48 48 47 48
19 18 20 21 22 23 22 22 20 19 19 21 20 19 24 25 27 28 30 32 35 41 45 46 46 45 45 45 45 45 44 45 46 43 43 43 42 42 43 44 45 46 46 46 47 48 49 49 51
21 19 20 19 20 23 23 22 22 20 22 22 21 21 24 28 30 31 32 34 36 41 45 49 50 48 49 50 51 50 51 52 51 50 48 47 46 45 45 44 46 48 48 48 48 48 49 51 52
21 22 23 20 20 23 24 26 22 20 22 24 25 25 25 29 31 31 33 34 36 42 48 51 51 51 53 53 55 56 54 53 51 51 50 50 48 48 49 48 48 49 50 52 52 51 51 52 53
21 23 23 23 24 26 28 27 23 23 24 25 26 27 28 29 30 32 33 36 41 46 52 55 53 57 58 56 55 58 59 59 58 58 56 51 49 47 47 49 50 50 51 53 53 53 54 57 58
25 23 25 27 27 29 30 28 28 25 27 27 29 30 31 32 32 36 39 42 46 50 55 58 59 58 56 57 59 58 56 57 58 60 58 57 52 49 47 49 51 53 53 52 54 56 56 57 56
28 25 26 29 31 35 32 35 32 31 30 32 32 34 34 35 37 40 44 48 51 53 54 57 58 57 56 58 56 56 56 55 57 57 55 54 51 48 48 49 51 54 57 57 58 59 60 65 64
29 28 28 30 34 36 36 36 35 35 33 35 37 37 38 38 41 45 49 51 53 54 54 58 59 58 57 57 58 58 58 59 58 57 52 49 48 49 47 48 47 47 49 52 58 59 66 66 69
30 30 31 36 39 44 41 41 39 38 39 41 41 41 43 46 49 51 55 58 59 60 60 61 61 61 60 62 63 64 64 60 55 52 48 45 42 39 38 38 39 40 44 49 55 61 65 69 70
35 35 41 45 52 50 41 41 40 41 43 44 46 49 50 53 57 59 59 60 63 63 65 67 67 67 66 67 68 66 62 60 55 50 44 39 36 35 31 29 30 34 41 48 54 63 69 71 84
40 41 52 46 60 56 45 45 46 47 51 52 53 54 57 58 59 61 64 67 67 68 69 71 72 72 70 67 61 60 59 57 56 47 43 41 42 35 32 32 35 39 44 53 60 67 75 80 96
44 50 48 58 64 63 52 46 50 50 52 50 51 54 56 57 60 64 67 67 70 71 71 70 70 71 70 66 67 63 63 56 50 49 46 43 42 42 41 47 52 59 60 66 73 79 89 90 86
47 47 53 60 68 66 55 49 48 52 53 51 55 55 57 60 62 65 67 68 68 68 69 72 71 69 68 67 65 60 56 53 49 46 43 45 48 49 52 59 61 66 69 72 76 78 74 73 82
51 55 56 58 66 74 77 60 48 49 50 51 53 55 57 60 63 65 65 67 69 70 71 70 68 62 58 59 59 60 59 51 43 38 40 43 46 50 53 60 70 72 71 70 72 75 80 79 75
50 52 53 61 62 71 74 59 47 52 53 51 52 55 58 63 64 66 67 69 71 67 63 62 62 61 56 55 64 67 57 53 53 47 40 45 51 58 66 74 81 81 82 85 85 82 79 75 70

GFSSGP_prec_cthk_015.txt.gz
RH
4 4 6 9 10 16 18 23 27 39 44 44 41 39 41 48 46 48 48 54 47 43 42 42 44 45 49 46 45 47 45 44 45 44 40 43 46 48 49 50 52 56 57 57 60 62 62 63 61
4 7 10 10 13 16 23 24 27 39 42 43 42 45 43 43 46 44 48 47 43 39 36 38 40 39 37 37 35 32 33 37 37 33 31 38 42 42 45 48 49 54 52 53 54 58 57 59 55
10 10 11 13 16 17 30 32 39 40 42 44 45 44 42 43 41 43 45 43 36 32 31 34 35 34 33 32 31 30 30 31 29 27 27 26 27 31 33 38 46 46 44 48 43 40 40 45 47
11 12 14 18 22 21 27 35 36 37 41 41 40 38 35 29 30 33 36 33 29 28 29 29 32 32 31 30 29 26 25 24 21 20 18 21 21 23 27 27 28 25 25 25 27 29 31 35 42
12 15 20 24 25 29 32 34 36 32 33 34 30 30 26 25 25 26 26 27 27 28 29 29 29 27 26 26 23 20 20 20 23 24 24 26 27 25 27 28 27 25 25 24 25 26 28 31 36
16 17 21 25 24 24 29 30 27 26 27 28 25 25 27 24 26 26 27 28 29 27 26 25 25 25 24 23 20 19 21 20 20 23 26 26 20 20 22 23 25 26 27 25 26 26 27 26 26
16 15 18 19 20 20 19 16 18 20 21 22 21 22 25 26 27 25 26 27 27 26 26 24 27 27 26 21 17 13 11 15 19 22 23 17 15 16 17 18 18 15 10 9 10 13 18 21 23
17 17 18 18 16 16 15 13 14 14 17 18 18 18 23 23 25 26 26 27 28 27 27 29 27 24 19 15 13 10 9 13 16 19 19 18 16 18 19 19 17 12 11 10 10 11 12 13 15
19 19 16 15 14 12 12 11 9 10 14 13 14 16 16 19 21 22 23 26 23 26 30 27 25 23 18 16 14 12 12 14 16 18 21 22 22 23 25 25 23 20 18 17 17 16 15 16 17
17 16 15 12 9 9 9 9 9 10 12 14 14 13 13 15 18 20 23 23 22 24 26 25 28 23 21 19 19 18 17 20 24 26 27 27 28 27 28 27 26 25 24 24 23 22 21 19 20
15 14 10 8 8 9 9 9 9 10 10 11 12 13 16 19 21 23 24 25 24 28 28 31 34 26 25 26 26 25 24 24 25 27 28 30 30 31 32 32 31 31 32 32 31 30 29 27 26
10 11 11 10 8 10 11 11 12 12 12 14 16 19 20 22 25 26 29 27 27 29 31 35 38 29 28 28 28 29 30 31 32 34 35 37 38 38 39 40 40 38 37 37 37 36 36 36 35
12 15 16 17 16 15 14 15 17 17 15 16 18 20 20 22 23 26 28 30 30 31 32 34 37 33 33 34 33 32 34 35 36 37 38 39 41 42 43 43 42 42 41 41 41 41 41 41 40
14 16 18 19 19 18 17 17 19 19 19 18 18 19 21 21 22 24 25 28 30 34 38 41 42 37 36 37 35 36 38 39 39 39 39 38 39 39 40 41 42 42 42 41 42 42 43 43 43
17 18 18 19 20 21 19 21 21 20 21 21 19 20 22 22 24 25 28 32 35 36 40 42 44 40 40 41 40 40 40 40 40 40 41 40 41 40 39 39 40 40 41 42 43 43 44 44 44
18 17 18 20 22 23 22 22 21 21 20 20 21 20 22 26 26 27 30 33 36 39 41 45 47 46 45 45 46 45 44 43 45 47 46 44 45 43 42 42 42 43 43 43 44 44 44 45 46
17 17 18 20 23 23 23 24 22 21 20 20 22 19 21 24 27 30 32 34 35 38 42 49 51 50 48 48 50 51 48 49 51 52 51 48 49 48 46 45 45 46 46 46 46 46 45 45 46
21 20 21 20 19 21 23 23 22 20 20 22 21 19 21 26 28 31 31 31 34 38 42 48 49 50 49 50 51 53 53 53 55 55 54 55 54 52 51 45 42 44 47 47 47 47 47 47 46
21 22 23 21 21 22 24 25 21 21 22 23 24 21 24 27 29 29 31 33 36 38 44 49 51 52 53 54 55 56 56 56 54 54 56 55 54 52 49 47 43 42 43 45 48 48 50 49 51
22 22 22 23 24 25 27 25 23 23 25 27 28 29 30 29 31 32 33 36 42 47 49 51 53 54 55 55 58 56 54 55 55 56 54 54 53 50 47 45 43 43 42 44 47 51 51 51 52
25 23 24 25 26 27 28 27 27 26 28 30 31 32 32 32 34 35 37 42 47 51 53 56 57 56 56 56 56 56 56 57 58 59 58 55 54 52 47 46 45 44 43 43 45 47 50 52 55
26 25 27 28 30 30 31 29 30 30 30 33 34 34 35 37 38 40 44 49 52 55 56 57 58 59 59 60 61 62 62 59 58 58 57 53 53 52 51 46 42 40 38 36 38 41 42 50 55
30 29 29 30 32 34 34 31 33 34 34 35 36 37 39 40 42 46 50 54 56 57 59 61 62 64 66 67 67 67 68 63 61 61 54 53 52 49 43 40 37 35 32 31 29 28 30 37 47
33 32 32 35 37 39 39 36 39 39 38 38 40 42 45 48 51 52 55 58 59 61 62 66 68 70 71 71 71 69 68 72 67 66 64 57 51 44 42 40 36 32 30 30 34 39 41 44 46
35 34 35 40 44 42 39 38 42 43 44 46 49 51 52 54 56 58 59 62 63 65 68 70 71 69 68 70 74 78 75 70 63 61 54 54 51 47 44 43 40 35 32 31 35 40 47 54 59
41 40 45 43 48 46 43 45 46 47 49 51 53 53 54 58 61 62 62 64 67 69 70 68 67 69 73 78 79 75 68 64 62 58 60 58 56 56 53 49 46 48 46 48 50 53 57 64 69
43 48 46 53 61 56 45 48 50 50 50 51 52 53 56 58 59 60 62 63 67 69 69 71 74 75 67 62 56 56 58 59 56 58 58 53 47 49 49 50 54 57 60 63 66 63 67 70 75
44 46 48 53 58 56 45 46 44 49 52 52 52 53 51 52 55 57 59 64 67 70 72 71 69 66 63 62 59 60 59 61 64 54 48 47 50 56 59 63 63 67 72 73 72 71 72 74 76
49 51 54 54 59 64 70 46 44 47 49 50 52 52 52 55 59 61 62 62 62 63 64 62 64 66 66 64 64 66 65 62 53 52 54 51 51 55 58 63 67 73 80 85 86 86 88 87 84
48 50 49 51 53 59 65 48 42 49 49 51 50 52 55 56 59 59 58 58 60 63 64 65 66 65 64 63 64 62 59 57 51 47 52 57 62 60 65 68 72 83 88 91 95 93 92 89 84

GFSSGP_prec_cthk_018.txt.gz
RH
7 5 8 10 12 18 23 25 30 36 35 36 35 35 37 38 40 56 48 46 48 52 50 48 44 44 48 46 45 45 47 43 41 44 46 43 46 47 48 52 50 52 51 53 55 54 56 62 65
5 7 9 9 14 21 26 25 34 36 35 35 34 35 36 39 41 45 46 44 43 43 41 36 35 34 34 35 34 35 35 36 37 36 36 36 37 42 43 40 46 44 50 54 49 47 48 50 52
8 9 10 13 17 24 27 30 35 37 35 38 37 38 37 39 38 39 40 38 39 36 33 30 30 30 29 28 26 26 26 26 25 25 26 26 30 33 38 40 40 38 40 39 40 38 34 35 39
10 11 12 17 19 25 30 33 33 35 37 38 36 34 33 33 32 35 32 30 29 24 28 27 26 26 26 26 25 25 25 22 21 20 21 23 26 28 28 30 30 29 27 25 24 25 28 33 35
12 14 18 21 22 23 31 33 34 34 34 35 29 26 24 32 31 29 29 26 27 27 26 26 27 27 25 24 22 20 19 20 20 19 21 25 28 26 22 22 23 24 25 26 27 29 31 33 35
15 19 22 25 26 26 28 31 28 27 28 25 24 24 26 28 28 29 28 27 27 25 25 24 22 19 20 21 20 15 15 13 16 18 22 23 16 15 17 19 19 21 21 20 18 17 19 22 24
17 22 24 24 24 26 23 19 24 23 23 23 20 24 26 30 29 28 27 26 23 26 26 24 22 20 20 16 11 11 11 13 16 20 22 17 15 16 19 21 20 18 13 12 11 10 11 14 14
16 18 19 19 18 18 15 14 15 18 21 18 20 21 22 26 24 23 25 26 26 30 29 28 24 22 15 14 12 10 9 12 14 17 19 19 19 20 23 24 23 21 16 15 14 14 13 13 14
19 16 16 15 16 13 12 11 9 11 15 14 16 23 23 25 23 26 27 27 28 29 28 26 25 18 17 16 16 14 13 16 19 21 22 24 28 27 28 30 29 27 25 24 23 21 20 18 17
16 17 15 13 11 11 9 10 9 12 12 14 16 15 16 18 22 23 28 25 23 28 29 26 24 21 20 21 23 23 21 27 26 26 25 29 29 30 31 31 31 30 29 29 30 30 29 29 32
16 16 13 8 8 9 9 9 8 10 12 12 15 16 19 23 25 27 31 28 29 31 29 28 31 25 26 28 30 31 31 32 32 31 34 36 36 40 42 43 44 42 39 40 37 36 40 37 36
13 11 7 6 8 10 10 11 10 11 12 14 16 21 24 27 29 32 33 35 34 33 32 33 37 30 29 34 36 36 38 40 43 46 40 43 45 46 46 47 48 47 48 44 45 46 41 40 40
11 13 13 14 13 13 13 15 17 15 15 16 19 22 25 27 30 32 34 38 38 35 36 37 41 41 37 36 36 36 37 44 44 45 45 39 44 45 44 43 42 44 45 46 46 46 47 46 43
13 16 17 18 18 17 17 17 18 18 18 16 18 21 24 26 28 28 30 35 37 39 45 46 44 45 40 41 40 40 41 44 44 46 46 41 40 44 44 43 43 43 44 44 45 46 45 46 45
16 18 18 19 20 22 19 20 19 19 18 19 19 20 25 26 27 28 31 36 43 44 46 49 48 49 45 45 45 47 48 47 48 48 46 47 46 44 43 45 45 45 44 42 43 44 43 43 44
17 17 19 19 20 21 21 25 21 22 21 20 22 21 23 24 27 33 36 38 40 43 46 49 49 53 50 49 49 50 51 50 50 52 53 53 52 51 49 49 50 46 43 44 44 44 45 45 43
15 17 16 18 18 20 20 24 23 21 19 20 21 22 23 26 31 35 34 37 40 41 41 45 50 55 51 50 51 51 52 55 56 57 58 54 52 52 50 48 46 46 46 43 42 43 44 44 44
17 17 18 18 19 18 20 22 20 19 19 20 23 23 22 27 35 34 36 38 36 37 40 47 55 56 54 54 54 55 55 55 57 58 57 55 53 51 49 48 48 49 50 47 47 46 46 48 45
17 19 20 20 20 21 22 22 20 22 22 24 26 25 26 32 33 36 33 33 35 38 45 52 56 55 57 58 59 60 60 59 60 61 59 58 57 57 56 54 54 53 50 50 48 48 47 47 51
20 20 21 22 22 24 25 25 23 24 25 27 29 31 31 32 34 34 36 38 40 43 45 51 56 59 59 59 61 62 63 63 65 66 66 64 62 62 60 56 52 52 48 48 48 47 46 46 50
23 22 25 25 24 24 25 27 26 26 28 30 30 32 34 35 36 38 39 41 44 48 53 58 61 62 62 62 64 65 66 68 68 68 68 67 66 65 60 56 52 46 45 41 39 40 39 40 42
24 25 26 25 25 26 26 33 29 29 31 33 34 35 36 38 40 43 45 47 51 54 58 62 63 62 62 63 64 66 68 67 66 66 67 68 68 64 57 50 43 40 42 43 42 43 44 49 45
31 30 29 28 27 27 29 30 35 33 33 35 37 38 39 42 43 46 51 55 58 58 60 62 63 62 63 64 66 66 64 64 67 73 84 79 67 60 54 48 42 42 43 43 42 42 48 49 46
31 30 30 33 34 38 35 35 38 36 37 40 42 43 45 47 49 53 53 55 57 59 60 62 64 66 68 71 66 66 70 71 70 67 61 58 55 49 51 50 45 44 45 49 48 44 43 45 48
33 32 36 44 44 42 37 35 41 40 41 42 43 46 48 52 56 56 60 62 63 64 63 65 69 72 75 71 71 73 76 64 61 56 52 51 48 49 53 48 51 49 45 42 42 44 46 48 52
37 38 43 45 43 43 38 37 41 42 43 44 45 50 53 55 58 60 59 60 61 62 64 67 71 72 71 69 62 57 57 57 55 53 53 51 54 51 49 47 49 48 53 57 53 53 54 54 59
40 43 41 46 54 49 38 40 43 43 45 48 51 54 55 57 56 53 53 56 60 63 63 61 61 60 60 60 61 60 56 56 58 57 56 54 52 52 51 53 58 59 61 66 71 74 75 67 69
40 41 46 44 58 41 32 39 40 44 49 51 53 53 55 55 55 56 59 63 63 61 59 60 60 63 64 65 63 60 61 62 62 57 53 48 50 55 60 67 69 71 73 73 76 79 80 84 86
41 43 42 42 47 48 45 33 40 44 47 50 51 52 53 57 60 61 61 58 59 63 65 64 65 66 67 62 60 61 58 57 51 52 49 51 60 64 69 74 74 72 74 81 84 89 95 98 97
43 45 43 43 47 52 54 41 39 45 50 52 57 57 59 62 63 64 65 64 66 68 67 67 69 66 63 60 56 52 47 48 49 51 59 61 65 67 69 68 72 76 84 89 93 96 96 96 95

GFSSGP_prec_cthk_021.txt.gz
RH
7 7 10 10 12 19 36 41 42 41 38 38 32 39 45 50 51 66 67 43 45 53 50 50 42 39 43 48 46 48 45 42 42 42 43 44 43 45 45 47 48 48 50 48 51 53 49 51 51
9 8 8 11 16 28 37 33 46 48 34 27 28 32 37 34 38 44 45 42 44 50 56 38 37 39 35 32 30 30 31 32 36 34 34 32 31 32 35 38 43 43 42 45 48 49 44 46 45
7 8 11 14 22 25 39 33 44 35 31 38 32 37 41 40 42 45 38 36 39 44 39 30 28 25 25 25 25 24 24 23 23 23 23 25 27 28 29 32 34 38 39 40 36 30 31 31 30
8 8 10 15 31 33 35 42 43 33 35 37 36 39 35 38 38 33 33 32 35 34 26 24 23 24 26 26 24 24 22 21 19 19 20 21 23 25 28 27 25 25 24 24 25 26 25 27 29
10 14 21 27 33 34 44 41 39 50 46 40 34 38 34 36 36 33 30 28 28 30 22 21 21 21 22 21 19 17 15 16 17 17 19 21 22 21 17 18 19 20 21 23 23 23 23 24 25
15 23 27 34 38 35 36 35 34 41 42 32 34 37 36 35 35 30 28 27 28 26 24 22 21 18 17 17 15 12 12 13 16 19 21 23 19 15 16 18 19 20 18 15 13 12 11 12 16
22 32 31 38 32 34 30 27 30 34 30 28 27 35 31 32 30 28 28 25 27 28 30 30 22 18 17 13 10 9 10 13 16 19 22 21 18 17 18 21 23 23 19 16 13 12 12 11 11
20 30 32 30 31 27 18 20 23 26 35 24 31 31 28 31 26 27 25 24 27 30 33 31 28 26 23 16 11 10 10 13 13 17 20 20 22 24 24 26 28 27 25 23 22 22 21 18 16
16 22 24 21 21 16 12 14 11 15 19 21 19 34 29 28 25 25 24 26 30 31 30 34 35 25 24 25 18 16 15 17 21 25 24 28 41 39 40 34 30 29 28 27 27 28 27 27 28
19 20 21 16 17 13 11 13 10 17 16 16 20 19 33 26 24 27 27 28 30 32 33 35 29 25 24 28 29 32 29 34 33 36 37 47 43 45 40 42 41 40 38 37 38 37 35 36 42
20 23 14 11 11 10 9 10 9 13 16 17 20 19 27 23 25 29 34 34 36 40 39 39 29 28 31 34 35 43 46 45 49 47 44 50 48 53 51 55 54 52 49 52 50 48 49 48 45
18 15 11 8 7 11 11 11 10 13 16 14 19 23 27 26 32 36 39 43 41 48 41 40 39 31 29 39 47 44 47 49 48 53 47 49 51 50 49 49 47 47 49 48 49 50 50 48 48
13 10 8 8 8 11 11 13 15 13 14 14 20 24 29 33 37 35 43 51 47 49 51 49 45 45 42 40 46 46 47 54 51 55 50 48 48 48 47 47 47 46 45 48 47 46 47 48 47
15 14 16 16 16 13 15 16 17 18 15 15 18 25 32 33 37 42 43 48 49 53 57 56 59 53 49 46 48 50 53 56 57 55 51 49 51 54 52 50 52 52 49 48 46 43 42 42 42
14 16 17 18 19 20 16 19 18 19 18 18 18 21 34 38 37 39 43 47 51 55 60 63 62 58 52 49 50 51 55 50 54 56 54 53 52 52 51 54 55 53 51 48 46 45 44 43 43
19 26 29 23 18 20 19 36 25 20 20 21 23 22 25 33 35 40 43 48 51 56 59 58 57 56 56 56 55 56 58 55 59 61 58 56 52 49 49 50 50 49 46 46 47 45 44 45 46
20 29 22 23 17 19 20 33 29 25 21 20 21 24 24 29 39 47 49 44 45 48 51 54 58 58 61 59 59 60 61 59 65 62 62 62 60 57 55 55 55 53 51 51 53 51 49 49 48
25 21 18 21 24 17 20 22 26 21 19 19 21 23 26 27 40 50 44 39 38 40 43 49 56 60 62 62 62 62 63 64 65 65 66 65 65 65 64 63 63 63 61 57 56 54 50 49 47
17 18 23 22 21 18 22 23 24 21 22 22 24 24 26 31 43 41 38 37 38 41 49 53 58 58 62 65 66 66 67 70 69 70 69 69 67 65 64 63 63 62 60 52 52 47 47 47 50
20 22 23 21 21 20 26 29 25 24 25 27 28 31 34 37 37 40 38 37 42 47 50 52 56 57 61 65 68 68 68 69 70 71 73 69 63 64 65 68 74 73 61 52 49 44 43 45 47
24 23 26 24 23 22 23 30 27 26 26 28 30 33 36 37 39 40 41 43 46 51 53 57 60 63 65 66 70 72 71 70 71 74 69 68 70 70 68 65 67 61 54 48 49 46 46 47 46
28 26 24 23 24 35 28 41 41 35 30 31 34 35 37 39 41 44 46 51 52 55 58 61 63 65 63 62 64 66 68 72 76 72 72 73 77 65 58 54 51 50 48 49 50 52 52 54 49
28 26 27 27 28 27 28 25 49 40 36 35 39 41 44 44 46 48 51 54 56 59 59 60 63 65 66 64 66 69 72 79 74 69 66 63 60 56 53 52 50 49 50 54 55 54 51 51 49
26 29 29 30 34 38 41 30 50 49 39 39 43 46 49 47 47 50 54 58 62 60 62 61 63 64 65 66 68 69 67 63 61 58 57 55 53 49 49 50 49 50 58 59 56 50 48 47 49
33 36 45 51 47 52 43 29 47 42 41 42 45 47 46 49 52 55 59 60 60 60 57 58 61 64 65 61 58 58 58 59 59 59 54 52 50 51 53 55 60 60 61 59 59 60 57 55 54
36 36 47 46 48 45 39 34 46 40 40 42 44 46 48 53 56 58 58 57 57 57 61 61 59 58 59 61 62 61 63 62 60 56 56 53 50 49 52 54 55 54 60 62 64 62 61 67 71
39 42 34 42 48 43 34 42 44 45 43 42 45 49 52 56 55 57 57 59 60 60 59 56 58 58 61 64 66 67 64 64 59 56 53 48 46 46 47 50 53 58 63 68 68 69 71 67 65
32 32 45 45 53 40 36 36 43 55 50 51 48 50 53 53 56 57 58 59 60 59 61 64 65 65 65 65 66 67 66 64 59 53 54 51 50 50 45 49 56 59 62 69 74 77 76 81 83
44 48 43 39 43 48 41 35 44 49 47 49 50 54 56 57 59 61 59 61 64 66 67 65 64 64 66 67 67 65 61 60 56 53 51 52 49 50 48 53 61 61 66 71 77 82 87 91 94
36 42 42 46 43 50 54 43 44 47 54 54 57 60 59 61 64 66 68 69 68 68 66 64 65 66 68 65 59 55 54 58 59 54 48 47 47 50 56 63 69 77 81 84 90 92 94 97 97

GFSSGP_prec_cthk_024.txt.gz
RH
9 8 9 10 14 16 26 42 48 49 53 46 37 37 47 52 55 65 68 67 57 43 43 49 45 41 42 43 40 40 39 36 34 36 39 39 37 36 36 37 40 44 45 43 43 43 49 47 42
6 8 9 11 16 24 38 48 48 44 40 28 30 38 40 42 48 48 44 48 47 44 45 42 39 34 33 31 28 26 26 27 27 28 26 25 26 27 28 31 34 36 40 42 45 42 37 35 33
11 12 11 19 26 27 39 46 46 49 41 40 33 44 43 42 43 36 38 43 44 41 33 30 28 27 23 22 22 22 23 21 20 19 19 20 22 23 25 25 26 25 25 26 25 23 22 22 22
7 9 10 23 31 36 41 51 47 44 30 38 43 42 35 43 38 35 31 36 34 27 23 23 22 21 21 20 20 20 18 17 16 16 16 17 19 20 20 18 16 16 18 19 20 20 20 20 20
9 15 21 31 42 42 47 49 39 42 50 42 42 57 51 38 29 28 30 31 28 21 19 19 18 18 18 16 15 14 14 14 15 15 18 20 21 20 16 16 17 18 19 18 15 13 12 12 13
21 21 30 33 40 46 49 41 42 46 56 42 42 47 44 35 29 27 27 30 27 20 18 18 19 18 15 14 11 9 10 12 14 17 19 21 19 16 16 18 20 21 20 17 15 14 12 10 9
25 26 32 36 42 37 38 27 33 48 42 36 35 39 35 35 29 26 24 24 25 21 20 22 21 17 15 10 9 8 10 12 14 16 18 19 18 19 20 22 24 24 24 23 21 20 19 18 16
28 31 36 39 39 42 24 30 32 33 36 28 32 37 33 29 24 23 22 22 24 28 31 29 27 19 17 17 11 10 11 13 15 16 19 26 31 30 31 31 28 28 28 27 26 26 26 25 25
24 31 34 33 36 31 17 17 18 20 26 26 27 28 29 25 22 22 22 23 26 32 32 32 32 25 24 23 22 22 20 25 25 28 28 38 40 46 45 41 42 39 38 36 36 36 35 34 34
23 22 23 22 23 20 13 15 10 15 16 17 26 32 28 21 25 24 25 27 30 34 33 32 29 20 26 33 32 34 36 35 38 39 42 52 43 48 45 47 45 43 40 41 43 41 42 44 43
25 25 21 20 17 14 12 12 12 17 15 17 19 25 26 23 24 24 28 34 38 38 39 42 30 23 37 34 39 46 48 48 45 48 44 42 45 50 47 45 45 42 44 44 43 41 44 46 43
26 24 21 13 11 12 9 10 11 17 19 18 19 22 31 28 28 32 37 47 40 46 45 41 37 29 29 38 43 43 49 52 55 54 49 45 48 48 45 46 44 44 45 45 46 44 43 42 43
19 16 10 7 8 11 12 10 13 14 15 15 24 27 33 33 36 42 43 54 48 50 48 48 44 38 39 36 42 45 47 56 56 54 49 45 46 46 46 46 46 46 47 47 46 44 41 40 39
14 12 10 9 9 9 10 14 14 16 15 15 21 26 34 41 46 49 45 54 52 46 49 53 47 44 42 44 45 45 49 52 53 54 52 49 50 49 47 47 44 44 45 43 41 39 38 37 38
15 17 15 15 15 15 13 19 19 19 17 16 17 23 36 40 45 48 46 46 49 63 57 55 71 57 51 53 52 51 53 53 53 57 57 57 53 51 50 50 50 50 49 45 42 42 44 43 43
17 24 30 25 21 19 17 30 31 25 21 19 21 23 25 42 44 45 46 44 52 53 54 84 59 59 55 57 56 55 56 56 58 61 65 63 58 56 55 57 57 55 53 52 52 50 48 47 46
22 33 34 32 23 21 19 37 38 30 25 21 23 28 28 30 45 50 51 51 51 49 50 52 58 61 63 60 62 62 60 60 63 69 70 67 64 63 62 59 57 55 55 55 57 57 58 54 50
35 24 27 24 22 16 17 25 37 29 25 20 22 23 33 35 43 53 52 50 42 42 45 47 54 63 64 66 63 64 63 65 67 70 71 68 67 63 65 58 57 58 58 56 56 61 60 53 48
28 24 24 31 22 20 17 23 29 23 24 24 24 26 33 37 40 46 48 47 47 44 46 50 53 58 61 62 63 65 67 68 69 68 70 68 69 70 65 62 61 67 64 58 56 54 48 44 45
26 23 28 27 22 18 26 29 29 26 26 28 29 30 34 36 39 43 48 49 47 44 46 51 56 59 60 62 65 65 67 68 67 67 70 71 78 75 66 62 62 57 54 50 46 41 39 40 45
27 23 29 26 23 20 20 29 31 30 30 32 32 34 37 38 40 43 46 47 46 48 51 55 58 60 63 63 63 63 63 63 64 68 69 73 76 71 66 59 54 49 45 40 39 38 41 44 46
26 27 27 21 23 31 35 40 45 43 43 41 35 36 38 39 41 43 45 47 49 53 56 59 60 62 59 58 59 59 62 64 66 67 67 62 60 58 55 53 47 43 43 43 43 50 51 54 53
26 25 22 23 26 27 34 36 47 45 47 47 47 40 41 45 48 50 51 52 54 56 59 62 64 61 56 56 59 60 59 57 55 54 54 54 55 54 53 50 49 49 51 52 57 56 56 57 59
21 26 27 29 29 41 33 42 56 51 54 58 53 46 47 50 50 51 52 55 57 60 59 58 56 55 58 58 53 52 52 54 56 57 58 57 56 56 52 50 48 48 53 60 63 61 61 55 58
33 36 50 68 60 57 49 43 51 50 57 60 56 49 48 47 50 53 57 60 62 61 56 54 54 55 56 57 59 61 61 62 62 62 60 59 57 54 52 51 55 56 57 59 58 54 51 52 51
34 34 52 53 63 59 48 39 52 45 49 49 43 45 45 49 52 55 56 57 57 58 59 57 57 57 57 58 58 62 63 62 63 61 58 57 50 48 48 51 50 51 51 47 45 52 51 56 60
37 46 31 37 49 46 27 51 57 57 58 56 55 53 52 53 55 58 60 59 58 59 58 57 59 60 58 57 57 57 59 61 56 53 52 48 45 42 44 42 45 44 47 47 59 59 59 64 68
33 30 43 58 59 47 36 44 64 63 61 62 60 54 52 55 59 60 59 59 60 60 61 61 59 59 59 59 59 58 59 56 52 48 42 41 39 37 38 42 42 49 56 60 61 65 69 73 77
36 43 41 40 48 54 52 43 50 58 60 61 58 58 57 57 59 62 63 60 61 59 59 61 61 62 60 59 60 57 53 50 52 47 43 39 37 35 39 47 55 63 69 74 77 77 80 78 78
30 36 39 53 48 56 57 43 43 47 55 58 63 64 66 66 62 63 61 61 61 63 61 63 62 63 65 67 61 58 54 47 44 44 37 36 34 39 47 56 60 64 71 79 86 85 80 75 67

GFSSGP_prec_cthk_027.txt.gz
RH
17 15 17 19 14 24 38 42 57 57 52 55 50 51 60 61 64 74 85 72 60 48 43 41 40 40 40 40 38 37 34 32 29 30 30 28 25 24 25 25 27 27 30 31 35 39 37 40 41
16 20 15 12 17 30 46 56 56 53 57 56 49 51 44 54 56 62 65 64 51 43 40 40 36 38 34 30 26 24 22 22 21 21 17 17 19 21 22 23 23 24 24 25 25 25 25 20 19
7 12 14 19 32 38 42 56 54 50 48 43 45 36 35 40 46 53 57 48 45 37 38 34 34 28 23 20 19 20 19 18 16 15 15 14 16 18 19 20 18 16 16 16 17 17 17 17 17
27 19 23 34 35 43 51 55 52 51 51 45 33 39 44 44 44 45 42 38 34 28 26 24 22 19 19 19 17 16 15 14 14 13 13 14 17 19 16 13 14 14 15 16 14 12 11 11 11
12 19 32 40 54 54 52 50 51 51 52 48 41 48 49 49 34 33 29 30 22 20 19 18 18 18 17 14 11 9 9 11 12 12 14 16 18 14 14 15 17 18 18 16 15 14 13 10 8
14 24 34 38 51 54 51 50 51 49 52 53 51 43 40 31 26 26 26 24 18 17 17 17 19 17 14 11 7 6 8 9 11 13 16 18 17 16 19 21 23 23 23 22 21 20 19 19 18
30 36 35 38 52 46 48 46 43 44 46 44 45 38 34 25 26 25 24 21 17 17 18 20 18 16 11 8 7 8 9 10 11 13 15 19 22 24 25 25 25 26 26 26 25 25 24 24 23
34 36 37 41 47 44 39 33 33 37 37 43 32 34 40 26 23 23 22 21 20 23 26 26 22 15 14 12 10 10 12 16 18 20 25 27 30 33 34 37 38 38 35 34 33 33 34 33 33
34 35 38 38 41 42 38 29 22 26 29 27 26 27 30 26 21 22 22 23 24 27 28 25 22 15 19 22 25 21 22 22 26 30 34 36 36 37 36 39 38 37 35 36 37 35 34 35 36
28 29 31 32 34 34 27 17 15 21 22 26 29 26 28 23 21 20 21 23 28 31 28 25 25 18 24 25 31 33 37 36 34 37 38 40 40 42 42 41 41 39 39 39 37 36 34 34 34
25 25 25 28 26 22 17 11 15 17 16 18 20 26 26 21 21 22 22 24 29 31 31 30 30 25 30 32 35 38 38 43 41 46 46 41 44 45 44 43 41 41 41 41 41 40 38 37 36
25 24 22 22 21 18 9 10 13 15 17 18 19 21 23 19 23 24 27 33 39 39 39 40 38 24 29 38 40 40 43 47 47 50 45 42 45 48 46 46 43 42 41 41 41 40 38 36 34
22 19 22 19 20 10 9 9 12 15 17 19 20 25 25 26 27 29 34 41 46 45 42 39 35 30 31 36 38 42 48 49 49 49 47 45 48 50 50 45 44 43 44 44 43 42 38 36 35
16 13 8 5 7 8 10 11 12 13 14 19 21 23 28 32 35 39 39 45 56 47 45 46 45 63 53 48 45 44 45 49 49 48 49 49 49 53 52 51 50 50 50 50 47 45 40 39 40
14 13 13 12 12 11 13 16 20 18 18 19 18 24 30 34 39 43 44 44 51 55 51 69 74 82 85 67 54 53 52 55 53 50 50 52 53 58 57 56 55 54 52 49 47 46 46 47 45
18 23 26 26 25 18 20 26 24 26 26 24 18 22 29 34 42 45 45 45 51 52 46 62 69 75 93 77 63 61 58 59 58 56 57 58 59 57 59 60 58 58 55 50 48 48 48 49 48
35 38 38 37 26 22 24 27 27 28 29 25 22 24 26 36 44 50 47 49 52 50 49 47 58 66 77 65 66 63 61 62 60 64 66 68 66 60 59 59 60 62 60 55 50 52 56 52 48
36 35 38 34 25 21 20 26 33 30 29 30 28 27 31 33 44 43 46 46 50 52 53 48 49 57 54 55 55 59 60 64 65 65 66 65 64 61 63 63 63 67 65 56 51 47 46 45 44
31 31 33 27 24 22 19 27 32 31 31 32 30 29 33 37 41 43 47 49 55 63 62 56 46 43 48 52 57 59 65 67 65 66 65 65 62 62 66 64 64 59 54 48 45 43 39 36 36
32 31 34 26 23 22 24 29 30 30 34 33 31 34 37 39 43 46 50 54 59 59 55 54 53 54 54 56 58 61 63 60 60 60 63 64 65 65 63 63 58 54 48 46 44 40 38 37 40
26 30 31 26 24 20 24 30 32 31 35 39 43 43 38 37 41 45 46 48 48 48 51 52 51 54 56 57 60 59 53 52 56 61 65 68 68 65 61 58 55 51 50 45 44 43 44 44 50
26 26 27 26 24 27 30 42 38 36 39 45 49 46 44 44 41 45 48 49 49 50 53 52 53 56 60 60 55 53 53 54 55 55 53 52 53 55 56 54 53 53 47 44 42 42 48 53 56
24 24 23 23 25 28 33 42 50 49 49 48 49 49 53 49 44 44 45 46 48 50 52 54 58 60 56 50 49 49 49 50 52 53 55 56 55 55 54 54 47 40 40 42 47 49 52 55 56
24 28 29 33 33 43 42 50 57 55 54 55 52 57 61 57 48 45 44 46 48 51 55 57 55 54 56 55 56 57 55 54 53 53 54 53 53 53 49 39 40 40 40 40 39 43 46 46 47
31 34 52 58 72 63 50 56 71 64 58 54 55 58 57 52 48 49 51 54 54 54 54 55 54 54 56 56 54 54 56 58 58 58 57 56 53 47 38 35 36 37 36 37 36 42 46 45 51
32 35 53 50 68 61 48 57 63 58 59 67 68 64 58 61 58 56 52 55 58 61 62 61 60 58 55 53 51 51 53 55 56 58 58 55 45 37 35 37 35 35 35 37 40 45 53 64 59
30 40 29 38 48 53 46 54 60 61 66 73 73 73 68 62 58 56 57 55 58 60 61 59 58 58 56 56 54 57 59 58 58 56 51 38 36 38 39 36 36 39 40 44 47 54 59 63 66
32 31 42 51 55 51 47 60 70 60 64 68 67 69 67 61 63 64 62 62 61 59 56 55 55 56 56 57 58 59 58 56 52 41 37 40 42 40 36 34 37 44 50 52 55 58 62 69 73
32 37 36 39 50 60 63 54 52 60 66 66 68 65 63 63 68 67 66 62 59 56 55 56 57 56 56 57 60 62 57 47 40 41 45 44 35 32 37 43 43 45 50 57 62 70 70 74 76
27 32 34 49 46 61 68 55 50 54 59 65 66 70 72 70 69 66 62 61 58 58 59 62 59 57 57 56 56 51 44 39 39 35 35 40 38 38 41 44 49 53 54 56 61 62 60 50 47

GFSSGP_prec_cthk_030.txt.gz
RH
14 21 20 17 18 33 40 48 51 55 62 58 59 62 65 65 64 71 72 67 65 56 48 42 40 40 39 38 38 34 31 28 26 25 22 19 17 18 19 20 21 21 21 22 22 24 27 27 24
32 17 24 28 33 41 52 53 61 66 65 60 60 59 61 71 66 72 69 65 56 52 44 39 39 39 36 31 25 21 20 20 19 17 15 14 14 15 17 18 19 16 14 13 14 15 16 16 16
9 27 16 19 23 37 53 56 57 55 59 59 62 61 59 63 56 53 62 63 56 53 39 40 36 33 25 18 18 18 17 16 15 15 13 12 13 14 15 12 10 10 12 13 13 12 11 11 12
19 19 24 26 34 39 47 47 49 60 59 54 52 53 55 46 39 39 46 47 44 38 35 30 29 23 17 17 16 14 13 13 12 11 11 13 14 12 11 11 13 15 15 15 14 14 13 11 8
25 16 41 50 50 52 58 56 52 56 59 55 50 54 46 48 46 38 41 42 34 29 26 23 18 17 17 13 10 7 8 10 10 11 13 13 13 13 14 17 19 20 20 20 19 19 18 18 19
33 41 43 45 56 58 54 56 52 51 51 52 51 48 39 32 27 31 30 24 20 19 18 17 17 16 14 9 6 6 7 9 11 12 14 14 15 16 17 19 21 23 25 26 26 26 26 26 26
20 39 40 37 52 59 54 56 54 52 48 49 48 42 35 29 28 30 21 17 17 17 18 18 18 16 10 7 6 8 10 11 12 13 16 19 23 24 25 28 29 31 31 30 30 30 30 31 31
33 36 38 44 53 49 54 50 49 47 48 42 32 32 30 25 25 26 22 16 17 20 22 23 17 13 11 10 10 12 13 16 18 22 27 26 28 30 31 31 31 32 32 32 31 30 30 31 32
38 40 39 39 47 50 47 45 42 44 44 29 30 27 26 22 21 21 21 22 24 25 26 24 19 15 18 22 22 24 24 26 27 30 32 33 34 35 34 35 35 36 37 35 34 33 34 34 33
34 33 35 40 42 42 42 37 35 35 33 31 31 28 24 19 19 19 21 22 21 23 23 21 20 17 21 25 29 31 33 32 35 35 35 35 38 39 39 39 38 39 38 36 35 34 34 34 34
30 27 29 36 37 37 33 27 19 17 20 19 20 22 23 21 20 21 19 18 25 30 32 30 27 22 23 28 35 37 37 40 39 39 40 37 40 41 42 42 41 40 38 36 37 38 37 35 34
25 24 24 27 29 28 22 14 9 12 14 16 18 21 23 21 20 19 20 28 34 34 33 36 34 29 27 35 39 44 41 42 43 43 43 38 41 44 45 45 45 45 43 42 41 42 41 39 37
25 25 24 23 23 21 16 8 11 12 16 20 23 24 23 25 25 26 27 31 40 40 40 44 43 43 41 37 43 46 48 48 47 48 49 46 44 46 48 48 48 48 48 47 45 43 42 40 39
21 21 18 20 21 12 9 11 12 15 17 24 24 22 23 29 32 31 32 34 39 43 44 56 71 62 67 56 58 60 53 54 55 55 53 52 49 48 51 51 51 50 49 48 48 47 44 40 40
18 10 7 11 14 10 11 14 17 20 25 26 25 23 25 30 34 34 35 39 43 43 46 53 62 73 70 67 65 66 66 59 59 61 57 55 55 55 58 58 56 54 52 51 53 53 51 46 43
16 18 27 29 24 15 21 25 26 27 26 28 26 24 27 37 41 45 44 46 48 51 53 58 64 61 68 58 56 61 61 63 63 62 62 62 62 63 61 58 57 57 58 56 55 59 58 52 42
30 27 29 30 28 25 24 28 28 23 25 28 29 27 31 35 40 42 45 45 48 54 57 67 75 74 70 64 55 57 60 65 65 68 70 73 72 66 63 60 58 58 60 58 57 56 49 42 37
35 33 29 32 28 28 30 26 24 23 28 27 28 30 32 34 42 48 52 56 56 62 70 77 83 75 73 61 59 64 69 69 68 70 71 70 65 65 66 66 66 65 61 58 54 48 43 39 35
35 32 32 33 28 28 28 29 29 30 33 36 38 40 40 39 44 49 53 57 71 75 76 82 79 77 66 66 68 67 70 71 73 72 67 64 65 67 69 70 66 60 59 54 48 43 40 37 34
39 38 38 32 30 28 28 28 35 36 38 38 38 39 38 44 47 49 54 64 65 68 70 66 65 67 64 65 65 68 70 71 71 65 65 67 69 69 65 62 60 59 55 50 46 44 40 38 35
38 39 37 35 32 30 28 33 34 36 39 42 44 45 52 53 52 54 56 55 56 56 53 53 54 56 57 59 62 64 63 60 58 60 61 61 60 58 57 56 55 54 52 49 43 36 34 37 40
29 28 34 32 27 25 24 41 41 42 44 45 43 46 49 57 53 53 50 48 46 47 48 48 51 54 56 55 56 54 49 51 53 54 54 53 53 53 53 53 52 48 39 34 34 35 39 40 44
24 23 24 25 26 25 33 43 47 48 47 47 48 58 60 58 58 56 52 48 45 44 44 45 46 47 47 48 48 49 51 50 47 48 48 49 51 51 50 48 37 32 32 34 35 37 37 37 42
24 24 28 32 35 41 38 46 50 52 51 57 60 66 63 62 60 53 46 43 44 45 44 47 50 51 52 53 52 48 46 47 50 54 57 55 53 53 48 36 31 28 28 29 32 35 37 38 41
28 34 50 55 63 65 53 57 60 57 61 64 68 63 62 63 59 54 57 52 51 49 51 53 55 55 55 51 49 48 49 52 55 58 59 58 54 44 36 30 28 30 30 32 35 37 39 41 46
31 36 48 47 61 58 49 61 64 63 60 67 60 65 67 69 68 66 62 58 59 61 60 60 56 50 49 49 49 49 51 55 58 57 54 50 42 36 35 36 36 33 31 33 36 41 44 48 52
31 37 30 43 50 52 50 52 56 59 66 73 79 79 79 74 69 64 63 70 70 71 66 62 57 54 53 54 55 54 57 59 61 52 40 36 35 38 34 26 29 29 30 35 38 42 46 48 53
28 28 38 43 46 50 51 57 64 64 66 67 67 67 69 69 65 65 71 75 74 67 64 62 59 57 56 58 60 59 58 55 51 44 36 33 33 34 30 30 30 32 35 38 40 42 47 50 54
29 31 32 37 46 52 60 54 50 55 57 59 59 63 67 69 74 77 79 74 73 67 64 60 58 56 60 60 56 52 48 42 37 41 40 33 38 41 40 42 43 39 46 46 46 43 45 52 50
26 29 32 43 39 54 57 55 52 55 57 57 60 65 70 76 79 78 73 74 69 65 62 59 57 54 53 51 48 43 43 44 39 39 40 41 51 65 65 67 66 66 64 65 61 56 47 44 45

GFSSGP_prec_cthk_033.txt.gz
RH
24 46 45 26 34 26 28 39 51 54 58 62 65 70 73 74 72 74 74 71 63 58 56 52 47 40 40 38 37 33 31 27 24 22 18 15 15 14 15 17 18 18 17 14 13 15 16 16 17
17 19 28 37 23 30 42 44 54 62 62 65 68 74 77 81 77 79 76 66 62 59 55 47 41 41 39 36 28 23 21 19 18 16 15 13 12 13 15 14 12 10 10 11 12 12 12 12 12
27 27 33 33 27 35 49 53 64 63 69 67 70 71 70 75 73 69 65 61 61 60 54 43 38 35 30 24 18 18 17 15 15 14 12 11 12 13 10 10 11 13 14 14 14 13 13 12 10
28 30 19 32 32 35 52 54 59 64 65 67 68 76 71 72 63 60 56 49 49 49 42 37 30 27 21 17 17 14 12 11 11 10 10 11 12 11 14 16 18 18 18 18 18 17 18 18 18
16 25 37 37 43 45 46 58 58 59 59 64 68 69 69 68 60 53 46 42 42 40 33 29 25 18 16 14 11 7 7 8 9 9 11 14 15 16 18 20 21 23 24 25 24 25 25 25 25
26 32 41 57 54 53 59 62 62 59 60 61 67 61 60 51 49 44 41 39 34 29 25 19 17 16 15 11 6 6 8 9 11 14 15 17 21 23 25 25 25 27 28 28 28 28 29 29 29
34 34 42 54 61 56 57 69 64 62 62 62 55 53 52 44 38 30 27 21 20 18 17 18 18 15 11 7 7 9 10 12 14 17 21 25 26 29 30 32 31 31 32 32 31 30 29 29 30
34 39 39 38 61 59 61 66 66 60 57 50 44 34 41 32 29 20 17 16 16 18 21 20 16 11 9 8 10 12 14 17 20 26 29 30 32 33 32 32 32 32 33 32 32 31 31 30 31
36 41 45 47 51 51 61 63 56 51 48 44 40 27 25 24 22 18 16 16 20 22 24 22 15 14 15 15 18 20 22 25 27 30 32 33 34 35 38 38 38 39 38 38 36 34 34 33 32
38 41 42 43 50 50 46 49 46 42 37 34 28 25 22 20 20 17 15 17 22 23 21 20 15 16 21 25 26 29 31 31 33 33 32 33 36 38 40 40 40 41 42 44 43 42 41 41 41
33 35 41 44 44 43 43 43 35 28 26 23 22 21 18 18 19 19 18 19 24 28 31 30 27 22 25 27 31 31 33 37 39 37 37 36 40 41 41 42 42 44 43 44 45 46 46 45 43
30 32 32 39 41 38 35 30 24 15 17 16 16 16 17 18 17 19 18 24 33 38 38 38 33 27 29 32 35 36 42 47 50 49 46 44 43 45 45 46 44 46 47 47 49 49 48 46 43
27 28 26 26 26 27 26 19 10 14 16 21 22 21 22 26 24 24 26 32 40 43 41 42 39 41 46 48 48 49 52 57 55 53 49 50 47 44 47 49 48 48 48 47 47 48 48 48 48
24 24 24 22 23 22 16 10 11 15 23 27 26 24 28 29 31 35 36 36 38 41 43 46 48 53 59 55 56 53 50 50 53 55 54 53 52 52 54 55 54 51 51 51 48 48 49 49 49
22 20 20 17 16 11 10 12 17 18 25 26 27 26 32 37 41 42 41 42 44 45 48 48 50 56 61 60 65 60 55 53 56 57 59 59 59 60 59 59 57 58 58 55 52 53 54 53 51
24 17 24 18 15 13 13 17 20 26 29 28 29 32 36 39 41 41 42 43 46 48 50 60 65 71 76 78 75 66 57 58 61 64 64 64 64 64 60 61 59 58 59 58 56 52 49 46 43
22 28 27 28 27 23 21 24 26 26 29 31 33 34 37 38 39 43 44 49 55 54 61 72 86 87 89 88 81 67 61 62 63 64 66 67 69 65 65 64 60 60 58 57 55 53 48 44 41
23 25 27 31 29 26 25 25 25 23 27 32 35 36 38 39 39 40 45 52 54 62 70 79 83 86 88 79 72 66 68 65 64 67 70 72 69 68 68 65 63 63 62 59 56 51 47 44 37
33 26 32 31 30 29 30 29 28 27 30 35 40 40 41 45 48 52 50 55 59 68 81 83 83 81 76 75 76 72 70 68 70 71 71 69 69 70 68 65 62 61 57 54 51 49 44 40 36
36 36 30 32 36 34 35 32 33 34 36 38 40 45 47 49 59 62 59 64 73 78 69 67 67 69 70 67 63 64 64 66 69 71 67 66 65 61 59 57 57 56 54 51 48 44 38 34 33
42 40 37 36 36 34 32 35 38 40 43 45 50 52 58 61 62 63 63 66 65 61 57 57 56 54 54 55 58 63 63 61 59 57 57 55 54 52 51 51 53 53 51 41 34 33 34 34 31
41 39 36 37 38 40 37 46 41 43 48 52 53 53 57 62 65 68 63 60 59 58 54 53 52 51 52 54 54 55 55 57 58 57 54 54 54 56 56 56 54 47 37 32 31 31 30 29 32
26 28 29 32 34 34 37 44 39 44 48 52 55 57 60 66 70 66 66 62 58 55 51 49 50 51 52 50 50 52 56 57 54 53 55 56 56 54 51 47 40 33 31 31 30 28 29 32 35
26 28 32 35 35 41 36 39 42 45 47 52 56 60 66 66 74 69 66 60 57 57 58 57 55 54 54 54 56 53 50 52 53 56 57 56 51 45 40 34 31 30 30 29 28 28 30 33 33
27 33 46 51 55 53 44 50 47 44 50 58 63 61 68 71 65 67 69 64 68 69 67 63 62 60 59 56 52 51 51 54 56 57 56 49 42 35 30 30 32 29 25 24 25 27 32 34 35
30 33 46 47 58 54 49 58 54 52 53 55 58 59 61 68 73 76 78 74 71 68 67 65 63 58 56 55 52 52 53 54 54 48 43 34 31 32 35 39 37 31 31 29 30 33 32 35 42
32 35 30 44 48 50 48 46 48 50 53 56 58 59 73 78 74 65 61 64 68 69 67 65 61 59 57 53 52 53 51 48 44 44 38 34 34 35 37 40 41 42 41 40 44 47 48 49 49
28 29 37 41 44 45 45 49 52 50 52 56 62 65 62 59 59 59 65 71 73 72 68 66 64 61 57 56 52 47 42 38 36 38 40 41 42 43 44 50 51 54 61 64 66 71 66 64 60
30 29 31 36 44 50 54 46 38 45 48 53 54 55 57 59 65 71 76 75 75 72 71 69 63 60 57 52 48 42 37 35 35 41 45 47 52 59 55 60 64 64 80 88 88 80 73 68 62
27 28 29 37 33 50 51 42 37 41 48 51 54 58 61 64 69 72 75 78 78 74 70 65 65 60 56 51 42 41 40 41 45 49 51 57 53 59 58 54 69 70 82 91 85 81 69 63 59

GFSSGP_prec_cthk_036.txt.gz
RH
23 33 36 29 37 36 35 48 54 61 64 65 66 73 82 79 83 79 75 75 75 66 54 54 54 50 39 39 38 36 35 31 27 22 17 15 13 12 14 15 15 13 11 11 12 13 13 13 13
19 31 37 39 36 39 32 42 58 62 67 70 78 82 84 89 89 83 82 86 73 65 58 55 50 42 37 38 33 27 23 20 17 16 14 11 11 13 11 10 11 13 14 14 14 14 13 12 12
26 24 26 34 41 35 41 47 60 70 69 69 72 75 80 84 84 78 79 74 68 66 63 51 47 39 35 28 20 18 16 15 15 13 10 10 11 10 12 15 16 16 16 17 17 17 17 17 17
29 30 30 36 37 37 46 66 68 71 70 70 69 70 69 78 77 76 66 63 61 59 52 45 40 31 24 17 16 14 9 10 9 8 9 11 12 15 17 19 20 22 21 21 22 22 23 23 23
29 33 34 30 38 39 45 66 72 63 73 70 65 69 70 72 70 68 62 58 55 49 45 38 28 24 16 16 12 7 7 8 8 11 13 15 18 19 21 23 23 23 25 26 27 27 28 27 27
29 22 33 46 46 43 49 66 73 70 74 67 65 65 66 57 60 55 56 56 50 45 33 28 23 16 16 12 6 7 9 11 14 17 18 20 24 25 27 28 29 29 30 30 29 29 28 28 30
24 23 39 54 53 51 56 72 78 77 67 62 62 60 55 47 49 48 47 44 36 29 26 19 17 16 12 7 7 9 11 15 18 21 25 27 29 31 31 30 30 32 33 33 33 31 30 29 29
30 33 40 54 62 65 62 68 74 58 61 55 52 55 49 44 40 36 35 26 23 18 19 20 17 11 8 8 10 13 16 19 23 27 30 31 31 32 33 33 34 35 35 37 38 38 38 35 33
39 41 46 41 68 64 63 68 63 62 57 50 48 40 32 32 26 23 21 19 18 20 21 18 13 10 10 12 15 18 21 26 30 32 32 34 34 35 36 36 37 38 37 39 41 43 42 42 41
41 44 40 44 46 51 57 56 61 60 46 41 38 35 29 23 18 16 16 16 19 22 21 15 14 14 16 20 21 24 28 32 34 37 40 39 41 41 43 43 43 42 40 41 43 44 44 45 45
37 40 39 45 55 54 52 54 54 40 31 23 24 27 23 18 15 14 14 21 23 27 26 23 17 19 24 25 28 31 34 39 44 51 52 48 45 43 46 45 44 46 45 44 45 46 45 46 46
38 38 45 45 50 48 46 41 36 22 17 17 19 15 17 17 17 16 15 22 29 34 33 31 24 24 30 34 36 40 46 51 50 54 54 55 51 46 46 46 48 50 50 47 46 47 47 46 46
34 30 33 42 43 41 36 29 20 18 21 21 21 23 24 22 21 21 20 29 38 40 41 43 40 41 47 48 49 53 58 58 53 52 53 53 52 51 50 51 53 55 52 50 49 52 51 50 49
32 30 29 28 29 27 26 22 14 20 26 26 26 28 30 31 30 31 33 37 42 42 46 50 52 53 53 57 65 65 64 60 58 56 56 57 57 56 57 56 58 58 57 56 55 55 55 54 51
27 27 28 23 23 23 22 14 15 22 28 27 29 31 35 35 35 36 37 40 45 49 53 57 55 57 60 67 70 77 76 72 63 60 61 60 58 58 59 60 62 62 61 59 58 56 51 48 48
23 19 23 20 17 14 12 14 18 27 29 32 33 36 37 39 39 40 40 40 44 51 54 62 71 77 82 87 88 83 85 77 67 68 65 61 64 64 65 65 66 65 62 59 54 54 52 51 47
26 27 23 20 18 16 15 22 26 35 38 34 34 36 39 41 42 44 46 46 51 54 59 64 78 89 93 96 86 89 83 75 72 69 66 67 69 68 68 68 68 65 59 55 54 54 49 47 45
25 31 28 27 25 26 24 27 29 30 34 34 38 42 42 42 44 49 53 53 55 58 62 73 87 97 91 95 91 82 80 72 69 69 70 70 70 70 67 64 60 56 54 52 49 47 45 43 39
22 29 28 28 27 30 35 36 36 35 39 42 42 44 47 47 49 52 58 60 64 75 81 89 93 90 87 87 81 75 74 66 65 63 63 62 60 60 58 54 51 50 48 46 46 43 37 32 28
29 30 33 33 32 33 40 39 36 34 39 41 41 45 48 52 56 59 62 70 76 83 82 73 71 69 69 68 64 61 59 58 56 55 53 52 52 50 48 48 48 48 47 45 40 34 30 28 27
40 37 36 35 36 37 37 41 42 38 36 38 41 45 49 53 58 63 64 70 69 68 65 62 59 56 53 50 48 48 47 49 52 54 54 52 50 51 52 52 50 46 38 32 27 25 24 24 24
42 38 35 35 34 40 38 44 42 42 43 45 48 52 54 56 58 59 61 62 61 61 59 57 54 53 51 53 54 52 54 55 55 57 56 56 58 55 49 41 34 29 27 26 24 25 24 24 25
30 32 33 33 35 36 38 42 39 46 50 50 52 54 55 57 58 60 66 64 63 58 57 57 59 61 64 61 57 58 59 58 57 56 56 57 53 46 38 30 28 27 25 23 22 22 23 25 27
27 29 34 39 40 46 36 35 37 41 40 48 51 55 58 61 60 67 70 65 66 70 71 70 72 69 65 67 65 63 60 54 55 54 52 48 41 33 29 27 27 26 26 26 25 25 28 30 34
29 33 44 48 51 49 41 44 41 41 44 50 55 58 59 60 62 62 67 74 75 80 82 77 75 73 72 71 66 60 58 57 54 51 47 40 36 33 32 32 34 35 35 33 33 35 39 37 41
32 33 49 47 57 52 47 51 45 46 46 51 54 56 57 59 66 76 78 83 79 72 72 75 76 74 70 66 59 59 57 51 48 44 37 34 34 34 36 38 41 43 45 43 44 47 51 50 60
34 37 35 47 49 50 46 43 41 40 41 45 50 54 57 60 66 72 68 67 69 70 73 75 74 69 67 62 61 54 51 49 45 40 36 36 38 41 43 43 47 49 48 53 55 64 65 68 67
32 34 39 42 40 40 40 43 44 41 43 45 49 52 55 60 60 59 62 66 70 71 71 74 71 68 63 64 59 54 49 44 41 40 42 43 44 43 41 43 43 43 49 63 67 74 73 73 79
33 32 33 36 42 46 49 40 33 37 40 43 47 50 53 55 56 57 59 61 65 70 73 73 68 69 72 65 58 50 44 43 44 44 46 46 42 40 38 39 40 42 50 53 64 73 82 86 82
29 30 29 34 30 47 47 37 30 35 37 41 46 50 52 53 54 58 62 65 70 73 71 68 76 77 66 61 55 48 47 46 45 45 41 37 37 34 33 34 39 42 43 61 76 83 86 87 80

GFSSGP_prec_cthk_039.txt.gz
RH
15 15 19 24 30 35 39 46 59 70 71 71 68 68 69 71 74 80 83 78 73 70 68 61 64 59 49 41 38 38 38 35 29 24 19 16 13 14 13 12 12 12 14 15 15 14 13 13 13
18 19 27 30 29 30 33 47 65 72 76 81 76 78 75 82 85 87 83 78 75 68 61 62 63 55 44 41 40 34 28 23 19 17 15 12 11 9 12 15 16 16 16 16 16 16 16 16 17
17 21 26 32 32 31 37 54 65 78 80 81 85 80 83 85 86 88 84 81 75 64 61 58 55 47 43 42 28 21 19 15 15 13 10 10 10 14 17 18 19 19 19 20 20 20 20 21 21
28 25 29 31 34 36 41 60 63 73 81 77 75 78 77 79 84 86 88 81 73 60 58 52 50 45 36 25 19 15 10 11 9 9 11 12 16 19 20 21 22 22 23 23 23 24 25 25 27
38 30 31 32 36 38 43 69 69 75 75 77 71 72 76 75 80 80 83 72 67 58 54 51 43 31 23 17 14 8 7 8 10 14 16 18 20 23 23 24 25 25 26 26 25 25 26 26 26
40 32 32 43 44 45 57 73 62 67 74 70 73 67 67 68 67 74 74 71 63 55 51 38 29 23 17 14 8 7 9 12 17 19 21 23 25 27 28 28 28 29 29 30 30 30 31 30 28
42 35 36 48 54 49 56 72 74 69 70 67 66 68 59 60 57 55 61 58 55 48 34 28 22 17 15 10 8 10 13 18 21 24 27 28 30 29 30 30 30 31 32 32 33 33 33 33 32
42 30 41 56 57 56 60 66 64 60 64 67 62 58 51 46 45 43 45 47 40 29 24 19 18 15 11 9 11 15 19 22 27 30 31 32 33 34 33 35 35 36 37 36 35 37 37 36 36
39 27 36 56 64 75 66 70 60 70 68 66 59 53 35 35 37 37 37 31 26 20 20 19 16 11 9 12 15 19 23 29 32 33 37 38 42 43 41 42 41 41 41 41 41 40 40 40 41
41 37 38 46 54 69 64 56 55 62 66 56 48 41 34 31 29 30 23 19 17 19 21 18 14 12 13 17 21 24 30 35 37 40 44 49 51 50 49 48 44 44 44 44 43 42 42 42 43
40 41 42 45 58 68 60 50 47 54 40 25 31 36 27 23 21 17 16 17 20 23 21 16 17 18 24 27 30 36 38 41 46 51 51 49 49 49 50 51 50 49 48 47 45 45 44 44 44
39 44 44 49 60 60 56 42 38 33 23 20 19 22 20 19 16 15 19 20 28 33 34 25 25 28 33 38 43 46 49 55 61 59 57 55 53 51 50 50 51 53 52 49 47 48 49 48 47
40 40 47 53 54 55 45 35 33 29 26 21 23 22 19 17 18 19 23 29 41 45 48 36 34 38 42 45 47 50 58 63 65 67 65 62 58 56 54 54 56 57 56 54 51 53 54 53 51
35 34 39 42 45 44 36 32 28 31 30 29 27 27 27 25 25 26 30 41 51 52 55 55 50 51 54 55 57 64 72 76 74 75 75 76 73 67 65 62 61 62 61 58 58 57 57 55 52
31 31 31 31 33 31 29 23 22 31 33 31 34 34 34 34 34 35 35 43 53 58 58 60 62 66 63 71 73 80 82 80 76 76 76 75 73 69 68 65 66 67 64 61 62 59 54 47 45
30 29 27 26 24 25 22 18 21 35 35 33 35 38 37 38 39 41 42 47 51 59 61 66 72 78 84 83 89 84 81 84 85 79 73 69 67 68 70 69 67 63 62 63 57 52 50 48 45
23 24 24 22 20 19 17 21 27 38 39 35 36 37 40 42 44 48 51 54 58 61 63 67 74 82 90 90 90 84 84 87 80 76 68 69 69 69 68 63 63 62 57 53 52 51 47 43 39
24 29 28 25 22 22 23 35 35 42 43 40 39 40 43 44 47 50 52 56 59 62 64 72 81 91 93 94 83 83 77 70 72 72 70 67 64 61 58 58 57 53 51 48 45 41 36 31 26
24 34 32 30 30 34 38 37 35 38 38 40 41 41 45 48 50 52 55 56 59 65 73 83 87 91 86 75 71 65 62 66 65 61 55 53 52 53 53 49 49 47 45 40 34 29 25 23 21
31 37 33 35 34 32 37 37 37 34 36 41 41 44 47 50 54 56 59 60 68 72 78 79 75 62 55 53 52 54 56 53 52 50 52 53 54 53 54 52 48 43 36 30 26 23 20 19 18
36 33 37 38 40 38 35 35 37 38 36 38 43 45 48 52 54 56 61 61 60 62 62 60 56 54 49 51 55 60 63 63 60 59 61 63 61 57 54 49 40 32 27 24 21 19 18 20 20
39 37 32 29 31 33 33 29 34 39 41 40 41 42 46 53 59 60 59 58 62 65 61 59 57 57 60 65 70 71 69 66 63 61 62 61 58 53 47 39 31 28 27 27 27 25 23 22 27
39 41 40 37 36 33 33 33 35 43 42 41 43 48 54 60 60 57 60 60 61 65 64 68 70 70 75 79 78 76 68 66 68 66 61 55 51 46 41 35 32 31 32 32 31 31 29 32 37
37 33 34 35 35 38 34 33 30 38 35 44 48 54 58 58 57 61 64 62 62 68 76 78 80 79 77 74 73 71 69 68 64 59 53 48 42 38 34 33 34 35 35 36 38 40 38 38 39
30 29 35 36 40 36 36 39 32 34 40 45 50 55 55 57 61 61 60 66 75 77 74 76 75 74 71 72 73 71 67 64 57 51 45 42 40 37 36 36 36 36 38 39 39 38 39 53 51
32 32 38 40 46 43 42 42 35 39 39 44 50 51 52 54 55 59 62 65 67 65 63 67 70 72 75 73 69 68 66 61 55 48 45 44 42 40 39 40 37 37 37 36 35 40 49 52 53
34 33 33 44 50 44 35 36 34 35 34 38 43 46 50 52 55 60 62 60 59 61 64 65 68 72 75 70 71 72 66 57 54 53 48 44 43 43 43 39 35 29 32 35 39 52 49 54 63
31 34 38 38 39 35 30 32 27 31 33 35 40 43 46 51 55 59 59 57 58 61 64 67 70 70 69 75 77 69 60 58 54 52 49 45 41 37 34 31 29 29 34 41 52 47 52 63 68
33 36 34 33 36 32 34 24 27 28 31 33 37 41 46 50 52 51 54 56 61 63 65 68 65 67 75 77 72 65 62 57 55 49 41 36 32 30 29 29 29 33 41 50 48 48 61 68 66
33 32 30 30 28 39 37 26 24 26 29 33 37 41 45 48 50 53 55 58 63 65 67 68 70 76 79 74 67 65 61 56 46 37 33 32 31 31 31 30 32 39 50 52 43 59 67 66 70

GFSSGP_prec_cthk_042.txt.gz
RH
20 13 13 18 25 28 35 38 51 64 72 72 64 67 72 72 67 71 73 81 81 80 73 71 63 60 54 48 43 42 41 37 30 25 20 15 13 12 14 15 15 15 15 15 14 14 14 14 14
24 17 17 24 25 28 31 30 50 60 70 74 73 77 78 74 75 76 84 87 82 77 79 62 61 57 54 46 45 41 35 28 22 18 15 12 11 12 15 16 17 17 17 17 17 18 18 18 18
25 21 25 29 31 34 33 43 58 65 74 81 84 86 83 85 89 87 87 84 79 83 69 60 60 58 53 48 40 33 26 18 17 15 12 10 13 16 19 20 19 19 20 21 21 22 22 22 22
30 23 20 26 29 31 38 56 62 66 70 80 89 85 85 85 88 89 91 89 85 81 70 61 58 55 53 41 29 23 15 15 11 11 11 14 18 21 22 22 23 24 24 24 24 25 25 24 24
32 35 28 28 34 37 47 63 63 63 73 75 76 76 83 84 84 82 89 91 88 81 70 60 58 53 37 25 21 14 12 10 12 15 17 20 23 24 24 25 26 27 27 26 27 28 27 26 26
34 36 32 30 41 46 62 63 72 70 65 67 75 73 70 75 77 82 93 96 81 71 66 62 52 36 25 22 14 10 11 14 18 20 23 25 26 28 29 30 30 29 29 30 30 29 28 28 28
36 36 36 42 49 54 64 68 75 73 72 70 67 71 66 64 73 88 90 82 77 70 63 51 39 26 22 16 11 12 15 20 22 26 28 30 30 31 32 37 37 35 36 37 38 36 35 34 34
38 41 50 53 54 62 65 60 70 72 69 63 64 66 65 67 72 70 75 73 68 64 50 42 33 28 19 12 11 15 20 23 28 30 32 34 35 36 40 45 43 41 43 41 40 39 37 36 37
38 39 47 61 61 65 64 61 65 69 64 66 62 63 53 49 47 57 64 66 60 44 33 30 30 23 19 18 15 20 25 30 33 35 38 41 44 47 49 47 45 44 45 44 44 43 41 39 39
40 38 41 58 69 64 68 63 59 63 61 66 58 52 39 41 47 55 55 54 40 29 30 27 20 15 14 20 20 25 30 36 41 43 47 53 52 54 54 48 46 45 47 49 48 47 43 42 45
42 40 42 41 60 61 56 60 54 44 46 47 42 47 35 42 45 48 39 27 27 30 28 22 16 15 17 21 26 32 40 42 44 49 57 55 54 55 56 55 52 48 48 51 51 50 48 45 47
41 40 41 46 61 61 66 51 43 40 32 28 35 39 32 33 35 24 26 28 29 29 25 19 19 22 24 30 36 38 44 49 58 65 64 63 68 69 66 63 57 58 58 55 56 54 50 49 48
39 45 49 55 59 59 56 54 35 28 23 21 27 33 31 29 25 25 25 30 37 40 34 29 30 32 36 39 43 48 52 62 64 66 71 76 80 83 77 74 71 69 66 63 61 56 55 54 53
41 45 57 53 49 52 52 38 38 32 30 27 29 31 27 25 25 27 30 40 50 53 50 40 37 38 43 49 52 54 60 70 74 79 82 89 88 85 82 75 70 67 66 64 60 58 58 58 54
42 40 45 47 48 42 38 32 31 34 38 39 35 32 29 28 30 34 39 46 52 58 62 64 57 59 67 68 66 68 72 79 85 83 83 83 83 80 75 74 72 70 66 61 60 60 58 54 52
34 33 38 41 39 33 28 24 29 34 40 40 41 41 39 39 38 39 41 46 53 62 69 68 74 79 80 82 82 84 81 80 81 83 84 82 76 72 72 71 68 64 61 59 58 55 53 49 45
31 33 31 31 30 26 22 21 25 35 37 44 46 45 44 48 47 49 51 54 58 64 70 67 74 77 84 91 89 93 84 82 76 75 73 69 69 68 66 60 59 59 57 55 50 46 42 37 35
29 26 24 23 22 21 20 25 27 35 40 47 48 47 46 46 48 51 53 57 60 63 66 71 73 80 84 97 90 82 74 71 68 69 64 58 53 52 52 54 54 49 47 45 39 37 35 31 31
27 33 30 27 25 26 26 32 35 41 44 43 39 41 44 48 49 49 51 55 58 62 66 73 79 81 82 87 73 64 56 59 57 54 51 51 51 51 55 57 54 52 50 43 35 30 26 27 30
28 32 40 39 32 32 34 34 33 34 37 39 41 42 44 48 51 54 56 60 61 64 70 72 75 67 60 58 53 55 57 62 64 65 62 60 60 62 63 60 58 52 43 36 31 29 28 29 31
36 35 40 35 39 38 36 35 36 35 37 36 38 42 44 50 52 54 56 59 63 65 66 66 66 57 54 59 60 63 70 74 73 72 70 67 68 65 59 54 45 35 33 33 32 32 33 35 34
38 35 30 29 34 38 34 34 35 36 36 36 40 43 46 48 50 53 55 60 60 63 58 59 62 63 64 68 72 76 80 79 73 70 71 71 66 59 51 41 35 34 36 36 39 38 39 39 43
42 41 41 38 36 33 31 29 38 34 34 36 37 42 44 46 50 55 59 60 60 56 57 60 65 69 70 72 76 78 76 72 70 73 73 67 60 50 42 41 39 38 40 42 43 43 47 47 48
42 40 35 37 37 34 29 26 24 31 29 33 38 45 45 51 54 55 56 59 56 53 60 71 71 67 68 68 68 71 73 73 74 74 70 65 55 52 50 48 44 45 47 49 47 47 52 53 54
40 36 32 33 34 31 31 28 23 27 30 36 41 46 50 52 53 55 59 56 56 62 65 66 67 65 68 69 69 70 72 72 77 74 63 56 54 54 55 51 50 48 44 40 41 52 54 54 62
32 30 30 28 32 31 33 30 32 31 32 36 44 48 49 49 52 56 56 59 63 63 66 64 67 69 67 67 67 64 70 75 74 63 58 57 59 58 50 49 48 43 41 45 46 50 59 66 62
32 30 31 34 40 38 27 26 28 29 30 32 39 44 47 48 53 55 59 62 63 61 61 63 65 67 65 66 64 68 71 72 65 60 58 58 57 53 49 43 39 38 40 42 46 52 65 63 52
31 31 32 33 36 27 21 22 21 24 27 30 35 39 43 46 51 55 60 62 59 58 61 64 67 67 66 66 65 71 76 66 60 56 59 55 46 41 39 39 39 39 40 42 44 48 50 48 49
33 32 31 31 30 25 22 18 20 22 23 27 32 36 40 45 48 53 59 57 57 60 65 68 67 64 68 67 74 77 67 60 58 57 49 43 41 39 39 39 37 39 41 42 38 47 46 44 57
29 31 30 27 26 32 31 19 17 19 21 25 29 35 38 43 46 52 54 56 60 63 66 66 65 70 76 76 76 66 59 57 53 49 46 44 43 40 39 37 36 41 41 37 38 40 44 51 55

GFSSGP_prec_cthk_045.txt.gz
RH
22 15 13 15 20 20 22 30 34 58 66 67 62 61 67 65 70 82 83 83 74 77 71 68 64 63 53 49 43 38 40 41 37 30 24 17 14 14 15 14 14 15 16 15 16 16 16 16 15
27 22 15 21 22 28 25 27 35 61 85 66 66 71 72 75 76 81 84 89 81 84 75 75 69 58 51 50 44 41 42 36 28 21 16 12 12 14 15 17 18 17 18 20 21 21 20 20 20
28 26 24 25 26 27 26 42 57 62 58 59 62 65 72 83 86 86 83 90 89 83 78 78 64 56 52 52 43 41 38 25 20 17 12 11 14 17 19 19 19 21 23 23 23 23 23 23 23
28 28 28 30 35 31 32 62 67 59 55 56 64 71 82 90 90 91 95 95 94 94 89 72 62 57 56 49 39 35 23 18 15 12 12 14 18 20 21 22 24 26 26 26 26 26 26 25 23
28 34 31 26 27 29 37 53 60 62 60 63 70 83 87 84 84 85 90 92 93 93 86 70 63 60 60 45 34 24 16 13 14 16 17 20 23 23 25 27 28 29 30 30 29 29 27 26 25
30 34 36 28 26 36 47 58 56 75 62 58 64 71 72 77 78 86 87 90 92 90 85 75 68 63 42 32 25 16 15 15 19 19 23 25 26 28 29 30 32 33 37 37 36 36 33 31 30
28 35 35 32 32 48 50 79 74 71 75 67 68 79 77 70 72 86 93 91 95 90 82 76 67 47 31 24 16 13 15 20 22 25 28 30 31 31 33 35 35 38 40 41 43 41 38 35 35
27 34 36 35 37 49 59 58 64 62 69 73 74 71 63 76 77 90 95 90 85 90 87 70 50 41 25 17 13 13 18 22 26 31 34 34 33 35 39 40 42 41 41 43 43 44 43 41 38
27 35 37 40 48 70 73 65 58 57 61 68 65 69 55 62 71 80 93 94 88 89 70 58 48 39 28 17 13 15 21 27 32 35 36 41 46 49 53 46 46 42 43 43 44 45 44 43 45
33 35 37 52 80 73 70 71 60 56 62 71 72 69 53 48 59 74 88 88 87 65 52 45 39 37 31 26 15 23 26 35 42 45 43 57 57 61 59 49 48 47 46 46 48 48 50 52 53
39 39 43 50 72 58 44 49 56 64 66 54 59 72 42 51 69 77 77 71 55 45 38 33 29 24 22 22 29 33 37 44 50 50 58 61 59 62 64 71 71 67 61 67 62 62 61 52 49
40 40 37 41 60 52 48 60 54 61 50 52 56 52 43 54 59 61 53 41 36 33 33 27 25 22 22 22 32 39 49 51 57 57 63 68 68 74 77 84 84 75 76 69 67 65 57 54 51
37 45 40 50 54 50 53 73 61 27 22 29 44 40 48 53 54 38 32 34 37 37 31 25 23 22 26 34 40 47 53 56 62 74 79 76 78 81 82 81 81 78 74 73 69 65 60 56 55
41 46 51 58 61 53 52 68 44 30 27 33 33 43 46 45 33 30 32 37 40 40 35 31 33 35 38 42 49 53 57 63 71 78 81 86 84 84 84 87 81 78 73 71 68 61 59 57 57
44 49 56 57 59 54 60 51 48 33 32 34 37 39 35 31 31 31 34 43 48 50 49 44 45 46 53 60 64 67 67 70 81 83 77 80 87 87 86 81 74 72 69 64 61 60 57 54 51
47 40 50 49 46 40 57 44 30 36 38 41 40 37 35 33 35 37 41 47 56 60 62 64 65 69 70 72 76 76 77 78 81 83 81 82 86 86 80 73 69 63 58 57 56 52 47 43 39
37 39 42 41 36 32 46 38 26 36 45 48 45 44 42 41 39 44 48 52 57 64 66 68 72 74 76 82 86 83 84 83 82 84 80 81 75 68 63 54 49 52 52 52 50 45 42 38 34
34 36 36 37 32 35 31 33 23 31 41 55 53 48 47 47 50 53 55 56 58 62 67 69 71 72 79 83 84 80 75 74 71 69 66 67 63 55 54 55 55 56 56 53 48 42 36 34 32
38 29 29 28 25 28 29 31 27 32 39 51 51 47 47 51 51 53 55 57 60 66 68 71 70 68 78 76 65 64 71 67 60 61 61 61 59 60 59 61 60 57 51 46 45 42 38 36 34
33 40 32 32 26 28 29 37 33 36 38 42 45 45 48 52 52 55 57 59 63 62 65 66 69 74 73 69 66 66 62 64 69 71 69 68 65 65 67 66 61 56 51 47 44 39 40 39 37
36 37 51 40 30 31 39 40 28 29 36 40 43 47 50 49 52 54 56 60 61 62 66 73 74 67 65 60 61 62 65 66 68 69 68 67 67 66 62 60 57 51 43 42 43 45 47 47 46
44 31 34 33 27 37 32 36 47 40 31 37 41 44 45 49 54 54 56 57 61 67 69 71 63 57 57 59 63 66 67 68 68 71 68 68 69 66 65 60 51 48 50 49 54 53 53 51 52
54 33 37 37 34 42 43 29 37 49 40 37 34 40 46 50 51 51 55 58 64 63 59 60 58 60 64 61 62 66 68 70 71 71 72 76 72 68 62 60 58 56 55 58 56 55 54 53 51
37 39 43 37 39 43 32 41 32 43 47 43 34 40 45 46 48 47 51 55 55 58 61 59 59 62 62 61 62 65 68 68 69 69 74 74 68 63 62 62 60 59 60 58 55 53 51 51 57
36 41 51 51 42 39 39 32 29 34 34 34 34 41 47 47 44 44 48 51 54 58 58 60 61 61 62 61 64 64 65 64 65 71 73 72 64 62 61 59 57 60 56 49 49 48 49 50 63
44 44 45 42 36 33 40 25 42 31 25 27 36 43 47 44 44 46 50 52 55 57 60 61 62 62 64 64 66 65 62 65 66 71 74 63 61 60 56 57 55 49 44 42 45 46 52 51 68
47 33 36 36 39 32 21 35 28 23 25 27 35 41 46 46 45 48 51 55 56 58 59 60 62 62 64 65 65 64 66 68 74 69 60 62 58 51 51 50 48 43 40 40 47 46 52 50 65
30 39 34 32 37 32 25 24 33 26 22 23 31 37 41 42 42 45 49 52 55 60 61 61 62 64 66 67 67 70 73 74 73 61 59 52 49 51 50 48 45 42 41 43 47 47 50 47 57
40 29 27 30 37 37 28 28 24 18 20 23 27 33 37 38 42 46 49 52 57 61 60 62 63 65 66 66 67 72 74 73 63 57 51 49 53 53 50 46 45 43 42 48 49 41 40 46 48
28 31 31 34 34 30 34 22 21 17 19 21 24 30 33 36 38 43 48 52 56 59 59 61 65 66 66 63 76 85 67 62 55 53 50 54 55 52 51 47 45 46 46 49 41 38 40 51 57

GFSSGP_prec_cthk_048.txt.gz
RH
24 18 13 15 20 21 20 22 25 46 52 63 75 62 67 67 69 84 89 89 80 77 69 66 63 58 58 58 54 46 37 35 34 27 21 17 13 14 15 14 15 15 15 15 16 17 18 18 18
24 28 17 16 18 19 19 42 52 51 67 60 60 62 70 77 79 81 83 85 86 78 73 70 66 60 62 57 50 44 37 35 29 22 17 13 13 14 16 17 17 18 18 19 20 20 21 21 21
27 27 25 20 19 21 23 56 50 50 52 52 55 49 55 71 83 87 85 85 87 84 77 75 71 70 67 56 48 42 39 33 20 17 12 11 14 17 19 20 20 21 22 22 22 23 23 23 22
30 31 27 27 26 23 33 44 51 54 57 56 54 52 55 66 74 85 89 95 92 87 84 83 81 72 65 50 47 39 32 19 17 11 11 15 19 22 22 23 25 25 25 28 29 29 28 27 25
30 30 29 27 24 27 32 49 64 56 61 57 56 58 60 64 76 93 91 94 94 90 93 87 86 75 67 51 44 31 17 13 10 12 15 19 22 24 25 26 27 27 29 32 35 35 34 32 30
30 31 32 33 28 25 39 52 56 74 68 59 63 57 57 57 69 88 91 99 98 94 91 89 82 74 63 51 37 22 14 11 14 16 20 24 25 26 27 29 30 32 33 34 37 39 38 38 36
27 31 32 35 35 35 44 55 55 60 68 67 72 65 64 61 66 81 87 94 95 93 90 89 78 69 62 42 24 14 11 13 17 20 25 27 28 28 30 33 36 37 37 37 39 40 39 39 37
24 29 34 33 34 62 69 64 73 60 71 65 72 75 62 64 67 78 85 91 91 89 94 83 77 63 45 32 25 14 12 17 20 25 28 30 30 32 35 39 40 41 39 40 41 41 42 42 46
29 28 31 36 53 66 68 76 83 71 61 56 60 72 69 60 67 77 80 93 95 95 82 72 57 47 34 23 18 13 16 20 25 29 33 37 40 44 46 45 45 41 42 44 46 47 49 52 54
30 30 39 54 55 60 59 72 82 62 66 65 72 68 60 59 64 78 88 96 90 86 75 59 47 34 27 17 14 15 19 26 31 34 43 50 54 56 53 56 57 57 56 55 60 58 59 57 57
30 32 43 55 52 46 49 61 72 67 64 65 82 75 61 55 63 79 94 95 85 69 53 50 40 35 34 21 21 20 28 37 41 42 55 60 52 61 68 76 79 82 74 71 67 65 63 60 56
33 40 42 53 51 48 57 86 79 73 61 55 73 54 45 56 65 74 79 70 52 46 40 35 30 30 32 26 27 30 36 41 45 49 52 56 64 76 78 81 77 78 77 78 70 68 63 60 55
39 38 39 41 60 58 60 64 69 54 44 64 63 43 43 44 79 93 50 46 41 35 30 25 23 24 26 34 31 41 49 51 66 70 68 77 78 79 79 81 80 78 75 71 68 65 62 57 52
40 41 45 51 54 53 59 66 56 44 52 44 36 38 37 38 52 40 37 36 34 33 28 27 25 27 35 34 37 43 50 55 60 64 72 79 79 79 81 82 82 78 75 68 66 61 53 50 48
45 42 42 49 52 60 66 67 55 41 38 37 43 44 45 41 31 31 34 35 36 39 38 38 40 43 42 43 45 52 60 62 65 67 73 75 76 79 81 83 80 78 71 62 53 51 47 45 42
43 43 50 47 47 59 61 71 48 34 34 38 38 35 36 30 29 32 39 47 49 51 50 51 52 53 55 59 68 69 67 73 72 66 70 71 71 75 81 82 73 61 52 47 47 48 47 43 38
45 44 42 38 42 54 56 48 34 36 39 37 35 34 31 31 33 37 43 50 53 55 59 61 62 65 68 75 76 79 76 72 64 63 64 65 66 67 64 58 52 49 48 47 47 44 39 35 32
45 39 38 38 31 44 44 43 39 35 44 43 42 36 37 37 37 40 42 49 55 58 60 66 69 75 70 70 72 74 68 66 61 62 63 60 60 53 51 48 50 53 52 48 46 43 39 36 35
43 41 39 37 31 28 32 39 29 23 38 52 49 42 40 40 43 46 49 50 52 54 57 63 66 67 67 68 72 63 57 60 60 59 51 49 48 48 54 56 56 57 56 54 51 47 45 42 41
37 40 38 32 27 22 32 29 26 20 28 44 47 47 45 44 44 45 48 50 54 54 57 63 64 66 71 75 63 52 55 55 51 48 49 53 55 59 61 62 61 57 55 51 47 45 44 45 47
37 45 41 45 32 21 36 29 33 29 32 34 36 43 45 46 45 46 50 51 55 58 58 63 68 69 69 66 54 53 52 49 50 54 57 61 63 62 62 62 57 55 51 48 46 45 47 45 42
48 48 45 47 44 34 35 51 46 43 36 42 45 40 41 43 45 49 53 56 56 59 64 65 66 63 63 58 54 52 52 52 60 61 61 62 62 64 66 63 57 53 51 46 44 46 44 42 42
41 44 46 39 37 40 46 51 49 49 40 39 44 46 45 48 50 50 52 54 54 56 57 62 64 58 60 56 56 58 61 64 67 70 69 68 66 66 65 58 57 54 50 47 47 46 44 39 39
31 33 35 37 39 44 48 54 55 54 57 60 55 45 41 45 53 52 55 56 53 53 59 62 56 58 58 58 60 60 62 65 66 65 64 64 69 71 65 59 58 53 49 46 47 44 40 38 40
27 35 45 81 74 46 33 39 36 48 54 48 48 47 45 47 48 49 51 54 55 53 52 54 58 61 60 60 59 60 63 67 66 67 67 68 72 68 59 56 51 47 45 45 43 41 39 40 46
45 44 64 66 62 51 43 41 39 31 31 31 34 37 41 44 45 44 46 47 51 51 52 56 60 59 57 57 59 60 63 64 66 68 70 72 67 60 55 51 47 45 48 47 45 40 39 42 50
54 47 45 41 47 42 22 17 38 38 25 20 28 33 38 42 43 42 42 44 46 50 53 56 59 58 56 60 60 61 63 63 66 71 75 69 57 55 50 46 45 49 49 47 46 47 44 49 48
25 33 40 37 38 34 33 31 48 43 32 19 28 33 37 39 41 40 42 44 47 48 53 55 61 59 58 59 62 65 64 64 70 82 77 73 56 48 47 48 53 53 51 49 50 49 49 42 40
39 43 29 27 42 52 44 43 36 33 26 20 25 32 35 36 36 37 41 43 47 51 53 55 62 64 63 63 65 66 66 67 74 82 79 55 49 48 52 58 57 54 55 53 50 49 48 41 31
33 40 39 51 36 41 42 38 34 28 21 20 22 31 34 36 35 36 39 44 45 48 55 61 65 67 65 64 67 69 71 67 70 84 75 55 52 57 62 61 59 56 52 52 49 46 41 34 40

GFSSGP_prec_cthk_051.txt.gz
RH
18 23 20 17 20 22 23 27 31 42 49 60 57 55 58 56 61 65 70 76 77 78 74 70 68 68 68 66 54 51 49 43 32 22 14 10 9 11 12 14 14 14 16 17 17 17 17 18 17
19 27 26 18 16 22 25 46 53 46 50 52 58 67 64 73 66 70 74 78 80 80 76 74 72 70 70 64 60 54 51 38 26 16 11 8 10 13 15 15 16 17 19 19 19 20 20 20 20
20 27 26 21 18 20 27 47 55 54 53 54 54 69 76 77 71 69 75 84 83 80 78 78 73 71 68 68 65 57 49 31 19 14 9 8 13 16 17 18 20 20 21 21 23 25 26 26 24
26 28 26 23 25 22 26 39 51 50 55 58 62 66 68 68 68 67 71 80 85 83 79 77 75 74 70 70 64 57 40 22 17 12 7 11 16 17 19 21 21 22 24 27 27 29 32 31 30
29 31 31 25 24 30 45 54 51 57 62 59 56 64 68 69 71 70 77 80 94 95 89 82 84 78 77 72 58 46 23 15 13 8 11 16 19 20 22 23 23 26 29 32 33 33 34 35 34
32 29 29 32 33 56 54 56 64 60 57 54 57 59 63 61 66 70 81 91 92 98 95 91 88 83 79 64 51 33 21 14 10 11 17 20 21 23 24 25 27 29 33 36 36 37 38 37 35
32 32 33 34 38 57 58 63 68 69 66 60 53 65 60 62 63 74 91 95 94 94 92 89 87 85 71 52 39 24 14 11 12 17 20 22 24 25 26 28 30 32 37 36 37 39 42 42 45
30 31 30 35 47 70 69 69 71 65 64 61 60 64 68 61 68 75 86 92 93 94 90 90 90 80 63 43 28 15 13 15 18 22 24 26 26 27 30 31 34 37 37 37 45 48 48 52 51
32 27 28 37 56 64 64 60 69 63 65 72 67 61 59 73 76 85 90 94 97 95 96 86 83 67 52 43 36 28 24 18 26 26 28 28 30 35 37 41 44 43 44 51 57 58 58 58 56
33 30 32 43 55 60 60 59 60 58 57 70 74 68 73 75 68 83 89 93 93 83 88 81 57 48 38 25 21 18 17 21 24 29 31 31 36 39 46 57 62 67 68 70 69 67 66 61 60
33 31 40 45 55 54 56 56 58 62 59 68 80 76 80 72 69 86 94 90 80 70 72 57 43 37 24 18 15 16 18 22 28 32 36 38 42 48 63 74 74 76 74 69 70 65 63 60 58
33 34 43 56 56 58 59 62 69 73 60 62 71 85 68 71 72 90 92 78 66 71 58 43 39 32 24 18 17 19 22 28 31 39 47 51 56 65 71 77 77 76 73 72 69 67 64 59 55
34 39 45 55 59 60 62 60 54 60 63 64 58 61 58 81 90 94 75 71 60 48 42 37 33 30 26 22 25 28 31 39 40 44 52 58 67 77 72 75 80 81 79 78 72 67 58 52 48
43 44 45 52 53 60 56 56 62 57 57 54 46 57 57 66 62 41 52 46 40 34 28 27 23 27 28 30 31 36 41 47 55 58 62 65 68 73 75 79 79 80 83 79 67 55 46 40 40
43 45 46 49 62 58 50 50 54 68 65 42 46 48 54 44 29 28 35 32 30 30 23 25 28 33 34 40 43 55 62 61 61 65 67 66 69 70 73 74 74 78 76 64 46 41 42 41 36
42 43 47 52 63 62 56 49 45 50 51 46 53 58 45 34 31 32 33 31 34 39 35 34 38 43 49 52 61 64 66 67 65 62 61 63 63 68 71 67 65 56 49 41 41 42 40 35 32
45 50 49 50 61 61 58 49 43 45 45 39 39 37 38 34 32 34 35 37 42 47 40 44 50 55 59 67 69 70 68 68 64 65 65 62 61 57 53 51 48 42 41 42 42 39 35 35 34
48 45 42 45 47 50 53 52 47 40 32 32 34 32 32 30 33 37 38 40 46 50 58 57 58 61 62 65 62 66 70 64 60 59 58 53 50 45 44 45 41 41 44 44 41 41 43 41 37
50 47 42 37 41 43 49 44 38 35 30 36 35 34 29 30 32 38 43 42 45 50 53 59 66 66 57 61 65 70 63 56 55 55 50 48 44 40 42 44 47 48 48 47 46 43 42 40 37
48 48 47 41 41 27 35 38 32 38 33 37 43 33 32 32 33 35 41 42 44 46 52 54 61 59 62 65 67 63 54 49 51 50 47 43 42 46 50 51 51 54 53 51 44 41 39 36 37
55 50 49 46 40 24 33 39 39 33 33 32 33 34 38 33 32 36 40 45 46 48 51 57 57 60 61 67 64 54 53 50 48 42 43 47 50 53 54 54 56 55 54 50 45 39 36 37 36
60 50 50 41 35 30 38 48 44 41 42 41 42 46 44 48 41 41 41 45 48 50 58 58 58 60 62 64 55 53 46 43 43 48 51 53 54 53 53 56 59 58 53 47 42 40 38 40 39
48 36 40 43 47 49 47 46 43 46 52 52 45 46 47 47 43 44 44 46 51 54 56 58 57 56 60 54 57 52 50 50 49 52 55 57 59 61 58 60 58 56 49 45 45 45 41 43 41
32 33 42 47 55 58 43 48 53 46 47 53 46 49 52 56 53 54 55 52 51 53 55 53 54 54 56 57 56 57 53 54 55 57 62 66 67 67 65 64 63 55 48 49 47 40 43 42 41
36 34 54 59 64 51 48 54 53 41 38 34 34 41 48 52 50 56 55 51 49 48 48 54 56 53 57 59 58 57 56 56 59 62 66 71 69 68 71 78 70 57 48 47 41 47 49 46 43
47 40 54 58 72 64 56 60 50 45 41 40 39 36 37 41 44 46 47 48 48 46 51 54 55 51 56 59 59 58 60 62 64 66 68 68 70 73 84 76 66 49 44 47 51 53 51 49 48
40 52 53 56 53 58 39 34 36 34 47 39 30 32 38 34 38 43 46 42 42 44 48 48 52 53 57 60 59 60 64 68 70 69 68 67 67 74 82 73 63 52 49 50 54 53 52 50 50
37 34 52 49 40 36 33 42 52 47 47 42 33 29 31 34 36 35 37 37 40 43 45 48 52 56 60 60 60 66 69 72 74 74 71 75 84 72 70 67 50 52 59 57 56 54 53 52 53
40 39 40 37 43 53 57 50 45 45 37 29 35 26 26 29 31 33 34 36 37 39 42 48 56 59 63 65 64 66 80 82 86 75 92 78 92 70 56 59 59 61 61 60 57 54 52 54 54
39 39 43 54 39 45 49 37 35 41 36 33 28 29 30 31 34 36 36 38 39 41 44 47 49 54 60 64 72 79 87 86 84 83 82 78 76 61 68 71 65 66 61 57 53 55 55 50 49

GFSSGP_prec_cthk_054.txt.gz
RH
20 19 22 20 19 22 24 27 29 38 47 56 55 59 63 66 64 64 67 72 62 59 65 68 69 69 74 67 61 59 56 52 42 25 17 8 7 11 11 13 14 15 15 16 16 16 16 17 21
20 23 26 25 21 21 22 31 56 54 53 55 58 62 70 75 68 64 66 76 73 67 72 73 73 73 71 67 64 60 58 52 36 26 13 6 10 12 14 15 16 16 17 17 17 19 20 21 27
21 23 28 26 23 21 23 39 53 50 52 57 63 65 70 78 74 72 67 71 75 74 70 75 73 71 72 68 66 66 60 45 32 28 13 9 12 14 17 17 18 18 18 19 22 23 24 27 30
22 24 26 27 32 33 27 38 39 49 53 55 54 59 67 74 74 70 76 79 74 74 75 83 76 76 72 72 73 66 51 41 36 23 12 12 13 17 19 18 18 19 21 25 26 28 29 30 32
27 28 31 40 36 39 51 52 52 60 64 60 62 62 67 71 72 71 71 73 78 89 89 90 84 82 79 78 73 64 49 31 26 18 14 14 16 19 20 20 21 22 26 28 30 33 33 34 34
30 29 36 40 40 45 50 56 68 70 75 69 67 63 64 71 74 79 81 75 78 92 98 96 93 88 86 81 69 51 31 24 15 14 15 16 18 20 21 22 23 26 30 32 33 33 34 38 40
31 34 34 40 40 45 59 61 68 66 63 70 66 63 65 67 72 79 83 86 85 93 91 92 94 92 88 76 56 34 22 22 22 19 17 19 20 21 23 25 27 30 33 34 34 42 42 46 47
33 34 33 37 46 54 57 62 59 64 68 71 71 68 69 71 73 75 82 95 93 97 97 96 90 87 82 60 41 29 23 18 19 19 19 20 22 26 30 29 30 34 39 46 49 53 54 56 54
34 34 32 36 50 54 54 56 55 57 62 67 68 73 76 75 73 81 87 96 98 93 91 90 97 90 66 47 35 25 20 22 22 24 25 28 32 29 31 34 42 50 52 59 61 64 62 60 58
36 34 28 33 49 52 53 53 54 55 59 71 76 78 85 81 79 87 91 96 99 98 94 88 90 72 57 50 42 36 28 24 28 29 30 30 30 36 44 53 61 65 67 66 65 66 64 62 59
36 34 34 41 43 46 51 53 49 50 59 66 74 82 89 85 91 85 87 86 95 90 78 72 70 56 40 30 24 19 17 22 24 26 30 34 42 46 55 63 67 68 70 69 68 66 67 65 58
35 35 37 41 46 51 55 50 52 54 66 70 75 71 82 78 85 80 84 68 79 81 78 67 48 36 27 20 16 15 17 24 26 36 40 47 51 55 58 66 70 70 71 72 71 73 71 60 50
41 38 43 45 46 54 53 53 57 57 67 75 68 67 74 79 78 81 69 59 61 64 62 48 38 29 23 19 19 19 21 26 37 45 49 53 53 60 66 67 69 71 67 70 71 73 68 55 43
49 48 55 53 54 53 55 58 54 59 60 72 70 63 71 74 53 46 53 50 46 47 37 40 37 32 25 22 23 25 31 39 47 52 60 59 60 62 60 65 67 66 65 66 68 63 53 40 37
47 52 53 57 57 55 54 56 58 63 54 58 64 63 62 52 43 40 43 44 39 41 38 38 37 35 32 34 36 42 54 58 61 67 57 59 62 64 65 63 58 59 61 64 57 43 39 36 33
43 47 50 56 54 57 54 49 52 54 45 68 64 54 46 42 35 35 38 37 37 45 42 44 43 46 49 50 59 65 63 64 60 60 57 57 59 59 58 57 55 58 55 47 43 39 37 36 33
45 51 52 54 53 57 49 45 42 47 50 56 52 52 42 41 34 36 37 38 44 43 39 43 45 49 55 59 60 59 57 62 57 53 53 54 55 55 52 47 45 43 44 44 41 41 38 36 35
55 51 52 50 50 51 52 46 43 41 43 47 49 46 38 35 33 38 40 43 47 52 46 47 46 51 56 54 51 56 63 59 53 52 52 49 49 47 46 43 43 44 43 45 47 43 40 39 39
56 52 52 48 44 48 47 45 45 45 47 44 45 44 37 36 35 37 38 41 44 45 45 44 48 56 56 53 59 61 60 59 57 49 49 50 48 46 45 42 43 45 50 51 47 45 44 41 36
57 53 47 43 41 47 42 46 44 46 44 41 40 37 35 37 38 39 38 39 41 44 48 50 54 57 57 56 58 60 62 59 54 51 50 49 48 45 43 46 50 52 53 53 53 48 41 36 34
49 50 47 42 42 36 39 37 38 43 48 48 45 36 38 38 38 37 37 38 39 43 46 52 59 61 60 57 58 62 63 56 52 51 48 45 44 46 50 52 51 52 57 59 52 45 38 37 38
49 48 47 45 40 36 36 42 41 41 46 51 50 43 37 38 40 40 42 43 44 47 49 54 57 61 63 60 62 65 54 52 52 50 43 44 50 55 55 55 58 60 60 61 56 52 46 44 43
42 50 46 46 45 37 34 42 44 42 42 46 47 45 38 40 43 43 44 47 51 54 56 58 60 63 65 62 67 58 54 54 49 45 47 53 56 57 57 57 58 60 63 65 63 58 56 53 43
45 46 48 50 51 52 50 50 42 47 43 38 43 43 41 46 52 47 47 49 56 60 55 57 64 63 64 64 62 55 55 48 50 52 54 56 57 57 58 61 62 60 63 69 70 69 59 45 44
45 45 57 60 64 56 46 49 39 42 39 33 43 41 46 46 47 45 49 54 61 62 54 58 57 58 58 60 54 57 53 54 55 58 61 65 66 65 71 74 66 74 73 74 77 58 42 43 46
53 52 49 49 64 56 50 51 47 40 40 37 38 39 35 42 44 47 50 51 66 55 57 57 52 52 56 54 56 55 57 59 65 68 67 71 75 85 84 82 84 86 87 68 44 43 50 52 52
47 47 44 53 56 63 50 39 38 38 32 39 36 30 29 34 38 41 44 52 53 51 56 54 50 53 55 52 56 60 64 69 66 77 84 84 85 96 86 91 88 82 78 53 50 54 55 56 55
41 41 52 57 48 43 36 41 47 42 43 41 35 31 28 31 36 39 42 44 46 48 48 50 50 49 50 53 57 62 68 76 79 86 87 89 84 93 81 86 75 70 62 58 62 64 57 58 59
42 35 36 38 49 52 52 42 38 43 38 40 37 33 30 26 29 31 33 32 33 36 39 42 45 46 52 61 67 71 80 83 82 87 90 86 95 92 87 85 65 64 61 71 70 60 60 63 62
53 40 42 56 49 51 52 36 32 39 46 40 40 39 38 32 30 28 29 31 32 34 39 44 49 61 70 69 71 81 79 84 81 82 84 97 96 80 84 77 67 72 77 69 60 66 66 62 59

GFSSGP_prec_cthk_057.txt.gz
RH
20 22 23 26 26 24 25 27 35 37 44 55 63 75 74 68 68 64 65 69 65 60 67 69 71 73 71 65 63 62 64 56 47 38 27 18 16 11 11 13 15 16 16 17 17 18 20 22 25
21 24 28 32 29 26 24 24 49 52 53 60 64 71 69 68 71 71 68 66 61 65 71 72 74 76 73 66 65 69 64 56 44 38 24 20 15 12 13 15 17 17 17 17 19 21 23 24 26
23 23 32 38 38 25 23 31 40 52 53 61 72 80 76 77 74 73 74 70 67 68 71 72 76 75 74 70 68 68 69 53 44 35 23 25 17 13 15 17 18 19 21 22 25 26 26 28 27
24 25 32 39 33 26 31 46 50 50 47 58 67 67 70 71 76 77 82 78 76 78 76 76 78 85 71 78 74 73 62 49 43 31 25 25 20 21 18 19 20 21 24 26 29 29 29 30 31
27 31 35 37 32 35 44 45 54 54 56 58 64 74 74 74 72 74 73 76 80 77 77 80 91 92 84 84 80 68 56 51 40 35 31 28 25 18 21 19 21 23 26 29 31 32 30 30 32
32 33 36 41 36 45 50 53 50 60 62 64 66 72 75 74 76 75 78 82 82 84 84 88 97 93 89 93 81 65 62 46 30 32 30 24 24 23 20 22 24 27 29 32 32 32 38 41 43
34 35 35 40 42 47 57 55 60 61 63 61 65 67 74 77 77 78 81 79 89 93 97 96 94 97 96 89 76 64 43 31 25 20 22 23 23 22 24 24 27 29 33 35 37 44 50 51 52
36 35 34 37 41 51 59 58 57 55 59 60 67 71 71 74 74 73 75 76 81 88 90 92 95 94 90 78 60 37 28 32 36 30 25 25 25 26 25 28 32 34 42 46 53 57 56 57 57
36 36 35 37 47 54 58 55 56 56 58 59 63 66 70 72 71 73 73 79 88 93 92 94 94 88 86 71 50 38 32 28 29 27 26 27 27 31 34 35 36 45 50 57 65 63 61 61 60
37 34 31 35 45 55 56 55 57 57 58 67 69 69 74 78 84 84 86 89 92 97 92 94 90 82 76 56 40 28 27 30 30 32 32 34 38 39 34 40 50 57 63 68 70 69 66 66 62
37 36 35 34 40 46 54 56 54 56 56 68 75 79 81 81 87 92 94 97 94 95 96 88 81 74 72 57 48 42 36 30 32 38 38 39 39 43 50 52 57 64 67 71 72 70 67 66 64
36 38 41 39 41 49 53 52 56 56 58 69 78 85 76 85 84 88 88 92 97 83 79 71 74 62 52 40 28 26 28 30 32 35 36 38 47 51 55 59 61 67 68 73 73 67 67 60 56
36 40 42 39 46 56 52 51 54 59 66 74 78 78 77 81 82 75 71 79 77 72 72 66 53 51 41 28 23 19 23 28 33 40 48 50 53 57 59 59 64 65 69 68 65 63 61 54 44
47 52 54 50 55 55 49 49 54 61 72 75 71 76 71 67 67 55 57 63 69 66 64 52 36 33 23 21 19 22 29 33 46 56 55 58 58 61 60 64 63 63 65 61 63 64 54 41 34
53 53 53 49 51 53 52 55 58 62 61 70 67 63 66 59 51 47 39 45 46 46 42 36 36 31 26 28 30 37 45 53 56 56 57 62 58 57 63 65 59 64 62 60 60 49 40 36 33
51 49 49 50 54 55 60 57 55 55 60 66 55 52 47 44 46 43 32 31 38 43 49 52 46 45 45 46 54 57 63 59 60 61 63 60 56 56 60 58 57 59 59 53 40 39 38 36 35
50 50 49 48 57 55 55 52 53 53 52 53 50 44 47 41 40 39 37 36 43 45 46 48 48 49 53 55 59 62 61 60 65 65 57 53 53 55 53 56 54 50 41 40 41 42 40 39 37
51 52 53 52 56 58 53 49 42 44 47 46 44 48 44 41 38 36 39 44 49 49 52 53 51 55 59 58 59 62 65 67 65 59 52 48 51 51 51 47 41 41 41 43 44 44 43 39 37
53 52 54 50 52 54 54 56 50 49 49 47 53 52 46 40 39 40 43 47 49 52 53 47 47 52 57 59 60 61 64 63 60 57 54 53 49 46 42 40 40 40 43 46 46 46 43 41 42
50 54 54 46 47 48 47 46 45 50 51 46 46 49 45 39 38 37 38 42 46 50 52 50 48 52 56 62 59 61 60 63 62 60 56 49 45 41 41 40 42 45 44 44 46 48 48 47 50
50 54 53 50 42 42 38 37 35 39 51 50 51 43 45 43 42 37 39 41 42 44 47 48 52 54 61 66 64 62 63 65 64 58 52 47 45 42 41 44 47 48 50 52 59 59 55 56 60
52 52 51 49 45 40 35 39 35 35 42 43 49 51 49 42 42 41 43 46 48 46 54 55 58 65 69 69 69 61 63 65 59 55 52 49 44 43 47 51 54 57 58 59 62 59 61 64 66
47 47 46 46 46 46 40 35 32 35 44 43 43 50 48 42 38 41 41 47 56 59 56 59 67 65 73 70 70 63 64 65 55 56 54 47 46 50 57 61 65 69 74 69 66 68 71 71 68
42 45 47 49 50 54 43 42 40 37 37 41 46 48 45 40 43 46 44 47 50 60 59 62 66 61 70 71 69 64 66 56 56 56 51 50 56 62 68 75 78 85 90 85 80 74 71 69 55
42 45 49 50 57 53 46 46 43 37 40 35 38 38 39 42 43 41 46 47 51 56 62 72 66 68 66 64 61 64 59 54 57 54 51 56 67 75 82 88 87 91 89 96 90 77 69 55 46
48 46 55 43 54 53 47 48 39 42 43 39 33 31 34 36 38 38 44 47 50 57 63 76 72 73 66 59 58 58 54 58 59 57 67 75 74 81 84 94 97 88 87 91 84 74 68 55 51
50 51 44 51 54 62 51 41 36 38 39 43 42 33 31 30 32 35 40 46 45 56 64 69 65 65 55 54 55 55 56 59 63 67 76 78 89 87 93 94 90 97 96 85 69 59 67 63 66
54 53 50 54 52 52 43 40 40 39 37 30 29 34 31 27 28 32 35 37 44 51 56 54 52 49 47 54 55 53 59 61 67 74 81 81 93 93 96 81 93 97 89 82 68 65 66 65 62
55 54 51 48 56 51 55 42 34 38 31 29 30 37 33 30 27 28 29 32 38 45 44 40 42 44 50 53 56 63 71 75 77 86 84 79 83 96 83 81 77 80 75 67 71 72 66 66 69
49 51 55 50 44 52 58 39 27 32 37 36 36 38 38 36 34 27 26 32 37 37 38 39 45 52 59 63 70 77 83 89 91 93 82 90 76 77 85 75 87 75 75 77 72 70 69 65 61

GFSSGP_prec_cthk_060.txt.gz
RH
19 19 22 22 25 30 30 30 33 47 48 55 59 69 64 77 79 70 67 65 63 72 74 74 73 72 70 64 56 55 54 61 53 40 37 29 20 21 15 14 14 15 16 16 18 19 21 26 27
20 21 25 25 29 34 26 24 34 59 60 63 64 65 61 72 80 79 73 71 66 69 71 74 75 74 73 67 60 58 61 56 51 38 38 27 22 23 16 15 16 16 17 20 21 23 24 26 27
22 23 26 29 33 32 23 26 37 50 60 63 74 74 79 85 86 80 77 76 75 69 72 75 76 77 75 71 66 62 64 54 48 39 40 26 23 24 18 19 18 20 21 23 26 27 28 28 29
24 24 26 30 36 28 29 33 46 50 53 52 64 75 76 78 77 77 81 81 81 79 83 83 84 85 82 80 77 71 68 53 50 43 34 29 31 27 20 28 22 24 24 26 28 30 30 30 32
27 26 30 31 35 31 45 48 51 56 56 60 63 72 74 76 76 75 76 79 77 76 81 88 87 89 89 86 85 75 65 58 43 45 36 35 37 26 31 29 27 24 25 28 29 30 31 37 43
32 29 33 34 38 44 53 53 56 61 66 67 67 66 70 73 73 74 74 75 76 78 85 92 94 94 92 96 89 72 64 49 49 43 41 41 36 32 28 28 26 28 30 31 32 36 41 46 49
33 36 36 40 44 48 56 58 58 60 64 65 67 70 70 74 74 74 73 75 79 83 96 93 97 95 98 92 77 70 65 61 45 43 41 36 35 33 28 26 28 32 34 39 44 46 53 54 54
34 37 34 36 43 52 57 59 59 58 58 61 62 68 78 77 75 76 76 77 81 83 87 94 98 99 93 88 83 73 58 43 37 33 32 35 32 26 27 30 34 37 44 48 51 57 61 62 63
38 38 39 35 40 49 56 58 58 58 59 64 66 65 67 75 75 77 75 78 78 82 88 91 98 95 88 84 76 55 44 43 46 41 38 35 31 29 31 33 38 46 52 55 62 64 65 64 62
39 39 39 35 38 49 53 58 58 57 59 64 68 70 75 76 73 79 80 79 79 85 94 99 96 92 84 72 58 51 44 41 40 38 33 32 35 32 34 39 41 46 59 66 68 67 66 65 62
39 37 40 39 37 41 52 58 59 58 57 60 65 73 77 78 78 80 84 90 94 90 95 95 93 86 68 61 51 40 33 38 39 39 38 39 41 45 47 47 52 61 64 66 66 65 64 62 56
31 40 41 45 45 47 57 54 55 55 56 62 67 71 73 80 87 88 93 95 93 91 84 88 86 78 71 66 55 49 39 37 42 46 47 45 45 45 51 64 66 63 66 63 63 60 60 60 52
41 41 45 44 48 55 54 52 53 59 61 64 70 68 77 80 86 87 93 92 95 89 74 69 69 70 59 55 45 35 31 36 38 40 42 48 52 57 67 71 65 61 62 61 61 57 57 52 44
52 49 45 50 53 53 51 54 51 57 63 66 70 67 65 72 70 69 83 83 80 68 67 61 61 52 42 30 25 24 23 30 38 52 62 63 59 59 67 65 65 62 61 61 59 57 53 42 35
50 52 53 49 53 54 52 53 54 58 67 66 69 65 57 60 63 59 60 62 62 60 51 39 39 35 29 23 23 24 30 44 57 63 64 61 61 68 65 65 62 58 58 61 59 51 38 35 35
51 50 54 56 54 55 55 52 59 63 63 58 54 56 55 47 43 46 47 50 48 48 51 49 47 45 40 38 41 47 57 61 63 59 57 64 63 61 57 60 57 55 56 57 47 37 38 39 37
46 49 56 52 57 58 57 54 59 63 60 55 47 52 44 53 45 38 39 44 52 56 54 52 52 51 49 49 52 56 57 60 62 61 69 58 56 56 56 55 54 59 53 40 39 42 43 41 40
49 50 53 55 54 54 55 54 54 60 60 52 50 50 48 43 42 42 42 43 47 50 49 53 53 49 49 50 55 57 57 64 65 68 63 59 54 52 55 56 54 45 39 41 44 44 42 40 37
49 54 55 53 54 53 52 52 55 59 58 61 55 51 47 42 40 42 42 44 46 51 52 51 53 55 56 57 57 58 61 66 65 66 62 60 56 56 53 53 43 41 43 45 46 44 46 45 43
52 56 57 55 52 54 47 43 49 56 56 52 53 48 43 40 39 40 41 42 41 45 46 48 49 52 57 56 59 57 60 63 68 67 64 63 62 56 53 46 43 43 46 47 48 50 50 52 53
51 53 51 47 48 49 45 39 35 40 45 49 49 43 44 43 39 38 39 41 43 44 47 49 51 54 56 58 59 60 61 65 66 68 67 65 62 55 48 44 43 46 49 51 56 59 61 61 61
51 49 51 49 45 44 41 43 34 32 38 39 48 50 53 53 51 44 42 46 52 52 52 53 54 56 61 63 62 66 67 66 69 75 65 64 58 53 48 46 48 54 60 66 70 77 78 82 78
49 50 51 50 52 48 46 43 36 34 40 38 44 46 50 50 52 46 47 51 52 60 63 61 64 63 63 61 69 73 79 78 74 73 66 62 58 53 49 52 59 66 71 75 87 87 83 86 80
47 49 49 53 52 55 49 46 39 39 38 40 42 45 47 45 48 49 49 50 53 59 67 65 63 66 66 65 72 81 81 78 77 72 61 63 59 52 56 66 71 73 80 88 96 96 88 89 79
44 47 51 49 57 52 45 47 39 39 39 40 39 41 44 39 43 49 50 49 50 49 58 60 69 69 73 71 79 82 72 72 77 61 56 58 57 59 73 78 82 84 85 87 96 89 92 79 73
47 46 59 48 56 49 38 40 34 36 41 40 38 34 31 33 35 44 41 41 43 54 57 52 65 84 78 80 82 74 67 71 64 55 56 63 70 78 80 81 80 88 92 92 88 88 79 69 61
53 52 49 59 60 63 45 35 27 34 36 39 39 39 29 26 26 29 33 35 37 42 48 50 59 79 65 63 64 60 67 67 59 60 69 72 78 80 87 83 86 87 91 84 87 79 75 69 65
52 52 56 60 56 55 48 43 38 30 39 36 33 28 28 26 26 27 27 29 31 37 39 45 51 57 51 53 54 61 62 60 64 73 74 81 88 90 90 95 87 89 78 77 77 73 77 72 66
54 52 53 54 60 59 60 44 39 33 32 31 30 30 27 30 31 29 27 27 28 30 39 43 52 51 51 52 57 59 58 67 71 81 89 89 96 88 97 94 91 90 83 77 76 77 76 72 70
44 44 49 62 53 62 58 44 34 32 33 33 33 33 34 36 37 33 30 29 30 36 39 43 48 56 52 56 63 63 67 76 79 84 87 96 93 94 97 88 77 80 82 83 83 80 77 74 68

GFSSGP_prec_cthk_063.txt.gz
RH
18 18 21 25 25 25 26 25 30 39 54 60 66 61 64 70 66 63 67 68 69 69 75 74 71 70 66 63 61 59 57 52 50 45 37 30 28 23 22 18 16 15 16 17 19 22 23 23 23
19 22 25 28 27 26 27 24 28 40 52 61 66 70 67 71 67 74 74 74 80 77 75 74 73 73 70 66 63 60 57 48 46 43 36 34 29 28 25 19 17 17 18 20 22 25 26 25 25
20 24 28 30 30 30 28 26 32 43 50 62 64 69 80 72 69 75 76 85 87 82 78 74 73 73 73 72 67 60 56 50 45 45 37 41 28 26 26 20 18 21 22 23 26 27 27 27 30
24 25 28 31 36 35 34 34 45 49 50 59 68 79 79 77 74 71 71 85 88 83 81 78 79 83 81 79 74 67 59 55 52 45 43 39 29 32 29 22 23 24 26 27 27 29 31 34 37
28 29 32 32 37 40 43 49 55 55 55 62 64 70 77 80 79 77 84 95 94 85 82 85 85 89 85 84 78 71 60 56 50 46 44 35 33 37 33 32 30 28 30 30 32 34 37 42 44
31 33 34 33 37 47 47 53 56 59 65 68 69 76 79 78 79 77 78 80 85 88 88 89 89 94 93 91 83 69 59 57 54 48 44 38 43 44 38 33 33 31 29 32 35 41 46 49 50
31 37 36 35 41 47 53 58 61 62 62 66 69 76 75 73 78 79 77 78 79 84 86 94 95 98 96 93 81 69 61 59 49 51 46 51 47 41 39 33 32 31 34 38 46 52 56 59 57
31 38 35 36 41 49 54 59 60 59 60 61 66 70 73 78 77 78 79 76 80 81 92 96 97 96 97 89 76 70 64 57 60 56 49 46 43 44 37 34 33 35 40 49 55 58 59 60 60
34 38 40 38 39 45 54 54 60 61 63 63 63 67 67 73 80 80 78 77 82 84 88 87 91 93 93 93 82 78 72 70 57 45 40 46 46 38 35 36 37 40 47 55 62 62 64 65 60
34 38 39 38 37 41 49 52 56 58 60 61 62 66 71 74 74 75 76 79 80 83 86 91 91 96 89 90 90 82 67 47 46 49 46 44 45 40 40 40 43 49 54 59 64 66 67 65 58
32 38 40 40 40 41 47 54 52 52 55 58 61 64 68 72 73 75 78 78 80 87 90 96 95 93 95 92 81 59 57 53 49 47 43 43 46 43 42 46 54 59 62 66 68 62 62 59 53
37 35 40 41 45 47 52 54 53 52 54 59 60 68 71 72 77 80 83 84 89 94 97 93 94 91 88 74 62 51 39 41 44 45 47 45 46 49 51 55 62 67 71 68 62 63 59 56 46
43 43 42 45 48 51 55 52 52 56 58 59 60 66 79 78 80 87 89 98 96 93 94 90 83 79 69 57 50 50 46 46 44 46 48 49 52 53 55 61 73 71 65 66 64 62 58 51 42
49 49 52 50 54 56 55 54 55 59 62 64 67 68 83 87 86 90 96 95 81 82 80 77 70 64 66 59 50 41 43 44 42 43 48 59 63 63 64 70 67 66 60 59 60 58 54 43 33
47 50 54 60 56 53 53 55 56 59 64 67 69 65 67 67 74 78 80 82 70 68 59 56 55 58 49 42 33 27 26 30 41 54 65 69 66 66 75 75 68 64 57 57 57 51 45 37 36
46 46 50 55 58 55 54 56 55 63 65 65 69 65 59 61 64 62 70 71 59 56 49 48 46 39 33 29 26 25 31 46 61 70 71 70 68 74 74 63 61 57 58 55 55 44 38 39 36
44 47 52 53 55 57 62 52 59 68 63 53 57 55 55 47 44 48 53 57 58 51 47 48 50 47 43 42 46 49 54 62 66 67 68 69 73 71 63 59 54 56 58 51 42 39 41 40 39
47 49 52 54 55 58 58 54 55 59 57 48 54 47 46 46 40 37 41 49 53 54 56 54 54 53 52 49 48 52 54 55 56 67 71 69 66 57 54 55 56 56 52 39 39 42 43 43 44
46 53 53 53 52 52 51 49 50 56 57 52 53 48 44 39 43 44 44 47 50 54 55 55 55 53 51 51 51 54 55 61 71 71 70 68 61 55 55 56 53 52 39 38 42 45 47 49 52
47 53 55 51 55 50 46 47 49 53 52 52 47 46 43 43 42 42 46 46 50 51 50 52 53 56 57 57 56 58 60 63 65 68 70 76 61 58 59 53 50 41 39 41 46 52 60 62 63
47 51 51 51 54 53 45 38 41 41 45 48 50 45 42 37 37 39 40 41 44 47 47 49 52 54 56 59 60 62 61 63 63 71 72 64 63 60 58 52 46 42 43 50 58 63 66 69 74
47 47 49 50 49 49 45 40 33 38 44 46 47 52 49 47 43 37 36 38 42 41 44 46 49 50 54 59 61 63 64 67 68 74 76 70 65 60 57 52 46 46 55 63 66 70 76 77 87
44 48 50 51 53 47 44 39 37 34 34 41 46 51 56 55 53 46 40 43 47 50 54 58 61 63 64 70 69 69 73 76 81 88 85 77 68 62 56 53 51 57 66 72 77 79 77 78 90
48 50 49 50 52 52 48 45 37 33 39 40 39 45 48 53 56 54 51 50 49 56 59 63 71 71 67 73 68 71 77 83 87 89 81 78 70 62 58 61 60 66 77 84 82 85 83 80 86
45 47 50 51 52 50 47 45 36 35 37 39 41 41 43 46 50 50 52 53 53 56 58 59 68 70 72 78 81 76 79 83 86 84 79 78 76 59 62 69 77 79 85 88 85 87 86 87 75
45 46 52 48 49 44 45 42 31 33 36 37 38 40 38 41 45 43 46 52 55 57 58 61 63 63 71 77 84 86 84 81 75 77 78 81 68 67 75 72 82 88 90 86 83 93 90 83 70
48 48 47 54 58 56 42 36 32 33 33 40 39 40 41 30 33 38 41 48 51 49 47 52 50 52 60 76 80 74 71 60 70 80 85 69 73 80 81 84 91 94 96 89 89 94 88 75 72
48 50 52 54 54 52 43 38 35 35 35 35 36 34 34 33 27 25 25 27 33 37 40 43 41 43 50 57 61 60 63 68 75 80 80 79 84 86 89 94 96 96 97 95 89 88 82 79 76
52 50 50 49 49 50 49 39 33 34 33 32 34 35 32 30 29 31 27 25 25 27 30 33 37 42 46 57 58 65 68 73 82 85 86 89 88 90 95 97 94 95 91 84 90 87 79 79 78
47 46 48 56 52 53 51 40 31 31 36 36 36 33 31 29 28 29 35 33 29 30 34 36 43 46 52 59 67 73 74 78 80 86 93 94 94 98 97 97 98 90 93 90 81 82 86 83 76

GFSSGP_prec_cthk_066.txt.gz
RH
16 16 18 22 25 24 27 32 28 30 52 54 49 58 65 73 72 71 66 62 67 71 70 66 67 68 67 67 68 69 67 58 49 47 42 31 29 25 23 22 22 21 19 19 20 21 21 21 21
17 18 23 25 25 30 27 31 32 44 45 59 56 51 58 81 76 72 75 69 70 72 73 75 68 68 71 70 70 66 61 56 48 41 37 29 30 29 27 25 25 20 20 22 23 23 24 24 26
19 21 26 29 29 30 30 34 35 44 44 61 69 71 75 81 70 70 72 72 70 74 75 75 71 70 68 65 64 63 59 52 41 36 36 31 34 30 28 27 27 22 22 24 25 26 28 30 30
23 24 24 27 35 35 40 42 44 52 51 56 61 75 82 75 75 71 69 71 76 84 83 76 75 76 73 68 67 65 58 48 41 38 40 39 38 32 28 30 31 26 28 27 29 31 33 34 37
24 27 28 30 33 39 49 54 53 58 52 52 62 68 80 76 77 75 69 80 87 87 96 87 84 82 77 74 74 67 58 48 42 47 44 44 38 32 32 33 34 32 30 31 35 35 38 40 45
27 28 33 32 34 45 50 54 58 56 57 57 63 67 70 72 68 75 80 90 80 96 97 92 91 90 84 84 82 73 64 52 48 47 48 42 36 37 37 40 42 38 36 37 38 40 44 52 53
27 33 37 33 39 45 53 58 58 57 52 62 64 66 70 68 70 77 83 89 89 88 94 93 98 98 96 90 82 74 63 53 50 50 52 47 42 47 49 41 41 37 38 40 41 47 54 55 56
26 32 36 33 40 44 50 56 60 58 54 56 58 66 71 72 67 74 77 81 85 88 91 90 95 99 96 93 81 67 62 58 58 55 52 50 55 49 42 43 41 40 41 42 51 56 58 59 56
28 35 39 37 37 42 51 54 59 61 59 54 59 60 65 67 70 78 79 82 86 89 89 90 92 98 97 87 83 75 66 62 58 55 59 55 46 48 48 45 48 45 43 51 56 59 61 64 62
28 35 38 39 38 38 42 49 54 56 57 57 57 59 62 65 69 74 83 83 81 80 86 90 97 88 91 83 76 78 73 67 68 69 52 46 53 54 46 43 41 45 51 58 61 65 65 61 58
31 31 40 40 41 41 44 54 57 54 53 57 61 65 66 68 70 74 77 80 83 86 86 88 95 96 86 89 84 80 86 86 69 51 54 53 49 46 45 46 48 55 63 65 68 70 67 61 52
36 36 33 39 44 45 49 55 56 55 56 58 57 64 71 74 73 75 75 77 81 84 88 91 94 94 94 92 89 92 80 72 58 53 49 48 48 50 47 52 56 65 69 72 67 66 62 60 48
39 43 44 41 46 47 51 52 54 58 62 59 56 59 69 77 79 79 82 84 86 89 94 95 98 96 94 92 87 77 72 61 53 49 50 53 49 46 50 56 62 69 76 73 65 61 56 51 44
45 47 51 50 50 53 51 52 53 60 61 64 61 69 81 80 82 79 83 91 93 95 99 95 97 92 86 78 67 56 49 51 52 54 51 49 49 53 55 60 68 75 71 66 61 57 51 42 37
43 47 50 53 55 51 47 48 55 55 63 65 68 65 69 72 93 92 95 92 94 95 95 94 94 86 78 70 56 51 52 49 46 45 43 52 62 64 67 69 81 75 67 57 56 55 43 39 36
41 40 49 54 55 54 51 59 51 59 63 68 75 68 69 66 73 78 88 79 76 59 59 60 79 77 69 55 45 38 40 43 41 43 59 65 70 66 74 84 76 69 60 55 55 50 40 37 38
40 45 47 50 54 55 56 55 53 60 66 61 67 66 58 62 67 72 72 66 65 61 58 59 58 53 46 42 36 33 34 35 50 61 71 71 76 78 84 76 67 60 55 55 52 44 36 39 38
40 38 41 50 56 52 57 54 53 55 57 53 57 59 58 48 50 55 61 59 54 57 60 58 53 56 45 34 31 39 51 59 63 66 70 75 77 81 74 65 56 55 54 52 47 36 38 41 42
41 44 49 50 48 49 53 49 47 51 51 50 53 54 49 46 42 41 45 52 50 51 48 47 48 55 58 55 54 54 56 57 56 58 68 71 76 81 68 57 55 55 53 49 37 37 41 46 52
43 46 48 48 47 45 47 43 41 45 51 51 47 45 44 44 46 47 47 50 54 56 58 61 62 60 56 56 53 53 54 56 60 63 75 73 75 78 62 60 58 54 50 42 39 42 50 57 60
45 49 48 46 46 45 43 41 43 45 44 47 44 43 44 44 42 46 45 47 50 49 50 53 54 57 58 61 59 59 60 63 63 65 77 82 82 72 67 65 57 56 49 43 46 51 60 67 68
45 45 46 44 43 48 40 40 34 36 37 39 39 39 38 40 39 39 40 39 42 45 46 50 51 54 54 55 59 60 63 66 68 70 77 81 81 78 72 68 59 54 50 49 53 62 70 72 74
45 43 45 46 48 44 42 39 40 32 34 35 40 48 45 44 45 40 39 37 40 42 45 47 52 55 57 56 59 65 71 76 75 72 78 85 89 87 80 75 62 55 58 60 62 70 76 76 78
44 46 46 47 49 50 44 41 39 38 34 38 38 39 44 51 52 51 48 46 45 48 51 55 58 63 72 71 70 72 74 77 79 80 84 90 93 89 80 75 74 62 65 68 76 81 82 86 80
45 47 49 51 49 47 40 37 37 32 32 35 39 45 47 46 49 56 56 55 49 48 54 56 61 66 72 76 73 77 82 80 80 82 83 85 87 83 87 88 76 69 74 73 83 87 85 89 89
46 46 50 46 43 40 38 34 35 27 27 32 38 39 44 43 45 52 58 57 58 58 59 56 62 63 68 69 75 79 87 82 84 80 79 77 78 85 87 77 74 78 78 81 87 91 90 93 94
49 46 46 50 49 45 38 34 31 28 27 29 30 36 43 44 43 44 52 56 57 59 64 58 56 63 67 60 66 67 83 70 72 69 80 75 83 92 90 80 82 82 83 91 95 93 97 95 87
47 48 49 48 54 48 40 37 34 32 29 28 29 32 36 41 43 37 37 47 50 51 55 59 58 54 54 51 51 59 59 72 75 79 83 87 94 96 86 87 89 88 96 97 98 98 97 93 95
47 47 49 51 47 49 46 39 35 33 30 32 31 31 33 32 35 34 36 34 32 36 41 46 50 51 49 50 52 54 64 65 72 76 84 93 98 96 92 93 95 96 97 97 98 99 98 95 90
47 49 49 49 50 48 49 40 33 33 33 33 32 32 29 30 32 32 33 38 38 38 38 40 43 46 49 52 58 60 60 70 78 81 87 92 93 93 98 97 98 98 94 97 98 98 96 95 89

GFSSGP_prec_cthk_069.txt.gz
RH
13 14 16 20 24 29 26 23 28 28 31 52 47 38 29 46 78 70 96 72 63 53 62 60 62 63 67 67 66 66 66 64 59 50 46 34 26 24 26 23 23 24 25 23 22 22 22 23 24
18 17 20 25 28 25 25 30 31 32 47 62 57 52 37 51 86 79 88 76 75 62 67 63 67 69 70 70 69 69 70 67 55 50 43 31 25 26 29 25 27 27 28 27 24 25 27 28 28
17 19 25 40 33 27 28 37 34 37 63 53 52 43 44 45 61 69 63 73 82 72 69 66 71 74 74 75 72 72 74 63 53 47 38 30 32 32 32 30 29 30 30 28 28 29 32 32 31
20 23 25 23 28 33 30 38 48 55 49 42 46 75 56 68 56 60 71 72 76 81 79 74 75 81 79 77 73 73 64 62 52 41 36 38 39 37 33 32 33 35 34 30 34 34 36 35 35
22 26 31 30 26 29 40 51 49 58 45 67 54 50 52 58 61 75 86 78 85 83 87 79 78 81 78 77 74 67 66 61 49 40 39 42 43 41 37 35 36 37 35 36 41 38 40 40 41
26 29 33 32 35 36 43 56 58 60 59 72 52 63 61 80 80 82 85 82 85 93 97 95 89 88 86 76 70 69 65 59 50 42 43 44 45 42 38 38 38 40 42 45 41 43 44 46 49
24 35 34 30 27 35 51 54 55 59 59 72 60 69 73 72 72 78 85 80 85 87 82 93 90 97 91 86 81 71 61 57 50 49 46 53 50 46 42 45 45 46 50 48 45 48 49 55 52
22 27 32 32 32 42 52 43 54 56 70 51 59 72 80 71 69 75 80 77 85 85 87 82 89 98 98 96 84 73 65 60 51 50 50 54 51 49 51 52 52 51 48 51 49 53 58 57 56
22 31 36 38 32 47 42 43 57 49 57 62 60 62 67 67 66 72 78 74 75 82 90 89 94 98 91 89 87 71 65 57 55 54 57 59 55 57 56 53 48 50 52 56 52 57 61 60 55
24 37 41 36 36 36 36 39 57 47 60 57 65 60 60 64 70 75 82 87 86 85 90 94 96 98 93 92 90 89 72 66 63 62 64 62 66 62 50 49 49 50 56 50 57 66 63 62 56
40 36 38 39 39 40 38 46 57 55 55 61 58 66 62 70 71 81 82 82 89 93 91 91 96 95 96 93 85 77 75 72 69 71 69 73 64 59 54 51 54 49 54 64 67 67 65 65 57
32 44 42 39 38 40 46 54 51 54 61 53 56 53 58 66 77 82 84 83 87 88 88 94 93 93 97 96 84 80 79 79 81 80 74 67 67 63 52 49 50 58 67 70 72 67 61 55 46
37 48 40 37 34 36 41 50 48 61 58 57 53 52 61 69 70 75 82 83 81 83 86 90 95 93 96 92 85 89 91 90 84 72 72 72 67 62 57 56 57 64 69 75 73 61 57 48 38
52 41 45 38 39 43 42 55 47 74 56 55 54 55 60 62 68 77 84 92 90 82 87 92 93 96 93 93 93 90 87 81 74 68 67 68 64 58 61 59 65 69 75 76 67 56 54 41 37
36 36 68 63 56 55 37 46 54 63 48 59 60 57 67 61 70 84 84 87 86 94 97 94 97 96 96 94 90 83 76 69 70 66 62 61 59 53 59 62 68 76 82 69 60 57 51 41 36
36 47 47 56 48 49 39 75 82 58 50 59 65 66 70 62 63 85 89 93 99 96 97 97 93 92 88 85 66 60 65 67 63 62 59 54 54 67 68 70 78 85 73 64 60 54 50 39 37
45 40 46 45 52 50 48 53 64 56 56 59 61 74 63 66 66 69 72 69 71 79 89 86 83 84 84 74 65 60 59 59 60 60 56 54 68 73 69 76 89 79 72 60 56 53 48 37 38
44 43 41 38 53 49 51 54 59 56 59 58 52 62 61 58 64 68 67 60 57 57 61 78 85 80 74 63 49 41 40 43 45 51 65 70 76 76 84 88 78 69 59 54 53 50 42 38 40
38 41 43 47 47 42 54 53 52 51 54 49 52 58 53 47 51 50 57 57 54 52 54 55 73 62 59 43 36 38 43 55 65 74 74 72 74 76 77 83 67 60 57 55 50 49 38 39 45
36 45 47 47 43 39 49 46 44 44 43 46 47 43 41 43 43 41 45 50 47 48 50 51 52 62 56 55 54 56 57 58 63 61 62 70 69 71 75 75 64 61 58 57 52 47 42 47 52
44 47 51 46 47 44 42 44 44 36 44 48 50 42 37 36 43 44 44 51 52 55 53 56 57 61 62 62 62 56 57 58 63 66 59 65 71 75 82 79 70 69 66 58 55 47 48 54 59
46 47 41 41 42 63 42 50 45 43 36 42 43 42 40 40 42 41 43 46 49 53 56 54 60 60 62 61 65 60 60 62 69 69 64 67 75 80 83 80 80 74 73 66 59 57 59 62 66
43 43 39 40 42 44 44 34 45 38 37 45 40 47 47 41 45 43 41 38 40 44 46 49 54 56 58 59 60 58 59 65 71 73 74 71 74 80 88 92 90 84 79 74 69 67 67 71 75
42 42 42 42 45 51 46 37 43 45 36 43 46 43 48 53 51 48 49 51 50 45 45 46 50 57 62 66 72 72 70 70 77 81 78 78 76 82 92 90 91 95 88 87 80 72 76 79 83
41 47 56 53 54 49 45 35 34 41 36 34 36 45 44 48 54 53 53 54 54 53 49 50 53 57 67 69 69 77 80 77 78 81 81 81 85 84 88 91 93 95 95 92 80 80 79 79 90
40 46 57 58 56 49 38 30 37 33 28 29 31 35 40 43 48 51 56 58 54 57 53 55 58 62 68 70 76 78 77 78 81 93 80 77 77 82 86 89 87 96 97 93 86 87 84 89 96
47 45 48 56 50 48 41 38 34 29 27 29 27 31 39 42 45 47 54 59 59 57 58 57 61 64 64 68 71 72 70 70 74 74 66 68 74 84 89 91 90 99 97 91 87 92 91 97 97
42 49 50 45 54 59 41 38 37 38 36 29 30 30 32 36 44 48 48 50 55 60 60 59 62 60 61 65 66 65 63 58 63 62 66 75 81 87 93 97 96 98 93 92 96 97 98 97 98
36 44 47 49 53 57 51 40 44 37 35 35 37 33 34 37 39 41 45 47 50 53 56 57 60 63 65 65 64 65 59 59 63 66 76 76 77 87 93 97 98 93 92 96 98 99 98 96 98
48 43 46 52 50 49 50 48 46 41 39 37 34 35 36 35 37 39 37 38 41 43 51 53 55 60 65 68 67 61 65 66 70 75 72 71 78 85 88 96 96 93 97 99 98 97 98 94 87

GFSSGP_prec_cthk_072.txt.gz
RH
11 13 14 16 24 26 32 31 25 28 30 32 27 31 33 31 38 59 60 58 62 97 69 60 61 57 59 59 61 60 60 59 57 48 42 34 27 23 23 27 30 28 26 25 23 23 23 22 21
13 17 17 22 30 35 31 34 33 30 34 29 25 24 28 50 45 47 47 56 67 94 76 64 67 63 62 63 63 63 65 65 59 47 42 33 29 26 26 33 33 29 27 28 28 30 27 26 24
15 18 22 30 39 34 33 33 38 34 45 40 36 36 39 69 50 47 39 53 87 86 74 72 74 74 71 71 68 69 73 71 58 49 39 33 31 29 33 34 33 32 31 32 33 33 32 31 27
18 22 24 28 26 28 30 34 41 44 51 44 67 65 54 64 63 61 54 55 86 87 88 89 86 80 80 78 78 80 79 71 57 47 38 35 34 38 39 38 35 34 35 36 37 37 37 34 30
21 25 31 36 35 33 32 29 36 62 51 50 79 95 69 53 75 63 58 68 82 83 88 88 88 81 88 87 84 84 82 66 55 43 38 39 40 41 43 43 39 39 40 42 41 38 46 42 34
24 29 34 36 37 35 39 34 41 52 57 73 73 76 76 64 76 70 76 78 78 82 95 97 94 88 92 90 85 84 74 66 51 43 40 39 44 43 45 44 40 41 46 46 47 52 52 38 39
22 31 34 32 25 30 42 35 44 59 50 60 46 62 89 91 85 77 75 76 67 89 78 90 98 99 92 98 92 86 75 64 51 44 43 43 47 48 49 47 43 49 52 53 54 56 43 44 46
24 25 31 36 37 30 40 43 44 54 47 43 62 85 72 72 80 74 77 75 82 91 75 71 76 90 99 99 94 81 74 63 51 48 48 50 51 57 52 52 50 54 55 57 58 51 49 53 51
19 29 39 43 41 38 39 41 31 39 41 50 62 64 68 60 67 66 73 70 82 88 83 77 74 83 90 94 89 81 72 60 53 52 55 58 61 62 56 55 54 57 58 58 56 53 56 58 54
26 31 41 43 35 33 33 28 28 43 57 78 73 74 65 63 65 64 66 72 74 75 79 84 81 84 89 89 91 84 72 61 62 60 62 66 65 60 60 61 60 55 58 58 58 53 57 60 57
37 36 38 34 38 37 34 35 41 54 56 59 64 70 54 52 59 68 70 73 75 78 84 89 86 91 96 94 91 87 82 80 73 62 65 70 66 66 65 61 55 54 56 55 54 61 61 57 54
41 30 37 40 34 34 32 47 49 45 70 48 51 55 48 54 58 61 75 73 77 77 84 93 91 91 99 94 93 94 89 76 71 69 74 76 76 71 63 58 55 56 58 58 63 68 63 53 44
38 40 45 37 34 30 30 36 39 44 71 49 43 49 53 55 52 55 65 69 74 76 79 83 86 90 98 95 95 96 89 75 77 76 79 78 78 66 65 61 55 57 60 61 70 67 60 50 37
37 42 36 49 52 44 51 44 48 70 59 58 52 48 48 52 52 56 65 70 73 75 80 81 85 94 99 97 98 93 85 85 82 81 85 86 76 73 70 63 60 60 60 65 69 66 53 46 37
35 26 49 52 52 34 54 50 54 58 81 66 60 61 57 51 52 71 73 72 75 81 82 84 94 99 98 96 95 94 87 87 87 87 85 77 76 79 72 64 65 61 67 71 75 58 51 49 35
32 40 47 44 48 47 58 54 60 54 58 73 58 64 60 50 54 66 80 79 82 80 82 96 95 93 91 91 91 90 91 89 86 76 70 71 73 66 65 62 64 69 79 79 66 55 52 47 36
41 42 46 50 44 48 51 48 50 71 81 73 63 59 53 48 58 59 65 76 84 91 94 94 93 87 77 70 69 65 66 65 65 62 59 55 66 74 63 69 71 77 83 73 61 53 51 46 36
52 44 48 43 49 46 48 50 63 63 72 58 58 55 53 51 57 61 54 59 72 80 82 82 75 72 66 58 59 61 61 59 60 65 60 62 65 62 73 72 74 82 76 65 57 54 52 46 38
40 39 41 43 48 43 39 46 47 49 48 42 49 60 55 50 57 53 56 50 51 54 71 75 75 77 74 73 63 55 47 44 50 50 55 67 74 69 70 78 83 80 66 59 57 56 53 49 40
32 33 36 42 45 38 42 49 48 37 34 31 37 40 45 41 44 47 48 49 47 44 45 57 57 66 57 49 42 39 38 43 47 54 61 63 65 66 67 74 75 74 65 63 61 59 57 54 44
32 38 45 50 47 46 43 48 45 43 44 41 39 38 37 37 41 42 45 44 42 41 43 45 54 55 51 46 48 48 48 48 49 57 57 59 63 67 70 70 76 82 77 70 69 68 67 60 55
40 45 47 40 42 50 41 48 48 46 48 44 52 43 35 34 38 40 42 43 42 38 42 50 51 55 53 54 57 51 50 50 53 56 63 61 60 63 70 75 83 86 85 88 79 77 79 72 66
37 38 43 39 40 43 54 51 44 46 47 52 54 49 45 42 38 44 46 46 45 43 42 44 49 52 52 54 60 58 55 55 54 60 64 72 70 72 72 77 81 85 91 93 93 88 85 84 78
35 38 38 37 40 46 48 42 48 51 43 41 50 50 47 49 49 48 46 46 49 52 51 47 47 52 55 62 64 67 68 71 73 76 79 83 84 75 83 86 88 92 92 92 95 97 93 89 86
35 40 46 57 52 51 50 49 37 42 38 37 41 48 46 46 49 51 51 50 49 51 52 50 50 50 58 63 68 68 69 73 72 75 74 76 80 76 77 82 87 91 93 95 97 92 97 95 90
36 40 52 85 66 53 54 36 26 37 33 28 27 31 42 44 49 52 55 54 51 51 52 55 53 52 59 63 63 68 72 73 74 75 74 73 73 66 69 74 78 88 93 96 97 98 95 98 90
43 39 38 57 62 61 47 47 34 39 34 29 29 35 40 40 42 49 53 57 54 52 49 52 55 56 58 61 64 62 65 68 68 69 66 66 64 65 71 77 83 90 94 97 99 97 97 98 96
41 51 46 47 58 60 40 40 49 46 41 40 31 34 32 34 37 41 53 58 60 56 50 49 53 56 60 60 59 62 64 67 69 64 70 73 67 68 81 76 78 86 92 96 97 98 94 95 97
31 41 50 46 45 50 55 52 50 46 42 42 37 36 36 35 32 34 45 57 65 64 70 69 55 63 67 65 60 62 67 67 70 69 69 71 73 79 79 73 76 79 79 85 93 96 97 97 98
37 35 40 49 47 58 59 56 43 44 44 43 42 35 35 36 36 33 30 37 48 61 67 66 62 62 68 69 67 71 72 79 81 78 79 79 83 82 72 72 74 70 68 72 73 71 70 80 77

GFSSGP_prec_cthk_075.txt.gz
RH
11 13 14 14 21 24 30 31 31 34 39 42 37 36 37 41 48 45 42 46 50 53 78 92 91 74 72 65 63 64 60 58 53 45 39 32 27 26 27 29 29 26 24 23 23 24 24 25 25
12 15 17 23 26 36 36 36 38 44 44 43 39 36 39 43 43 42 39 37 40 43 46 67 96 86 78 70 72 69 66 62 54 46 37 31 29 30 33 29 28 25 25 27 28 27 26 27 28
14 18 23 25 32 37 37 38 44 42 47 46 47 48 48 52 49 54 50 39 34 35 43 55 96 94 84 75 76 71 67 63 53 44 36 33 33 38 35 30 29 25 28 31 31 30 29 30 32
17 21 26 28 34 32 37 44 44 43 45 41 46 50 48 57 57 61 67 51 49 42 42 61 76 91 85 83 79 74 70 64 54 43 37 34 36 40 39 33 33 31 31 34 35 33 31 31 33
20 25 27 33 39 34 38 40 41 41 43 43 52 57 47 53 57 62 81 68 69 59 54 62 98 83 89 88 80 77 72 64 53 41 35 34 39 41 41 37 40 40 37 37 40 39 34 36 42
20 23 33 35 38 37 39 34 35 42 48 55 50 49 54 56 56 65 82 80 81 76 78 85 98 97 91 95 87 82 79 63 50 40 36 39 42 44 41 41 44 43 42 44 46 44 42 43 42
23 26 29 30 32 39 44 42 37 39 48 58 58 66 63 56 61 82 86 83 82 86 91 87 88 96 98 94 89 88 79 66 49 40 40 42 43 46 46 46 47 47 48 50 54 51 50 43 35
21 26 28 29 37 40 39 40 38 34 40 53 61 89 91 60 54 78 87 82 80 80 76 83 85 92 98 99 98 91 78 67 48 42 45 46 46 51 50 52 57 58 59 58 56 56 51 39 45
21 28 30 36 41 37 37 36 33 33 36 56 70 65 71 66 64 66 71 71 79 92 92 84 82 78 88 98 98 92 78 63 49 48 50 51 51 56 55 59 58 63 63 63 64 59 53 47 46
25 29 31 35 36 34 33 34 38 44 45 57 60 54 54 65 62 59 62 63 72 83 82 84 81 80 86 84 94 90 74 60 55 54 55 55 55 58 63 62 63 64 64 67 61 58 54 52 51
33 32 30 32 34 33 29 29 41 50 52 53 60 58 51 61 54 52 57 65 68 74 81 81 86 88 90 86 93 89 76 66 63 61 60 60 59 64 66 63 65 65 64 63 63 57 54 55 50
36 40 36 29 34 36 32 25 31 42 51 63 73 51 47 50 48 46 51 59 65 69 76 76 82 88 86 95 94 85 85 84 73 69 70 68 67 70 67 67 66 63 66 62 59 59 61 58 47
35 43 37 35 38 42 43 34 34 36 49 64 79 73 44 43 46 47 51 57 63 67 71 74 79 85 85 94 91 90 85 75 73 73 74 71 72 70 69 65 64 67 65 63 62 66 68 58 39
33 34 29 35 41 44 40 34 36 47 62 71 91 69 57 47 46 52 56 58 67 67 70 71 76 83 82 89 90 85 82 86 83 79 79 75 74 70 67 66 65 65 66 68 62 72 66 53 37
30 31 35 39 48 47 37 46 50 59 62 71 76 70 54 44 51 63 64 62 68 74 76 77 76 82 88 95 94 88 89 86 84 83 83 79 72 69 68 66 63 63 64 62 69 76 65 50 42
35 35 37 39 44 48 40 49 49 64 60 61 88 67 57 45 50 57 62 68 72 72 75 77 79 85 89 93 89 88 87 85 86 85 81 73 71 75 70 65 62 63 63 68 82 80 59 48 44
39 43 45 44 46 48 44 51 57 58 57 59 58 67 54 48 48 54 61 71 72 72 73 75 87 89 89 91 90 89 89 83 81 77 73 74 71 71 65 62 62 69 72 82 85 72 56 49 46
39 44 44 47 46 52 48 50 44 47 52 55 57 61 51 53 47 48 56 62 71 79 83 84 81 76 73 72 70 70 68 65 63 65 61 60 62 64 68 66 73 74 78 84 76 64 55 50 49
41 45 43 41 47 52 46 44 45 45 48 53 53 58 52 51 46 43 47 53 64 70 69 63 53 51 51 49 49 48 51 51 57 56 56 57 60 60 69 68 76 78 82 78 68 60 56 52 48
44 40 35 38 49 45 43 41 41 47 46 43 42 53 41 39 40 37 41 41 44 47 50 54 54 48 39 36 36 40 40 43 47 48 53 59 66 66 60 62 71 75 77 77 69 63 59 58 55
42 36 34 37 44 45 45 43 44 43 46 47 43 44 45 37 35 35 33 34 34 33 38 42 45 44 41 42 41 41 44 41 43 47 49 54 57 57 60 66 69 73 76 79 81 78 76 74 70
37 38 42 41 43 42 45 51 47 50 48 45 48 47 45 41 36 40 41 38 33 29 31 36 40 39 38 37 37 37 38 41 40 41 44 48 57 60 60 61 63 70 76 79 83 87 92 93 86
32 41 41 41 44 37 43 57 51 45 50 46 49 50 48 48 40 40 42 43 43 42 39 37 40 42 43 42 42 47 53 50 53 56 54 59 69 71 74 73 77 75 77 82 86 93 94 91 92
30 37 38 38 40 45 43 60 48 45 42 42 37 44 45 46 44 42 42 45 45 46 45 44 43 43 47 51 55 61 65 64 57 66 70 69 74 86 85 75 78 85 86 89 89 91 95 94 96
35 35 48 57 52 53 49 55 44 43 38 37 41 39 41 44 45 46 48 44 44 45 47 46 45 45 47 53 59 69 69 68 70 66 69 73 73 80 90 85 75 73 76 82 83 90 91 95 95
34 37 55 61 65 63 54 47 38 35 36 40 42 42 42 43 45 43 42 49 51 46 43 48 50 51 53 59 66 69 71 67 61 61 61 64 71 75 78 75 72 73 79 81 83 88 90 94 99
35 40 37 59 60 74 61 49 46 45 41 39 37 31 37 39 40 42 42 44 45 50 48 45 45 51 53 53 60 64 63 61 60 58 57 61 67 81 81 72 73 82 86 79 82 84 85 87 92
33 39 51 55 70 77 57 51 54 45 43 41 36 36 32 38 44 44 44 41 42 46 51 48 55 48 46 49 50 57 60 65 63 62 59 64 83 76 75 76 79 88 77 74 77 80 72 76 86
37 40 47 53 60 63 59 53 40 47 46 41 41 39 36 34 31 29 43 49 47 50 51 54 66 68 68 57 59 58 54 59 69 68 72 84 90 83 84 80 84 81 72 75 77 73 66 66 63
37 37 49 62 59 58 58 50 40 46 45 42 43 42 41 39 34 29 26 39 50 56 66 61 58 59 60 49 71 75 65 74 93 96 96 87 91 84 73 80 84 76 79 80 72 64 62 64 66

GFSSGP_prec_cthk_078.txt.gz
RH
13 13 14 14 17 25 32 32 33 36 48 50 45 44 44 45 46 51 50 52 59 62 67 65 69 86 81 76 65 59 61 63 57 47 40 35 28 25 24 26 29 28 25 22 21 24 25 26 25
14 14 17 21 27 33 33 34 42 42 42 44 44 45 46 48 49 51 51 48 54 59 64 68 55 69 89 81 75 67 66 66 56 46 37 34 31 29 30 29 28 24 22 24 27 28 28 29 26
15 18 22 26 32 37 37 35 43 47 45 42 40 38 39 52 53 57 57 59 59 56 65 67 59 47 81 87 83 74 71 70 55 43 35 34 33 31 34 30 27 25 25 25 28 31 33 34 31
17 19 23 27 30 34 38 42 52 53 47 46 44 45 52 53 54 57 59 60 59 60 53 62 55 51 62 84 85 80 77 72 54 42 37 37 36 35 34 33 30 30 30 28 32 35 38 33 32
20 21 26 29 31 31 36 35 52 52 45 46 47 52 49 48 57 65 72 72 69 63 59 58 62 55 68 74 88 82 82 76 54 42 39 38 39 37 36 36 35 36 39 34 35 38 42 38 35
19 21 28 30 29 31 44 47 50 49 45 44 41 42 42 48 54 67 75 78 73 78 82 86 85 83 94 97 86 86 91 76 53 40 40 42 43 38 37 39 38 41 44 40 37 41 44 44 43
21 22 26 27 31 32 44 42 43 45 42 38 39 43 46 56 52 61 67 73 78 83 97 97 96 93 94 93 90 89 92 74 47 40 42 43 42 40 42 43 43 46 47 44 42 41 47 52 49
21 22 25 33 34 36 42 42 42 38 40 41 47 46 49 52 50 57 68 73 82 92 94 91 90 87 87 99 97 87 90 68 47 43 46 45 44 43 47 47 48 51 56 55 58 51 48 49 44
22 26 28 32 31 35 40 36 39 42 47 48 50 51 58 43 52 58 63 74 79 88 90 91 85 91 91 99 98 98 89 64 47 47 48 50 48 48 51 52 53 56 61 61 61 58 52 50 42
24 25 27 29 30 33 37 37 42 48 45 44 50 50 61 45 49 53 61 72 71 79 83 89 85 87 87 93 96 96 81 60 51 54 51 53 54 52 51 54 59 64 66 64 64 60 53 48 45
26 27 27 27 32 33 39 43 45 45 46 45 47 55 60 48 44 50 55 62 72 71 74 77 81 80 81 85 86 91 73 62 57 58 56 57 58 55 56 60 65 64 68 63 63 57 57 53 45
25 27 33 32 36 35 36 46 46 48 45 46 52 61 64 45 48 49 52 58 67 72 73 77 77 77 82 81 87 91 82 73 66 63 61 59 62 57 59 63 66 67 68 65 62 60 57 53 48
25 29 29 33 37 40 41 48 53 57 60 60 60 63 60 47 48 50 57 63 68 73 72 76 78 82 82 77 81 85 83 80 71 75 72 67 65 64 62 66 66 67 67 66 61 60 58 58 51
21 26 26 34 37 40 41 53 51 58 66 62 60 63 54 46 43 53 68 70 66 70 71 69 78 80 81 75 80 79 80 75 82 78 72 67 68 67 67 67 65 63 66 65 60 60 62 64 52
22 27 29 34 41 40 46 51 55 59 60 58 55 68 50 47 41 47 64 73 79 76 72 72 75 72 75 76 81 82 78 85 83 74 72 73 73 73 69 66 60 63 65 64 60 62 67 63 54
26 29 35 37 40 43 43 49 55 54 57 58 52 50 55 52 42 44 57 69 72 77 72 73 78 77 77 84 84 85 85 83 78 75 78 77 79 76 67 61 61 61 62 62 61 67 72 65 52
28 36 39 40 40 43 47 49 47 53 50 50 46 45 47 53 48 44 51 67 70 74 75 78 77 82 83 90 87 83 85 82 82 83 81 84 80 71 63 64 59 57 60 61 66 77 74 64 47
30 43 39 39 40 42 53 47 51 54 48 45 46 47 47 49 46 48 52 65 76 79 81 79 86 90 89 88 82 83 88 88 82 83 83 78 72 68 62 57 56 60 65 67 74 79 73 58 50
36 42 40 37 38 43 46 46 48 57 53 45 40 35 39 45 41 40 48 64 68 73 77 75 72 73 76 77 75 74 74 70 64 69 68 65 64 62 59 61 63 67 70 72 75 74 68 58 56
39 42 38 35 37 41 42 43 45 53 52 44 42 38 34 33 38 31 35 42 54 60 61 59 56 56 59 62 60 59 57 56 57 56 59 62 62 60 58 56 60 64 67 70 74 75 71 68 68
39 39 39 39 39 41 38 41 38 44 49 46 44 37 38 35 34 28 27 29 35 41 44 46 43 37 40 44 46 45 45 43 43 45 46 49 48 53 54 52 57 59 63 69 76 77 77 77 82
39 36 45 44 43 45 39 43 41 39 46 49 47 47 43 43 42 41 36 31 27 29 32 34 35 33 34 32 34 34 34 35 38 41 42 45 46 49 52 54 55 56 61 64 73 78 82 87 86
34 40 45 43 41 39 39 40 41 43 46 49 50 48 48 46 46 39 38 37 36 31 31 32 34 33 32 32 32 33 37 41 44 46 44 44 48 55 59 64 66 69 73 77 82 80 84 91 95
35 40 43 45 42 46 38 39 44 43 38 43 42 38 44 48 52 44 37 40 39 40 38 34 34 36 37 37 39 43 44 47 46 48 51 51 54 60 70 75 72 66 67 72 78 83 85 82 88
38 45 48 53 55 49 45 46 42 37 36 40 42 37 43 46 50 51 43 42 42 39 40 40 40 41 43 46 47 51 56 58 61 62 61 60 58 61 65 77 88 79 74 74 74 79 78 78 86
37 42 52 53 56 53 46 45 39 33 32 36 38 40 39 46 47 47 45 48 50 47 42 41 42 43 45 47 47 51 59 60 62 62 62 60 58 60 64 69 81 85 77 72 81 83 77 77 84
39 44 40 51 53 60 55 52 44 39 36 37 38 43 45 42 42 43 43 44 52 55 52 45 43 41 41 45 48 50 53 60 62 65 70 57 59 61 67 76 86 87 80 80 88 85 74 75 73
42 37 48 53 67 64 55 57 51 41 41 38 36 40 44 39 42 45 46 46 45 49 57 62 59 51 50 45 44 47 50 53 63 73 69 68 64 69 81 91 95 94 92 95 91 77 76 80 76
47 40 47 49 56 62 57 55 50 45 42 39 37 42 40 42 38 41 38 38 41 43 49 56 58 59 66 67 67 63 57 61 67 71 78 85 88 92 89 97 94 94 94 91 84 77 81 75 65
42 36 39 56 55 55 60 46 44 41 37 37 39 39 36 34 37 36 37 32 30 36 44 55 66 72 74 65 61 62 61 74 80 85 89 87 93 95 84 82 93 94 90 83 83 86 79 70 60

GFSSGP_prec_cthk_081.txt.gz
RH
13 14 15 15 17 26 30 30 31 35 41 42 44 45 44 49 47 48 47 50 60 69 69 66 69 71 72 63 67 69 63 65 64 60 47 44 37 30 26 25 25 28 27 25 23 21 22 24 24
14 17 17 18 27 32 32 31 34 37 44 46 47 47 47 49 45 46 47 47 50 60 66 70 74 71 66 62 60 73 68 61 60 59 46 42 37 31 29 30 30 27 24 24 24 26 27 27 28
17 18 18 24 32 35 33 31 30 36 43 47 49 47 47 48 48 49 48 51 52 58 60 61 68 63 59 57 59 65 72 68 61 57 43 40 36 35 34 32 28 27 28 29 27 27 28 32 30
19 18 18 26 31 32 33 30 29 35 43 47 49 47 43 44 49 49 53 59 59 60 61 65 69 69 67 54 61 76 80 76 63 53 39 41 41 40 36 33 30 30 31 31 30 30 33 35 36
20 18 22 27 30 31 32 30 30 36 45 47 48 44 45 49 54 58 61 71 68 69 65 71 81 75 68 59 63 66 80 82 63 64 42 44 43 40 37 36 35 34 35 35 36 35 34 36 40
19 18 22 28 30 34 30 29 40 41 42 45 46 46 47 52 58 62 66 77 85 84 78 82 83 83 75 69 70 67 71 85 68 54 43 45 43 40 39 40 40 39 37 38 39 38 37 38 40
18 20 22 29 34 36 31 32 37 41 43 42 42 42 44 60 56 56 60 76 86 85 89 85 91 96 97 97 95 91 91 87 60 47 46 46 45 43 44 46 43 43 43 42 43 40 41 42 42
20 22 23 33 33 33 32 37 38 41 42 43 45 41 46 54 58 54 59 74 80 86 89 86 86 84 92 94 97 96 90 89 64 52 46 47 44 43 46 46 48 47 43 45 47 50 45 47 46
21 22 29 33 32 29 32 34 36 40 45 43 41 41 46 58 60 49 53 65 79 91 93 95 95 93 96 93 86 98 94 88 63 58 51 46 46 48 49 49 51 52 49 48 52 57 54 52 49
23 25 28 29 30 28 29 35 39 43 41 42 38 41 48 53 62 48 49 57 72 80 89 92 95 95 95 90 89 99 96 91 69 55 53 48 50 53 52 53 58 57 58 58 60 60 57 55 47
24 25 27 25 29 28 33 40 41 38 44 48 51 52 59 64 61 45 42 49 60 67 82 92 89 93 89 99 98 98 97 91 73 53 57 51 54 58 55 56 59 60 63 66 65 62 58 50 42
23 24 25 26 29 34 41 43 43 41 42 46 52 61 70 71 64 46 38 45 59 63 78 83 87 93 92 88 92 92 91 74 62 59 61 56 57 59 60 58 60 61 64 69 67 64 57 50 42
22 20 23 27 33 39 41 41 39 43 48 54 60 66 70 70 54 42 38 53 66 68 81 81 84 88 86 92 97 92 85 72 63 72 66 70 64 59 62 61 62 65 69 69 66 66 60 51 44
23 22 23 27 37 40 44 45 43 41 48 55 54 58 55 52 49 36 42 61 66 68 87 80 82 85 81 83 91 91 90 83 81 76 76 77 66 64 66 65 67 69 70 69 67 67 61 54 48
22 20 25 27 37 44 42 42 41 41 51 52 49 47 51 49 43 38 45 63 66 64 73 74 81 77 83 83 86 91 88 87 84 89 83 82 73 72 67 67 66 69 69 68 66 64 62 57 56
22 22 30 32 42 47 43 40 38 40 45 47 47 43 44 45 42 44 53 63 71 69 79 73 78 87 92 90 91 91 85 86 90 85 83 79 76 69 69 69 70 69 65 67 65 63 64 67 64
23 26 32 37 41 45 47 42 36 40 42 49 48 43 42 42 43 46 60 63 70 70 71 79 81 82 88 86 90 91 87 81 73 81 80 78 73 72 72 73 68 64 62 63 63 61 70 75 70
27 26 37 38 40 43 48 43 41 42 43 48 48 38 37 36 40 45 60 61 73 76 76 76 83 84 92 92 95 86 81 79 79 83 79 75 72 75 76 72 65 61 57 60 63 67 78 81 76
32 29 35 37 37 39 45 43 42 40 45 45 48 37 30 29 33 39 53 60 71 81 78 82 87 89 92 91 91 89 84 81 84 83 76 77 77 74 70 66 65 61 59 65 69 76 82 80 74
34 32 35 39 37 36 43 44 42 41 42 41 40 42 35 28 27 30 36 58 63 62 66 68 73 78 85 88 90 87 82 81 81 77 75 79 69 65 67 68 66 64 67 70 72 79 81 80 82
30 29 36 38 39 37 45 43 41 38 41 43 40 41 39 38 37 37 34 38 50 52 51 50 52 59 65 66 64 67 70 67 67 64 68 66 65 68 64 63 63 65 70 69 71 75 80 84 84
34 31 36 37 41 43 44 49 41 37 40 44 45 45 43 38 43 37 41 32 31 36 41 39 36 42 44 51 48 50 53 55 51 50 55 57 57 56 56 59 59 59 63 62 66 75 81 88 84
35 41 40 40 41 41 42 48 37 38 43 43 44 44 44 42 42 40 35 34 35 29 27 29 30 32 35 39 42 43 43 46 44 44 45 47 50 51 51 54 55 59 62 65 69 77 82 89 89
42 46 43 42 41 45 43 48 34 36 33 37 34 39 40 41 43 42 37 35 33 36 33 29 27 27 29 34 38 39 44 46 49 49 47 49 51 51 52 57 66 72 73 78 73 79 86 87 88
46 48 54 51 50 44 45 46 38 37 33 30 31 34 35 38 40 44 41 38 39 36 34 36 35 34 35 36 37 40 43 46 49 50 51 52 52 52 55 61 68 72 77 79 78 81 84 83 81
47 49 57 49 52 44 44 48 36 36 31 24 26 31 34 37 40 40 41 43 42 45 41 39 38 38 39 38 40 41 47 50 53 54 54 54 55 56 57 59 65 71 74 77 86 89 81 82 81
45 51 43 46 51 54 47 41 33 37 33 31 29 35 37 37 36 38 40 42 45 46 47 46 42 38 39 42 44 45 47 49 53 59 60 63 66 67 63 60 57 62 73 85 96 94 95 90 86
44 48 56 59 61 60 50 42 44 45 40 35 36 35 34 39 37 41 43 47 47 48 53 53 54 51 47 46 46 47 49 53 55 56 56 68 76 80 86 85 78 77 89 93 96 97 96 93 83
45 49 51 52 57 55 56 45 37 47 43 38 36 37 36 43 40 40 39 38 40 48 52 55 60 65 59 58 66 67 66 61 63 64 65 67 72 82 87 92 91 95 97 95 90 94 94 87 83
44 46 48 58 58 55 51 42 33 46 48 43 37 36 39 39 40 36 37 38 36 32 36 43 53 65 71 76 75 69 69 73 74 71 72 79 81 86 87 94 86 76 77 85 89 88 85 86 84

GFSSGP_prec_cthk_084.txt.gz
RH
14 14 16 17 18 24 27 26 26 28 33 41 43 45 45 45 46 45 46 45 54 66 70 74 76 65 68 59 62 58 55 54 63 72 69 68 52 40 37 33 31 31 28 25 22 21 22 24 25
15 17 19 19 25 28 26 27 26 29 33 39 45 43 44 44 44 41 46 46 46 59 63 59 67 73 66 67 66 61 56 56 59 68 63 55 45 38 37 33 32 32 30 26 23 26 26 26 21
17 19 20 23 29 28 28 27 26 30 33 40 42 38 39 42 41 42 47 49 48 55 67 69 65 65 70 66 70 64 58 57 57 64 68 49 40 37 36 32 33 30 27 34 30 29 31 27 25
20 20 19 22 24 27 30 28 27 29 34 40 39 39 38 40 42 41 45 53 56 61 72 89 79 69 64 68 64 62 57 54 54 57 61 54 39 35 34 36 37 32 31 31 33 34 34 32 30
22 22 21 22 25 27 29 29 30 32 33 38 40 40 39 39 41 48 50 54 62 70 71 83 94 82 76 74 75 68 55 52 58 61 50 57 34 36 40 40 40 34 33 34 35 38 37 37 35
23 21 20 22 25 28 30 28 30 34 35 39 42 42 40 38 44 50 50 56 64 74 84 87 90 95 85 79 72 68 58 55 64 63 48 56 37 38 41 43 40 40 38 38 40 41 40 39 39
23 22 20 20 25 28 30 28 33 34 37 40 42 45 39 41 50 50 50 52 69 75 81 88 90 97 93 91 96 84 63 60 62 66 53 59 36 39 40 41 43 43 43 45 45 44 43 41 42
23 24 21 24 27 28 29 29 30 33 40 40 43 42 40 44 50 55 55 54 62 69 77 86 88 92 97 96 97 95 87 79 73 65 54 64 40 38 38 43 52 48 49 48 48 49 45 48 44
25 25 24 24 27 26 27 28 27 34 40 44 44 44 47 54 56 63 62 51 57 67 75 86 87 89 91 95 94 95 96 92 84 69 52 56 37 39 40 47 52 52 52 52 54 51 48 56 50
26 26 23 23 27 27 24 26 30 37 41 45 50 51 56 61 67 67 65 54 49 61 71 88 89 90 86 87 88 98 97 93 93 78 58 55 40 42 44 51 52 54 55 57 57 54 55 60 56
29 24 23 23 25 27 23 27 34 39 41 44 50 57 61 68 71 69 62 54 49 62 61 78 87 93 91 91 95 96 97 98 94 69 57 50 45 48 52 53 55 54 57 58 58 57 59 61 54
28 24 21 21 24 28 28 31 37 39 44 51 53 58 64 70 71 67 52 48 53 62 62 73 81 90 91 88 94 98 98 98 94 86 61 57 48 50 55 60 60 61 62 64 62 60 63 57 51
29 23 20 20 22 29 29 33 38 42 46 51 55 58 61 62 55 51 42 43 64 69 65 79 78 88 93 90 89 98 97 96 96 82 64 58 51 54 58 64 66 67 70 72 69 67 62 56 50
29 24 20 19 23 28 30 32 39 40 47 50 51 55 51 50 50 48 43 54 66 67 70 79 77 87 90 93 98 98 97 94 96 88 65 62 54 63 60 68 68 73 75 75 73 70 65 62 54
31 27 20 20 24 30 30 32 43 41 42 47 47 47 46 48 46 41 50 60 65 69 73 81 79 86 86 95 97 96 96 92 88 90 84 66 67 68 71 70 74 76 80 79 76 69 67 65 60
34 28 24 24 30 33 34 33 36 39 41 45 48 49 48 48 47 44 57 58 68 72 76 78 76 81 88 87 91 93 93 92 93 89 88 80 74 74 75 77 77 80 81 80 76 68 67 67 62
38 34 23 31 32 35 36 35 32 39 44 44 43 45 45 46 44 45 57 63 74 75 78 76 77 81 93 92 92 94 93 88 84 87 90 86 83 81 77 77 78 82 80 80 75 69 68 68 67
43 34 26 31 37 37 35 35 33 40 40 41 42 43 41 40 42 40 55 61 74 74 74 76 75 79 91 94 91 94 93 91 92 90 95 90 87 84 80 79 78 78 77 74 72 69 69 67 77
38 34 30 26 35 36 33 33 32 40 43 43 42 40 38 36 34 36 55 58 76 75 74 73 80 82 89 92 92 94 91 88 90 89 90 93 90 83 80 79 78 78 73 70 66 67 69 75 85
41 36 34 28 32 37 32 30 32 37 40 42 39 39 37 34 31 35 42 57 66 75 78 80 83 93 95 94 94 93 89 89 96 97 96 91 88 82 80 80 78 75 68 63 65 72 76 78 80
44 40 35 32 38 37 35 30 31 33 40 40 39 36 36 38 40 37 30 42 53 54 60 65 76 84 91 97 96 94 89 87 90 91 88 90 88 85 79 77 72 70 66 65 70 73 76 78 81
45 39 32 32 42 46 37 39 31 30 33 38 39 40 38 40 41 41 35 26 32 42 46 49 55 62 69 75 76 78 72 72 78 80 86 88 81 78 79 71 67 64 63 68 67 67 68 72 77
43 41 37 42 48 47 38 45 27 30 34 35 43 44 40 39 40 41 39 35 31 31 36 36 39 46 49 53 54 56 60 61 65 70 75 70 70 70 69 62 58 56 58 59 58 59 67 71 75
44 42 44 53 53 57 40 41 30 29 33 34 36 39 39 38 40 42 41 37 36 37 33 30 29 32 37 40 41 42 46 48 50 49 51 51 52 54 52 52 54 56 57 60 66 73 79 82 87
45 47 60 63 65 58 40 41 27 26 31 38 34 31 31 33 39 44 44 41 38 36 37 37 35 33 35 38 42 42 46 51 52 54 52 50 51 52 52 55 59 62 66 67 73 77 76 77 81
46 47 64 65 65 56 51 46 30 26 29 36 33 29 31 32 35 38 42 43 40 43 40 38 36 37 38 39 41 41 49 53 56 57 58 58 57 57 55 55 55 57 60 64 68 77 85 91 95
46 50 47 59 65 67 56 42 26 25 24 32 32 33 35 34 33 35 38 40 43 43 46 45 42 39 39 41 41 43 46 51 54 54 55 53 52 53 56 60 60 59 57 62 70 77 84 82 99
40 46 55 66 68 70 60 53 35 28 26 29 33 37 35 38 38 37 39 43 44 48 48 49 51 46 44 42 42 43 45 46 49 48 50 53 57 61 72 78 85 90 91 84 84 85 89 98 94
43 44 49 55 61 62 63 55 40 28 32 34 40 40 38 36 36 37 37 41 42 43 49 52 56 58 59 59 52 51 52 54 55 59 66 68 73 77 80 86 91 96 97 88 84 90 96 93 93
43 45 47 54 61 64 57 46 38 30 41 37 37 40 36 38 35 36 40 40 38 38 34 36 48 55 57 65 69 65 69 72 69 72 73 77 76 79 83 89 93 95 95 83 77 76 81 84 84

GFSSGP_prec_cthk_087.txt.gz
RH
15 16 17 18 19 23 24 23 23 23 25 28 33 38 39 40 39 37 38 39 41 50 60 67 76 82 66 63 68 68 67 63 63 65 71 73 65 59 47 34 31 33 34 29 23 19 21 21 22
16 18 20 20 22 23 23 24 23 23 26 30 33 39 41 38 38 38 38 39 42 48 55 57 59 62 75 66 63 64 62 60 61 64 70 75 62 51 38 33 32 33 32 27 24 23 23 21 20
19 21 21 23 25 23 23 24 23 23 26 29 33 36 37 37 37 36 38 42 45 47 54 62 55 57 66 65 70 59 60 59 60 59 64 70 55 46 36 34 33 35 34 31 27 27 23 22 21
21 22 22 22 23 25 24 23 23 26 28 30 33 33 34 34 35 36 37 42 46 53 58 68 83 87 70 73 68 69 58 60 61 57 57 58 64 51 36 34 33 38 33 36 33 32 32 28 22
23 23 22 22 23 24 24 24 25 25 27 31 33 33 35 36 35 37 44 46 48 56 64 70 73 94 97 81 70 70 62 58 58 56 51 60 63 45 35 33 36 40 38 37 37 35 34 27 25
24 24 23 21 22 23 24 24 24 26 28 33 38 38 37 36 37 41 47 47 49 54 71 80 88 86 98 97 88 71 66 57 56 51 54 56 65 47 36 34 40 35 38 42 44 42 39 33 31
23 23 22 21 20 23 23 24 25 26 30 35 37 40 41 40 39 44 47 50 54 59 68 76 84 98 89 96 97 90 73 69 56 49 54 58 64 51 37 37 36 38 42 46 47 46 45 44 39
24 25 26 24 21 21 24 24 22 25 31 35 41 43 44 44 49 54 53 55 59 56 65 78 84 88 93 94 98 95 90 70 63 57 56 58 57 53 36 35 37 43 48 52 51 51 52 47 42
25 27 27 23 22 21 23 26 23 24 34 38 39 42 47 50 56 60 61 60 61 58 69 70 85 86 93 94 95 98 96 90 81 64 58 60 60 62 36 36 40 49 53 54 54 56 54 49 45
26 27 26 23 21 22 21 26 24 25 35 39 39 43 50 56 55 57 62 59 56 58 67 66 79 88 91 90 96 96 98 97 91 78 66 62 60 61 39 38 45 51 55 58 59 58 55 53 53
27 26 26 25 20 22 23 26 27 32 34 37 39 44 52 54 58 62 61 57 49 54 57 63 74 87 91 94 96 95 98 98 96 89 77 62 58 55 39 41 52 54 58 60 62 62 59 55 55
28 28 27 24 20 21 24 28 32 36 35 36 39 45 49 53 56 55 48 42 41 56 64 63 74 86 91 96 97 95 93 97 99 95 77 61 59 56 44 46 51 55 60 60 65 62 61 58 58
28 28 28 24 18 19 23 28 29 32 36 35 41 45 46 47 45 46 46 39 47 62 73 72 80 82 91 95 95 95 94 98 98 93 80 66 64 60 48 50 52 58 59 64 66 64 63 59 56
29 30 29 25 19 18 22 26 32 34 35 39 43 42 43 44 44 45 42 44 54 66 66 74 80 85 90 92 94 95 97 100 97 89 80 69 54 49 50 53 55 61 66 68 66 68 66 59 56
32 33 30 25 21 19 23 31 34 36 38 41 45 47 48 46 43 43 43 47 54 66 69 78 80 86 90 88 92 95 98 99 95 89 76 70 62 61 58 61 64 69 71 74 72 74 69 64 60
36 36 34 24 24 25 29 34 37 36 41 40 43 46 47 42 39 40 43 52 56 66 74 75 81 88 91 92 93 98 99 99 97 90 78 75 71 69 65 72 78 77 79 77 77 75 73 70 66
37 38 37 27 27 27 31 31 35 35 41 42 42 41 41 41 39 39 45 53 61 68 76 81 84 84 91 97 98 99 96 98 96 92 83 77 77 73 76 81 85 86 84 84 82 81 78 76 73
39 42 36 32 28 29 31 29 31 36 40 42 40 41 36 38 36 35 47 55 68 71 68 78 78 88 93 97 97 98 97 97 95 93 91 84 82 80 87 85 88 89 88 85 83 81 79 78 77
40 40 35 33 29 29 30 29 31 33 38 42 40 40 36 34 34 33 44 55 70 74 79 80 74 81 90 94 96 95 97 97 96 95 88 87 81 86 85 85 83 84 83 82 81 81 79 77 74
44 42 37 33 33 31 32 28 29 32 35 37 38 39 36 36 35 32 34 51 64 70 72 72 76 81 82 92 92 94 96 98 97 94 90 94 90 89 88 83 83 82 81 79 75 75 74 72 72
47 45 41 37 35 34 34 30 28 30 34 36 38 34 37 33 36 39 28 39 52 59 64 72 79 81 85 90 94 94 93 92 93 96 96 91 90 88 84 85 83 81 79 79 72 66 66 74 79
46 44 43 40 40 36 39 37 27 28 28 32 34 35 37 37 36 38 38 29 36 44 49 56 67 79 86 91 96 96 90 91 91 91 91 94 92 90 87 85 79 74 75 74 67 65 71 76 77
46 44 44 43 41 40 39 41 27 29 29 28 31 37 40 40 35 36 36 32 28 32 38 41 47 58 68 76 83 86 80 77 79 87 87 91 90 90 80 72 69 70 72 70 71 70 69 68 68
47 48 49 48 46 48 42 43 29 26 28 31 32 36 40 41 38 37 37 34 32 33 29 30 34 39 46 50 56 58 59 58 66 71 72 74 70 69 68 67 70 67 64 64 65 65 65 67 65
48 53 53 56 54 46 46 50 35 26 28 27 33 36 36 37 37 36 38 34 32 31 32 30 29 33 36 37 40 44 46 45 49 49 56 56 59 62 63 65 64 63 63 62 62 61 62 64 67
49 52 54 53 56 48 54 50 39 30 25 27 34 34 26 34 35 36 37 37 35 33 32 33 32 31 34 37 41 46 49 51 51 54 55 54 56 60 58 58 60 61 62 61 63 64 63 64 69
42 53 48 53 62 62 54 47 41 32 24 23 33 34 33 36 38 37 38 40 38 37 37 34 34 36 37 38 40 43 47 50 54 57 57 58 58 61 59 56 56 61 63 67 67 71 71 73 75
32 43 54 55 52 55 51 52 40 38 30 23 31 33 37 37 44 44 41 44 46 45 45 43 41 38 38 40 41 41 41 43 46 49 51 53 53 55 57 55 61 66 67 70 73 74 73 79 83
34 39 48 51 52 48 51 48 41 39 36 28 28 34 36 37 38 39 41 46 50 48 49 49 50 51 48 45 46 45 44 44 46 45 47 52 57 62 62 65 67 70 73 78 84 91 93 91 87
39 41 44 50 48 60 53 43 40 40 41 38 32 34 39 39 38 37 40 44 47 46 43 44 47 52 56 59 58 56 53 52 53 57 60 62 63 65 65 69 75 82 89 95 97 96 83 84 85

GFSSGP_prec_cthk_090.txt.gz
RH
14 16 17 19 21 20 22 23 19 19 22 23 27 29 32 31 30 32 29 31 33 36 49 57 60 62 62 75 64 61 61 62 62 65 66 68 77 69 49 37 28 30 35 35 28 25 24 18 20
17 17 21 21 22 23 25 23 20 20 21 25 26 29 31 31 31 33 34 33 36 40 48 58 62 66 70 81 79 72 67 65 63 60 62 68 75 73 63 44 34 38 35 29 22 23 22 21 21
18 20 25 24 24 22 21 22 20 20 21 23 26 29 29 30 32 34 32 34 36 41 47 60 62 63 62 44 72 89 80 74 64 61 61 69 81 67 54 43 32 34 33 27 21 21 22 21 22
22 23 21 22 23 24 21 21 19 21 23 23 26 29 29 29 33 35 32 36 37 41 46 52 62 73 77 66 82 85 91 72 65 66 62 63 73 67 52 38 31 32 33 25 25 26 24 24 24
22 24 23 21 22 23 20 20 21 21 21 25 29 32 32 32 35 32 34 35 42 46 49 50 65 87 98 92 91 81 76 76 68 68 63 59 56 63 56 40 33 33 31 29 29 26 25 25 23
24 24 22 20 22 23 20 20 21 24 24 26 30 34 34 36 35 38 38 42 45 48 50 55 70 79 74 76 94 97 63 81 72 67 67 57 56 72 60 38 36 37 33 34 35 33 31 29 27
22 26 22 20 19 24 21 20 21 24 25 28 32 34 37 38 40 40 44 48 51 56 60 60 61 72 85 81 84 95 82 85 71 64 65 58 60 75 63 39 37 36 37 38 40 40 37 33 32
23 25 24 22 21 22 20 19 20 22 24 26 32 36 39 40 42 44 49 54 59 61 67 63 65 75 90 88 89 98 85 89 73 65 64 57 61 68 62 43 36 36 41 45 46 45 42 40 37
22 26 25 24 24 22 20 19 21 22 25 28 35 36 39 41 42 50 53 59 62 62 64 68 66 74 89 94 97 97 89 98 88 74 60 58 60 73 61 49 38 39 45 47 46 47 47 46 44
23 27 25 24 24 24 20 19 21 21 26 33 36 39 39 42 46 50 59 62 63 59 72 64 64 72 89 92 92 91 99 99 93 75 63 62 62 74 64 51 40 41 47 51 52 52 51 46 46
23 27 26 25 25 24 20 19 23 24 29 38 35 37 41 43 46 49 53 49 47 45 54 62 61 69 86 89 87 88 92 97 95 82 74 69 71 71 63 55 44 44 51 56 56 54 54 56 54
25 27 28 27 26 25 21 20 21 26 31 33 36 37 38 40 43 47 47 45 41 42 54 63 71 71 85 90 92 90 90 98 97 96 88 79 73 73 66 60 50 45 56 59 59 57 62 60 55
28 28 30 30 26 23 21 19 22 24 27 33 36 37 39 42 42 45 45 44 40 45 57 67 67 73 85 89 94 96 95 96 97 96 95 89 77 69 65 66 49 52 58 63 64 65 65 60 56
28 29 31 32 29 25 22 18 23 26 30 36 35 39 43 44 42 41 45 43 42 48 58 69 75 85 84 93 96 98 99 99 98 97 97 85 81 69 64 52 50 55 59 68 66 66 65 63 63
31 31 31 32 30 25 22 18 23 29 31 36 40 40 40 40 37 37 41 41 45 48 61 66 78 84 88 97 91 94 95 97 98 98 95 85 72 60 65 62 54 56 61 66 66 67 65 67 63
34 33 32 33 29 27 28 24 32 29 32 35 40 38 38 34 34 33 38 42 46 51 61 67 77 79 87 88 88 96 93 97 98 97 94 83 69 65 68 59 58 57 61 66 68 68 71 70 65
35 33 34 36 32 26 29 26 28 30 33 34 38 38 37 35 30 30 34 45 48 59 66 69 72 77 80 88 92 95 98 99 98 96 90 85 76 68 61 64 64 66 67 73 73 75 78 74 69
39 40 38 34 33 29 30 28 22 29 31 34 38 39 36 33 31 28 30 44 58 65 66 70 74 81 80 91 95 97 99 99 98 94 90 83 76 76 72 72 73 75 80 84 83 81 81 77 74
42 40 37 35 37 33 28 26 26 25 30 32 37 38 36 33 30 30 27 42 59 65 64 68 71 76 84 94 98 98 98 97 97 93 88 84 82 80 82 84 86 87 85 89 87 86 84 82 79
42 42 40 38 38 36 30 27 28 24 27 32 34 38 37 34 30 32 28 37 49 65 67 69 70 69 80 90 94 94 97 98 96 93 91 86 84 89 88 88 89 86 88 88 86 84 84 83 80
44 46 45 41 41 38 32 29 28 27 24 29 30 34 36 34 30 31 33 29 42 53 60 65 68 70 73 83 92 96 97 98 97 95 93 89 89 89 85 85 85 87 84 84 84 83 80 79 74
47 46 47 45 43 40 36 31 31 31 25 27 26 30 33 35 33 28 33 32 29 41 49 57 65 72 74 80 90 91 94 95 96 95 92 91 87 86 87 84 84 83 83 82 81 78 73 69 69
51 46 47 45 45 43 36 32 30 28 26 26 28 28 31 37 36 30 30 33 31 29 37 43 50 65 76 83 88 92 94 95 93 94 92 90 91 87 86 85 83 82 80 76 73 71 68 66 68
51 55 54 48 48 50 39 34 30 31 26 28 28 31 33 37 38 36 30 33 34 33 31 30 38 46 57 70 78 83 85 81 80 84 84 86 90 87 85 82 74 72 68 65 66 65 67 68 67
40 49 56 60 57 49 35 38 32 32 27 27 29 33 35 37 35 36 32 32 32 34 33 31 32 34 41 46 52 57 59 65 65 67 72 75 75 73 71 69 64 64 64 64 65 66 63 64 69
38 46 54 59 53 47 40 43 34 38 35 25 29 36 36 37 35 32 33 34 31 32 33 33 33 36 37 39 43 45 49 49 53 55 57 60 63 65 69 70 64 61 63 63 65 62 65 73 72
29 42 48 55 52 54 47 46 38 38 36 27 24 32 34 33 35 33 30 34 35 35 33 32 36 37 39 41 42 46 47 51 54 56 59 58 59 61 62 62 60 60 62 63 66 69 72 75 73
24 32 38 53 58 54 44 44 41 36 37 36 22 29 34 37 36 38 39 34 36 38 41 36 35 37 39 42 44 45 47 49 52 54 56 56 57 59 60 61 58 61 62 68 74 74 76 74 77
33 39 34 40 48 49 47 41 37 37 39 41 32 30 36 39 36 38 39 41 41 43 45 43 41 40 39 42 46 48 48 48 49 51 52 54 54 55 58 61 64 66 68 72 74 77 75 78 81
41 35 34 38 44 49 47 44 41 39 42 42 43 35 36 39 38 39 42 45 45 48 47 43 40 43 47 50 47 49 53 55 54 55 56 56 55 59 62 65 67 69 71 72 73 72 77 86 89

GFSSGP_prec_cthk_093.txt.gz
RH
12 14 18 20 23 23 23 26 22 19 23 22 22 21 26 28 30 37 40 32 28 31 36 39 52 59 61 61 79 68 71 75 77 76 76 74 71 64 52 40 31 31 26 26 26 19 19 20 21
17 18 21 25 22 25 21 27 24 23 20 20 20 21 25 35 38 42 39 30 27 31 32 42 45 59 65 73 81 76 77 79 84 78 75 76 75 74 66 50 38 30 29 28 21 18 18 17 18
16 19 25 27 25 23 23 25 24 21 21 20 23 33 28 28 42 37 32 28 31 32 36 40 42 53 70 81 77 67 77 85 80 80 77 73 77 77 69 59 42 28 28 25 24 24 24 23 21
20 23 23 21 22 26 23 24 21 20 25 25 23 26 36 36 29 32 29 28 31 34 38 38 39 48 63 78 76 69 66 94 85 78 72 74 78 73 72 61 53 38 36 30 24 21 21 22 22
20 23 23 24 23 21 23 22 20 20 21 27 30 31 38 41 37 32 32 32 30 32 39 47 47 48 61 85 83 94 92 93 88 76 75 74 77 73 70 66 47 38 27 21 22 22 23 25 25
21 22 22 24 22 21 23 23 22 20 22 29 31 35 37 44 38 36 38 38 33 34 42 51 53 55 59 73 84 82 93 96 94 77 74 72 71 63 72 66 44 31 26 24 25 25 27 27 26
22 24 23 23 22 20 24 25 21 23 22 25 35 38 39 45 42 37 40 46 39 42 45 51 58 63 67 77 84 72 84 95 98 79 76 71 64 61 58 64 39 33 28 30 29 29 29 29 29
24 24 22 23 24 22 21 23 22 22 26 30 26 29 36 43 40 40 42 45 44 43 49 56 62 69 69 71 82 80 85 90 98 93 83 74 59 62 66 62 39 34 33 33 34 34 35 33 32
24 22 23 25 24 23 23 24 22 23 23 22 29 35 39 39 40 44 48 52 54 51 54 52 67 72 67 73 90 85 82 92 99 85 80 74 62 64 75 58 46 37 37 39 40 40 39 38 37
25 22 23 26 25 23 24 25 23 22 23 27 33 44 44 41 41 44 48 54 54 50 41 58 62 61 61 72 94 96 73 87 93 98 77 73 65 58 76 65 49 42 42 44 45 45 43 41 40
26 23 24 26 25 26 24 25 22 23 22 29 35 32 40 40 38 40 46 47 51 46 41 52 54 58 60 77 98 95 90 89 86 88 81 76 63 60 78 58 50 45 47 46 48 49 48 49 49
26 24 24 25 25 26 26 23 23 22 22 27 27 31 34 39 41 40 44 40 44 45 42 48 57 69 77 80 95 96 91 91 97 96 89 77 67 63 80 57 54 47 51 49 51 52 61 56 55
28 27 27 26 27 28 26 25 21 18 21 24 28 32 33 38 43 42 36 38 38 42 43 48 57 65 76 78 90 94 97 94 97 99 91 77 74 70 75 66 62 56 55 55 54 61 63 60 57
32 30 29 28 28 29 28 26 23 18 22 29 31 32 35 40 42 40 32 36 35 40 42 46 57 55 63 80 81 88 93 93 93 96 92 91 82 76 72 75 68 64 60 61 63 65 63 62 61
34 32 31 29 30 29 28 26 23 20 22 27 31 35 37 44 41 35 29 33 36 40 43 54 57 68 67 72 84 89 88 95 99 97 96 93 91 79 74 75 79 78 65 64 66 64 61 64 62
38 35 32 31 32 31 28 27 29 29 28 28 34 35 37 40 40 33 28 30 38 45 50 59 61 62 69 76 82 89 89 92 96 95 96 96 94 81 78 75 82 78 72 67 66 63 61 65 69
39 35 34 35 36 32 29 29 35 37 30 26 32 35 38 39 40 35 32 30 42 52 56 62 64 64 67 66 74 80 90 95 97 98 99 99 92 82 79 76 76 68 68 65 67 63 63 68 72
40 37 36 40 39 34 30 27 32 31 32 28 30 36 41 39 39 36 34 28 40 54 58 66 63 63 61 71 77 84 90 93 93 96 97 96 88 86 80 73 69 68 68 69 69 70 74 76 74
47 41 42 40 38 37 35 31 28 30 30 31 32 33 39 41 40 36 35 30 38 52 60 63 65 66 65 72 82 90 91 94 96 98 95 91 87 84 77 74 70 73 74 76 78 82 83 84 81
52 47 43 41 40 41 38 33 28 28 25 31 31 36 39 40 39 35 35 31 33 49 58 63 64 65 67 75 82 89 93 98 98 98 95 91 90 87 77 72 76 79 83 87 90 89 85 89 85
55 52 50 47 44 44 40 35 30 28 28 29 27 26 31 39 40 35 34 30 33 41 49 58 66 66 66 73 83 87 93 95 97 97 94 92 91 90 87 88 91 89 93 90 88 88 86 87 84
52 55 53 51 47 48 44 37 30 30 32 35 29 27 28 34 39 37 34 31 33 30 41 51 58 67 72 70 78 86 90 92 93 93 92 92 93 91 92 92 94 92 90 91 85 88 86 86 82
48 54 54 53 50 50 45 41 31 31 30 32 27 25 27 32 37 38 35 32 32 33 30 37 48 61 73 76 82 83 87 91 90 91 92 92 92 90 91 91 92 92 87 88 85 89 80 79 70
40 49 53 57 55 54 49 43 33 32 37 35 33 24 28 31 37 39 37 32 35 33 32 31 36 50 62 73 83 86 88 92 89 86 86 92 93 93 93 94 93 90 89 83 82 78 72 68 68
33 47 57 77 75 56 48 44 36 38 32 30 33 27 29 32 36 39 37 32 34 31 32 32 33 39 48 57 64 71 74 75 75 75 84 90 93 93 93 92 84 79 73 73 73 70 66 65 69
31 39 42 58 67 63 50 42 35 38 39 37 32 28 31 31 36 37 34 33 31 28 30 31 32 35 38 44 49 52 56 58 61 67 70 77 78 80 80 76 75 77 74 71 69 74 67 71 73
31 39 42 49 59 61 56 45 42 40 42 38 36 35 30 32 34 34 38 33 31 26 27 28 29 32 36 38 42 47 49 51 54 58 61 62 63 66 69 69 67 69 68 67 64 65 65 71 73
29 35 43 42 60 66 51 47 44 43 42 41 39 33 29 32 34 36 37 36 34 31 30 32 31 31 33 38 41 44 46 49 52 55 57 58 59 60 65 64 66 64 65 61 60 60 65 71 74
37 33 36 39 43 52 57 49 47 46 45 48 46 46 35 35 37 36 38 41 42 39 35 37 37 35 34 35 40 46 46 49 51 53 55 55 61 60 58 61 64 64 63 67 69 67 68 72 76
47 43 37 50 47 47 49 49 52 46 43 50 55 51 38 38 42 40 41 41 42 45 43 42 39 37 36 37 38 41 49 54 58 60 59 59 59 60 60 60 63 62 65 72 74 74 74 74 76

GFSSGP_prec_cthk_096.txt.gz
RH
11 12 14 22 24 23 26 27 25 24 24 23 20 19 18 22 24 31 41 37 34 33 29 22 27 36 47 61 64 68 72 70 69 69 71 71 70 64 54 41 31 25 26 26 26 25 21 23 23
13 17 20 25 26 24 26 28 29 26 24 21 19 20 23 31 38 44 45 35 25 24 25 25 29 34 43 57 69 70 69 77 77 78 82 82 80 73 63 50 35 31 26 27 23 17 16 20 21
15 19 22 30 28 24 25 27 25 24 22 20 20 22 29 29 34 38 33 27 24 26 28 31 32 36 40 50 69 77 88 81 82 78 81 85 78 77 74 56 46 32 30 28 20 15 15 16 19
17 22 23 25 21 20 24 25 26 23 21 24 23 21 25 40 34 33 32 26 30 32 31 29 31 33 41 47 63 80 87 88 88 84 77 77 77 77 74 63 51 41 32 23 15 18 21 28 32
19 23 25 27 23 24 23 21 22 23 21 22 26 30 31 31 37 36 34 29 30 37 38 32 35 38 45 52 58 76 88 86 92 88 86 85 81 81 65 66 58 44 30 24 21 23 24 23 28
21 22 24 24 26 24 21 22 22 23 22 23 27 30 35 43 40 38 38 33 32 35 42 44 43 43 49 56 53 61 80 89 80 92 96 74 88 78 64 67 66 49 42 43 34 27 24 22 29
20 23 25 27 25 23 23 22 22 24 24 24 26 29 33 37 39 39 39 37 36 37 41 47 45 46 51 57 57 60 74 82 83 85 99 90 78 69 68 63 62 50 37 30 24 21 23 28 30
21 24 23 25 25 25 26 23 23 23 26 24 23 26 28 38 32 38 37 38 40 42 48 51 53 54 55 58 59 65 66 59 67 83 97 87 92 59 61 66 62 49 31 25 24 26 29 30 31
23 25 23 23 26 28 26 24 23 25 24 25 24 28 33 38 37 39 38 37 43 45 46 42 41 57 67 67 63 66 72 78 77 83 98 90 84 60 57 53 55 47 32 27 29 33 34 33 35
25 25 23 24 28 26 24 24 26 26 25 27 26 30 37 34 36 37 40 41 46 48 41 39 44 59 61 60 61 70 80 91 90 84 95 96 77 62 59 54 47 42 33 31 35 36 37 37 40
25 24 25 25 26 25 23 23 25 27 24 26 28 31 28 30 33 35 40 43 45 44 40 36 39 52 52 63 70 82 93 92 93 91 99 95 84 61 64 63 47 39 38 37 39 39 39 40 41
28 25 24 25 26 24 23 23 24 27 24 22 22 25 26 27 29 33 40 44 39 45 39 37 40 48 59 67 84 91 95 84 85 88 92 98 76 58 62 64 61 50 44 44 43 42 43 41 46
30 27 27 27 26 27 25 24 25 24 23 20 21 25 26 27 30 32 36 38 35 39 41 39 40 48 61 67 79 92 93 87 91 91 99 91 64 56 62 66 60 55 51 46 47 51 47 47 51
32 31 29 28 29 29 27 26 27 26 25 21 22 26 28 29 34 37 35 34 33 36 42 42 43 54 58 66 73 86 92 90 95 97 96 87 67 61 70 64 62 58 50 49 52 56 52 52 53
38 35 31 29 29 30 30 27 26 28 26 24 23 26 30 35 40 39 34 30 33 35 40 45 49 56 57 58 69 79 91 92 97 96 99 90 75 68 78 68 66 66 59 53 58 61 58 55 54
40 37 35 30 32 30 32 28 28 32 26 27 32 30 33 36 38 39 31 29 33 37 40 53 60 59 65 65 68 74 84 85 94 97 98 92 88 77 78 71 68 72 66 62 62 65 60 56 56
47 43 37 32 33 37 35 31 29 39 34 36 35 32 37 44 40 38 33 30 34 37 49 55 63 62 63 70 70 75 81 87 85 91 93 95 91 86 80 84 75 77 75 72 70 66 61 59 60
50 47 41 36 33 37 38 33 30 34 39 36 37 35 39 45 43 39 37 29 31 34 48 57 63 64 65 64 67 78 88 89 91 90 95 97 94 93 88 88 82 79 81 77 73 69 64 61 65
51 49 47 39 39 42 42 40 32 34 32 35 35 34 35 41 44 40 38 29 28 34 46 59 62 63 66 66 70 78 87 91 96 95 98 98 97 95 88 88 89 97 76 72 71 70 67 69 72
49 50 49 47 41 42 41 37 33 34 31 30 27 32 37 40 41 40 37 29 29 36 44 52 60 63 64 68 78 84 88 92 94 96 99 98 98 93 89 83 78 77 81 78 75 73 74 76 81
48 51 54 57 52 48 46 45 35 33 33 32 29 33 35 39 39 39 37 32 29 35 37 48 52 61 62 63 74 81 86 91 95 97 99 99 98 93 87 82 84 80 79 83 85 85 85 80 81
42 49 54 58 62 54 50 48 40 33 32 33 30 29 30 27 39 37 38 33 29 33 35 41 48 55 65 67 71 76 82 85 90 95 97 96 93 89 88 90 85 83 87 90 92 87 83 85 86
46 42 50 60 62 62 53 51 40 33 33 31 36 36 32 29 36 37 37 33 29 32 34 35 41 47 63 71 71 76 82 86 88 90 90 92 92 91 93 92 88 88 91 92 91 88 87 85 83
44 47 50 54 58 61 57 57 45 36 34 36 35 33 31 35 36 36 37 34 30 31 32 34 35 39 49 62 74 77 79 81 84 85 87 88 91 94 94 92 91 90 90 94 86 90 85 81 77
45 47 51 62 68 68 54 56 47 40 39 39 44 36 30 31 34 36 36 32 30 29 31 31 34 38 44 48 57 66 74 76 75 74 78 79 85 89 88 88 90 90 91 86 83 88 85 79 73
42 47 46 52 66 61 66 60 47 41 41 37 40 37 36 32 34 37 35 32 30 27 28 29 31 35 40 44 46 50 51 53 54 56 67 77 83 86 90 89 85 81 82 86 85 76 68 70 72
45 54 45 43 54 82 70 63 53 44 46 44 40 38 42 40 35 38 35 33 30 27 26 27 30 33 35 38 43 46 47 49 49 53 56 62 68 74 78 75 74 72 70 78 71 67 70 72 79
44 53 54 45 56 60 56 70 62 55 49 50 42 42 42 43 36 38 38 36 32 28 27 27 30 32 35 38 39 43 46 46 49 53 54 55 55 58 61 63 65 65 70 69 65 71 75 69 69
38 38 39 46 48 48 56 61 65 60 56 54 53 49 45 47 39 39 40 37 37 36 32 32 34 35 36 36 38 42 46 48 48 47 50 51 53 55 56 57 58 59 60 61 64 69 74 72 67
55 35 39 45 50 49 50 50 62 63 61 60 58 56 54 47 46 44 42 41 41 39 41 39 39 38 36 34 37 41 44 51 54 57 56 54 55 54 53 55 59 61 64 67 70 74 78 81 80

GFSSGP_prec_cthk_102.txt.gz
RH
7 9 11 16 22 25 28 27 25 24 24 24 24 27 28 25 21 20 23 25 27 29 26 21 19 19 24 32 38 40 48 65 78 65 59 54 52 46 39 35 33 30 28 24 26 30 32 30 30
8 10 14 17 24 30 30 25 24 23 24 24 24 25 25 28 22 24 25 24 25 22 20 19 19 21 21 30 41 43 47 49 53 61 60 56 52 52 43 35 26 25 25 24 30 33 32 33 32
9 13 16 19 26 30 30 25 24 24 24 22 23 21 22 25 22 22 24 25 24 24 24 23 22 23 23 24 36 45 51 59 60 63 69 70 68 57 49 37 26 25 25 28 35 33 34 38 31
13 17 18 20 24 25 25 26 25 24 24 24 23 22 22 23 23 23 23 25 25 26 27 28 27 26 27 27 29 42 53 60 73 65 69 79 72 75 57 44 34 30 37 41 35 34 34 35 31
16 18 21 23 24 24 23 23 23 23 23 23 25 24 24 25 25 26 26 27 29 30 29 27 30 32 30 34 33 35 49 63 68 85 72 92 80 79 78 56 53 44 44 39 31 31 32 31 33
17 19 23 24 21 23 25 24 23 23 25 23 24 25 26 27 27 27 26 28 30 31 30 26 32 35 39 40 45 48 53 57 79 87 96 74 79 85 96 72 64 57 43 34 30 32 26 24 27
17 21 22 21 20 22 25 24 25 25 25 24 23 25 29 29 28 26 27 27 28 32 28 27 30 31 37 45 49 51 53 58 63 79 89 80 83 82 96 80 70 55 39 30 27 29 31 26 28
18 22 21 21 20 24 23 23 25 24 24 23 25 27 30 28 28 28 29 28 29 30 26 28 30 30 33 42 45 60 71 65 71 72 74 85 81 86 95 91 70 63 38 32 27 31 34 37 36
20 24 23 20 20 22 23 24 23 23 24 24 24 25 24 27 30 31 30 28 28 27 27 27 26 28 31 35 47 63 76 87 82 84 80 78 74 79 92 94 74 59 42 36 36 38 45 42 40
23 24 21 19 20 22 25 25 24 25 26 25 25 25 25 28 31 29 27 26 25 25 25 24 25 27 29 32 43 48 61 76 85 84 89 87 79 73 79 91 80 69 45 40 43 47 52 52 51
23 23 20 19 20 23 24 25 25 24 25 27 28 28 27 28 32 30 27 24 25 26 25 24 25 30 34 33 40 45 54 67 77 84 86 78 73 76 74 90 87 71 43 38 47 45 48 57 38
26 23 22 21 23 24 24 24 24 25 24 26 27 27 28 28 29 26 28 24 26 27 26 28 30 34 38 38 38 44 56 71 79 84 82 76 72 73 80 88 81 62 38 36 44 56 62 41 47
31 28 26 25 25 24 25 25 25 23 24 27 26 28 28 26 25 29 30 28 29 29 30 31 33 36 42 44 42 51 64 78 81 86 92 91 88 88 88 86 71 51 40 42 39 52 39 47 51
32 31 29 28 27 27 27 27 27 22 26 28 29 28 28 26 29 32 32 29 29 30 31 33 32 38 47 49 49 60 77 91 96 96 96 95 96 95 93 76 64 47 41 48 45 38 41 51 50
33 33 30 29 30 31 29 27 27 25 28 29 29 28 28 27 28 30 31 29 29 30 31 30 29 44 48 49 55 67 81 92 95 95 95 93 97 98 83 67 54 38 35 36 37 38 47 52 54
36 34 33 29 32 32 33 27 28 27 32 31 30 29 29 28 28 31 34 32 34 33 30 26 30 43 45 51 56 67 77 87 94 94 95 95 96 93 80 62 47 33 30 34 37 39 45 51 56
40 36 35 34 37 39 38 30 31 33 35 33 30 29 29 30 29 33 35 33 37 36 31 24 29 44 49 50 52 64 75 85 93 95 96 99 98 89 76 64 53 44 38 39 40 43 49 51 54
39 38 36 38 41 45 43 32 33 35 35 34 33 30 31 31 29 35 34 38 41 38 31 24 28 45 52 55 61 68 74 84 92 93 95 99 95 90 73 67 52 47 45 49 51 53 55 54 54
38 39 37 36 39 43 43 37 36 38 38 36 34 32 35 37 37 37 38 40 45 41 32 22 27 41 53 53 60 65 78 88 91 96 97 96 98 91 82 66 54 47 48 52 54 55 55 57 56
34 37 33 34 36 40 43 33 35 40 40 39 36 34 35 37 39 39 42 43 45 42 30 22 27 37 49 56 59 66 80 89 91 99 97 98 98 92 87 72 59 53 58 62 66 66 63 61 58
26 30 31 32 37 37 40 32 36 40 44 42 37 34 34 36 36 37 42 42 46 42 29 22 27 31 44 54 56 68 82 86 94 98 98 97 94 92 91 83 74 71 67 71 72 74 70 67 67
24 27 29 30 34 37 45 41 38 41 45 45 40 38 38 38 38 40 42 42 46 41 29 23 26 27 41 54 55 68 75 81 92 99 98 98 98 95 93 87 82 80 75 77 77 75 76 74 74
22 29 33 36 33 37 42 51 36 40 44 46 41 40 42 40 39 41 42 46 45 36 29 23 26 28 38 53 58 65 73 79 89 95 98 99 97 94 92 91 91 90 88 86 83 84 83 79 76
32 36 40 42 45 48 48 56 40 43 43 43 44 44 46 43 41 43 44 50 42 34 30 24 25 27 38 47 60 64 70 77 85 91 97 98 98 96 96 96 95 96 96 97 96 92 88 82 83
37 44 54 55 57 50 43 52 39 41 43 45 43 42 43 39 41 41 45 50 39 34 29 24 25 25 36 44 51 64 73 77 83 88 93 95 97 98 97 98 96 95 95 94 96 97 92 89 88
41 46 57 59 67 55 48 55 48 56 57 48 47 45 45 44 44 42 43 46 40 34 25 23 24 25 31 38 46 51 62 71 75 82 88 91 95 95 98 98 98 99 96 97 97 95 93 93 91
36 51 48 54 57 64 64 57 47 50 58 59 55 54 52 49 52 52 51 43 41 33 24 20 21 26 31 36 39 42 43 46 49 56 67 79 88 96 99 99 98 97 96 96 96 96 93 93 91
34 42 54 54 59 63 59 55 60 61 66 70 65 62 63 68 60 56 47 40 39 32 25 21 21 24 32 35 37 40 44 46 49 52 60 70 79 88 93 97 97 95 92 92 93 92 89 90 90
36 43 57 57 60 56 64 54 55 61 60 79 75 67 64 66 74 70 54 47 40 35 27 23 23 24 34 36 36 38 41 45 48 50 55 61 69 78 87 94 92 89 84 81 81 76 75 77 79
47 48 53 63 62 64 67 56 55 62 63 74 81 73 67 63 61 69 64 56 42 38 35 28 27 27 30 36 36 37 41 43 45 46 50 55 56 61 67 73 75 73 72 70 68 69 69 74 76

GFSSGP_prec_cthk_105.txt.gz
RH
8 8 11 13 18 24 27 24 22 23 23 22 24 27 27 25 23 24 25 24 21 20 21 22 21 19 23 28 33 35 40 43 45 50 69 67 55 57 57 52 46 43 41 39 36 34 37 48 48
9 9 13 16 21 26 25 23 23 23 22 22 22 23 24 23 22 24 24 22 21 21 22 21 21 21 23 27 29 38 45 47 52 54 57 62 60 55 55 53 47 34 32 33 32 36 41 42 36
9 12 15 17 23 25 26 23 22 21 21 22 21 23 22 22 23 23 21 20 20 21 22 21 22 25 26 28 31 33 41 56 59 55 54 56 58 58 57 52 38 31 28 32 32 36 40 39 36
10 14 15 19 21 24 26 24 24 22 21 22 23 23 23 22 22 21 21 21 21 20 21 23 26 24 29 34 34 36 41 48 60 62 77 61 69 74 63 53 39 34 30 33 39 40 39 39 36
14 16 19 21 21 22 24 25 24 23 22 22 23 23 23 24 23 22 22 23 22 23 24 26 27 25 31 36 41 42 39 45 49 74 63 96 73 78 83 65 45 35 36 42 46 40 40 38 37
15 17 22 23 19 20 24 24 23 22 22 23 23 24 25 25 24 24 24 23 24 23 24 27 25 28 31 33 42 48 50 57 55 57 60 74 90 79 94 79 62 43 51 55 47 49 38 36 34
16 19 21 19 18 18 24 25 24 23 22 21 23 26 26 25 26 25 24 24 25 26 27 27 24 25 29 32 34 47 54 63 66 74 74 84 77 89 88 83 80 65 62 52 45 41 36 35 29
15 20 20 19 19 18 22 23 23 23 21 21 22 28 27 23 25 27 27 27 28 30 29 25 22 21 24 29 35 41 57 69 82 72 76 81 81 83 93 88 84 78 58 48 45 38 35 34 27
19 22 23 20 19 17 22 23 23 24 23 22 23 23 23 24 26 29 29 27 28 28 28 25 23 23 21 24 32 38 51 64 79 85 91 91 84 87 82 82 80 84 64 45 41 36 37 30 29
22 24 21 19 18 18 23 24 25 25 24 22 22 23 23 24 26 28 28 26 26 27 27 28 25 22 22 24 28 32 44 57 70 80 86 89 92 88 85 81 84 89 63 44 40 37 37 33 36
23 23 20 19 19 20 21 22 25 25 22 23 24 23 24 26 28 29 26 24 24 26 28 28 26 25 25 28 30 32 39 48 57 67 80 91 90 88 85 81 86 88 67 47 40 44 44 44 50
26 24 23 21 21 22 21 22 24 25 22 23 23 25 25 27 27 30 27 27 25 25 29 30 26 30 29 32 34 37 37 43 53 62 76 87 88 91 85 79 81 88 72 48 43 41 50 53 54
30 27 26 25 25 24 24 23 23 22 24 25 24 25 26 27 27 28 29 31 28 25 28 29 28 32 32 34 39 44 43 45 56 72 79 85 90 89 79 73 79 83 75 53 50 51 54 52 58
33 33 32 30 29 28 25 24 25 20 25 27 27 26 27 27 27 28 31 33 30 29 29 28 31 35 32 37 45 50 48 53 72 83 89 89 93 88 86 78 82 82 80 51 46 51 55 61 54
35 35 35 32 31 28 29 25 24 25 28 29 28 27 28 27 27 26 29 33 30 32 31 32 35 35 30 43 46 49 50 64 84 92 95 93 93 92 87 83 86 82 67 44 43 52 61 54 46
38 37 39 33 32 30 32 22 25 28 31 32 30 29 28 27 27 27 29 33 32 33 34 36 36 29 30 42 42 48 58 74 83 96 97 98 96 93 91 92 93 81 60 43 44 55 58 48 47
40 39 37 36 33 33 33 27 26 29 31 30 29 31 29 28 28 27 29 33 35 37 38 38 34 26 30 42 45 50 61 70 86 97 97 97 97 98 96 96 94 77 57 39 43 59 50 46 50
38 40 36 36 35 40 35 29 30 30 31 31 31 34 31 28 30 28 30 34 37 38 41 41 34 24 28 42 49 51 60 69 87 99 98 95 94 98 98 96 84 70 47 36 38 46 49 46 51
34 38 39 36 36 40 35 31 32 34 34 34 33 36 35 32 31 31 33 37 41 41 42 42 35 24 28 36 50 52 61 67 85 92 96 97 95 96 94 84 67 62 34 29 36 44 50 52 56
32 34 35 36 37 40 34 27 29 31 33 33 34 37 35 33 35 34 35 42 43 42 45 44 35 26 29 32 44 54 57 67 83 90 97 96 98 95 91 77 64 54 39 38 40 46 50 56 58
25 28 32 33 34 34 32 27 25 28 30 32 34 37 37 37 37 34 37 39 42 41 45 44 34 27 29 30 42 53 54 71 80 86 93 98 98 96 96 80 72 56 49 47 51 50 55 59 60
23 22 25 30 36 40 37 33 28 28 27 29 32 36 37 39 40 37 37 40 39 39 45 45 33 29 30 28 41 50 53 67 73 84 94 99 97 96 94 90 80 60 56 51 51 56 57 57 60
21 27 28 33 35 36 32 43 29 29 29 28 31 38 41 41 43 41 39 41 43 42 45 43 30 30 30 29 41 51 57 66 74 86 94 98 97 97 96 95 87 70 60 62 65 70 70 70 66
27 33 35 37 41 43 34 41 28 30 31 33 33 34 37 40 44 43 42 44 45 48 48 41 29 30 31 31 43 54 59 67 75 85 95 99 98 97 95 95 93 84 80 76 75 78 77 78 76
32 39 47 53 59 44 38 46 32 34 33 45 45 40 40 41 42 43 44 44 43 44 48 41 30 28 29 33 43 51 62 66 72 82 93 97 99 97 94 94 96 92 90 90 89 89 87 88 86
32 38 48 50 56 51 47 48 38 36 54 55 50 48 47 44 45 48 46 46 43 46 50 39 28 26 26 31 39 48 55 67 72 78 86 97 98 95 96 97 94 94 94 94 96 96 96 95 93
25 43 32 49 54 61 52 45 40 42 50 54 57 56 54 58 59 57 55 51 45 49 48 35 28 25 25 29 35 41 45 52 60 67 77 86 91 96 97 97 96 96 96 97 96 94 97 94 94
25 28 51 57 56 61 53 52 48 45 52 56 65 65 62 59 57 57 59 54 56 54 48 32 28 24 26 30 34 37 39 41 43 50 59 68 77 86 95 97 98 98 98 98 98 98 98 98 95
31 34 48 53 62 56 58 54 43 46 51 58 66 73 68 66 64 62 61 58 61 62 51 32 28 27 30 32 34 35 36 40 44 45 52 59 67 75 87 93 95 98 98 99 98 97 98 96 97
50 41 40 58 57 58 58 53 55 58 65 67 68 79 77 73 71 64 61 68 70 66 56 44 34 27 29 32 35 34 36 38 43 46 49 55 61 69 75 82 87 94 95 89 89 91 87 84 86

GFSSGP_prec_cthk_108.txt.gz
RH
10 9 10 13 16 20 23 23 21 21 22 21 22 23 24 23 24 25 24 25 24 22 21 21 19 18 20 21 24 28 34 39 43 47 51 60 72 79 68 64 60 54 49 45 44 39 36 44 54
9 9 12 14 20 23 21 22 22 22 21 21 21 22 22 21 22 24 25 23 23 22 21 19 19 19 20 24 29 31 35 41 44 52 54 56 71 82 69 68 65 58 49 42 41 38 42 48 54
9 11 13 17 24 22 22 21 21 22 21 21 21 21 20 20 20 23 24 22 21 20 20 20 20 21 21 26 34 37 42 44 44 50 74 60 63 67 69 68 62 52 46 41 43 38 44 51 50
10 12 13 18 20 21 21 22 22 22 21 21 22 21 21 19 19 22 24 22 22 21 21 22 23 23 23 28 36 42 49 46 48 59 66 89 59 67 70 69 59 50 37 36 46 41 45 46 38
12 15 18 20 19 17 19 23 22 22 21 21 21 21 21 20 20 22 24 22 23 21 22 24 25 25 24 30 36 42 50 57 54 56 59 72 69 83 78 73 67 59 42 41 41 47 45 39 39
16 16 21 22 18 16 18 20 22 21 20 21 21 21 21 22 21 22 26 23 22 23 24 25 26 24 24 27 33 41 46 59 69 63 58 57 82 75 82 85 72 63 52 48 43 48 39 43 42
16 18 20 19 18 16 17 20 22 21 20 20 21 22 21 23 22 21 24 27 23 25 25 25 25 25 23 23 27 35 48 63 76 82 78 67 71 73 80 89 79 74 66 56 58 56 42 40 39
15 19 20 20 18 16 15 19 21 21 21 20 21 23 23 23 22 22 25 28 26 25 27 27 26 25 24 21 23 31 41 59 71 83 87 87 90 84 76 85 87 83 82 71 63 58 42 40 34
19 21 23 20 19 15 15 20 22 21 22 21 21 21 22 23 23 23 25 27 27 25 27 28 28 26 24 21 21 28 42 52 68 76 81 84 85 91 86 91 86 92 82 71 53 48 40 38 40
25 26 22 19 17 15 15 17 21 21 21 21 22 23 22 23 23 23 24 25 26 24 26 28 29 29 27 24 24 26 35 46 52 61 65 73 80 94 88 87 88 87 86 79 58 47 41 37 39
29 26 22 20 19 17 17 17 21 21 22 22 24 23 23 23 24 25 25 26 25 26 26 28 31 33 31 28 29 27 30 38 45 50 58 67 80 85 96 95 93 90 83 76 61 50 42 38 36
31 27 26 24 23 21 19 19 19 20 21 23 25 25 24 24 24 25 25 26 26 27 28 28 31 34 32 31 33 32 34 38 44 49 60 67 75 85 91 95 90 91 85 73 52 47 42 38 39
33 30 28 27 27 24 23 21 20 20 19 23 25 27 26 25 25 26 26 28 30 29 28 29 32 33 31 34 34 36 44 48 50 49 59 69 79 83 92 92 91 84 85 74 53 50 43 40 47
35 35 33 30 29 27 27 23 25 19 20 23 25 26 26 26 26 27 27 29 30 29 28 31 30 32 34 37 34 41 50 55 53 54 59 66 83 84 92 92 88 82 86 72 50 46 46 47 52
38 38 38 35 34 33 33 27 25 23 24 24 25 25 25 26 27 26 27 28 30 29 28 28 32 34 38 38 33 44 50 56 56 54 69 92 89 85 93 94 87 80 84 79 54 54 52 53 57
39 39 39 36 35 35 39 26 26 26 27 27 26 26 26 27 27 27 28 29 31 30 29 31 35 38 39 36 32 40 44 48 54 69 81 90 96 94 96 93 90 89 80 78 60 59 57 56 62
38 42 41 38 36 38 40 28 29 29 30 29 27 27 29 28 29 29 28 30 31 32 31 33 37 40 41 35 33 38 48 54 64 72 85 95 98 98 96 94 91 90 84 79 68 52 57 60 65
40 42 40 40 38 42 43 34 35 33 32 30 28 28 31 30 31 29 29 31 31 31 32 36 39 43 42 34 32 38 49 55 64 73 88 97 98 98 99 98 93 89 87 81 65 48 60 64 62
32 37 39 38 40 41 41 34 35 34 31 31 29 28 30 31 33 31 32 34 33 34 34 37 41 44 41 33 31 37 44 56 63 70 88 99 99 98 98 98 94 93 91 77 63 49 56 65 59
29 33 32 35 38 40 38 28 30 31 28 27 27 28 31 33 32 32 34 36 35 38 38 40 43 43 42 35 31 37 42 56 61 70 87 95 96 96 97 96 95 94 91 80 68 48 63 66 55
26 29 32 35 34 32 34 24 23 23 22 23 25 27 30 34 34 33 36 37 37 38 39 41 45 44 42 35 32 35 42 57 60 74 87 93 98 97 96 97 97 97 87 77 52 44 56 57 60
24 23 27 31 34 35 31 30 23 22 21 24 26 27 29 32 32 31 37 37 37 41 39 43 46 48 43 34 31 34 45 56 60 72 82 88 96 99 95 97 97 91 78 61 37 36 49 54 53
21 23 26 29 33 32 31 33 26 27 28 27 28 30 30 30 30 30 37 39 38 41 42 45 46 46 43 34 31 35 48 57 62 71 79 87 95 97 95 94 87 70 59 43 34 39 51 57 62
22 27 31 37 39 41 33 34 28 26 25 31 35 34 37 31 29 31 36 40 42 44 45 45 46 44 40 33 30 36 49 58 65 69 80 86 98 98 98 96 86 75 69 55 51 51 60 59 63
29 34 48 56 52 42 35 39 26 29 31 37 38 41 41 42 36 34 40 40 45 47 47 48 47 44 35 31 30 38 49 58 66 69 76 88 98 98 98 95 92 87 78 67 57 54 61 67 68
29 33 43 50 58 45 42 40 33 30 36 42 41 42 42 44 44 43 45 47 51 50 51 52 45 44 32 28 31 37 45 56 66 71 76 88 98 97 93 96 95 93 84 73 69 66 72 78 82
29 37 30 42 49 51 45 41 35 36 38 40 44 49 48 50 52 52 54 52 56 54 53 53 53 45 31 26 31 37 43 48 55 62 71 84 90 97 96 95 94 95 93 88 93 90 90 91 93
24 26 42 51 50 52 45 46 44 44 41 47 51 54 54 52 57 58 56 60 62 57 57 56 56 43 32 31 36 40 42 43 46 48 57 66 78 93 95 95 96 96 95 93 93 92 92 92 94
30 29 36 42 52 47 44 44 40 38 41 47 51 55 57 54 66 71 66 72 67 63 62 60 56 39 33 34 39 47 48 45 45 46 52 58 67 78 86 96 99 98 98 95 95 94 95 95 97
50 39 34 44 40 49 49 44 51 53 47 48 55 64 67 58 69 84 83 82 75 69 70 65 56 40 35 35 40 45 48 47 49 49 50 56 64 71 77 86 98 97 98 98 98 97 96 97 96

GFSSGP_prec_cthk_111.txt.gz
RH
12 10 10 11 13 16 16 18 19 20 20 21 22 22 22 21 24 22 22 25 24 23 22 20 19 18 17 18 22 26 32 34 40 44 51 55 57 60 62 69 63 61 60 53 47 47 48 46 50
11 10 12 13 14 14 14 18 19 19 20 21 22 22 22 21 21 21 22 22 22 21 19 19 18 18 18 19 25 31 37 40 45 46 58 73 67 66 74 76 72 67 64 56 49 49 44 43 53
11 12 13 13 16 12 13 16 18 19 21 21 21 21 21 20 20 21 21 21 20 20 19 19 19 20 20 22 28 35 42 45 50 51 58 60 69 67 74 82 67 69 62 57 48 45 44 50 59
12 14 14 14 14 15 14 16 18 20 20 20 21 20 20 19 20 21 22 22 21 20 19 19 21 21 20 23 29 35 39 47 54 55 60 75 86 86 86 72 73 71 65 49 47 51 48 50 59
13 15 14 16 14 13 14 18 18 19 19 20 21 21 20 19 20 21 21 23 23 21 20 21 23 22 21 22 25 31 38 43 63 63 66 73 86 89 89 81 85 71 53 59 51 53 52 53 52
15 16 16 13 14 13 12 15 17 18 19 19 20 21 20 19 19 22 22 23 24 23 22 23 25 24 22 23 22 28 33 43 56 63 71 73 56 68 70 76 71 70 68 61 58 51 54 50 39
18 18 16 16 16 14 12 13 17 19 19 19 20 21 21 20 20 21 22 24 25 25 23 24 25 26 25 24 22 24 31 38 48 56 69 81 74 69 69 71 69 71 75 69 74 58 52 51 42
18 18 19 17 15 14 12 14 17 19 20 18 20 21 22 22 22 22 22 25 27 27 26 26 27 26 27 26 22 25 28 35 44 55 71 78 77 83 73 75 85 79 79 71 72 64 53 56 46
22 20 19 16 18 14 14 14 17 19 20 19 20 21 22 21 22 23 24 25 27 28 28 27 28 28 27 26 24 26 29 32 40 50 65 80 75 74 80 82 87 77 79 78 73 68 64 50 44
27 23 20 19 19 17 15 14 18 19 19 20 21 22 22 22 22 23 24 25 25 28 27 29 30 30 29 28 25 28 32 32 36 43 52 60 63 69 78 82 84 85 84 85 78 65 63 50 51
32 26 26 24 23 21 17 15 15 17 19 20 20 21 22 22 23 22 25 25 25 28 30 30 33 33 33 32 29 30 35 36 38 42 48 53 58 71 78 82 90 90 90 88 80 53 54 45 42
36 33 31 30 29 26 22 20 17 16 17 19 20 22 23 23 24 23 22 25 27 28 31 33 35 34 35 34 32 32 38 39 46 51 54 63 59 68 75 85 90 90 95 94 89 82 54 45 42
38 35 33 32 32 30 28 23 21 19 17 18 21 23 24 24 24 24 23 25 28 28 31 33 36 37 35 34 36 37 37 44 51 57 61 66 66 70 78 83 91 92 93 95 91 80 55 47 44
36 36 35 34 33 33 31 26 25 22 20 20 21 21 22 23 24 24 23 26 27 29 30 33 35 37 39 39 40 42 36 46 52 58 62 63 66 73 79 83 89 90 88 90 90 62 46 48 45
37 37 38 37 36 35 36 28 28 28 27 25 24 23 22 22 23 23 24 25 27 29 30 31 34 35 41 45 45 43 35 44 49 57 62 66 65 78 86 87 90 90 89 92 90 59 43 47 49
37 37 38 37 40 39 39 28 31 31 31 30 28 27 26 25 24 24 25 25 27 30 30 32 35 37 42 46 50 41 34 41 47 54 61 66 75 83 89 91 92 89 88 91 89 58 47 52 53
31 31 37 38 38 40 39 31 33 34 33 34 32 30 28 26 25 25 26 26 28 29 31 32 35 38 43 47 50 40 34 37 46 52 59 71 82 92 94 93 93 88 89 90 84 62 46 45 55
30 34 36 35 37 40 39 35 36 36 35 35 33 31 29 27 25 26 27 26 28 30 32 33 35 38 43 49 50 43 34 36 41 55 64 72 83 94 98 96 94 91 91 90 86 74 55 54 53
25 30 31 34 37 40 38 35 34 35 35 35 34 32 29 26 25 26 28 28 28 31 33 34 37 39 44 48 51 44 36 36 39 53 63 70 83 98 98 99 97 94 91 90 84 79 67 57 59
24 25 23 27 31 35 34 28 30 29 28 29 29 28 26 25 24 27 28 28 27 32 34 38 40 43 49 52 51 42 37 36 40 54 61 68 89 94 98 99 99 96 95 92 89 85 80 56 58
22 24 25 26 30 32 33 24 22 21 23 23 22 23 24 24 25 26 26 26 26 33 36 40 42 43 47 53 49 42 38 37 43 57 61 68 87 89 96 98 98 97 98 95 90 87 83 54 60
21 22 25 27 33 30 28 22 23 22 21 22 23 23 24 24 22 22 26 26 26 34 40 42 45 45 47 51 47 39 37 37 45 58 61 72 82 90 99 98 98 99 96 96 95 89 71 58 54
19 20 23 27 30 31 25 27 21 26 26 25 28 28 28 27 26 24 25 27 28 36 39 44 49 49 50 52 45 37 36 38 49 60 65 74 80 88 98 99 99 98 96 97 94 88 76 63 51
16 18 22 29 32 32 25 26 23 24 25 32 34 33 33 32 32 30 24 26 28 38 42 46 49 52 53 55 45 34 35 41 50 62 66 71 77 88 98 99 99 97 98 97 97 93 77 62 59
16 22 32 39 42 34 32 32 22 30 34 36 36 37 36 34 33 32 30 27 30 38 46 50 54 55 57 57 47 33 36 43 50 61 66 71 79 92 98 99 98 99 98 99 93 80 65 50 48
17 19 28 32 40 31 34 33 27 29 31 40 42 38 36 35 36 36 35 34 35 42 47 54 59 61 61 60 42 33 37 43 51 60 70 69 83 95 99 97 99 97 97 91 74 52 42 42 44
29 32 19 31 40 43 38 34 35 36 42 48 44 39 40 38 39 40 39 42 42 47 54 58 63 66 65 60 35 32 39 44 47 50 54 63 81 90 98 99 99 95 82 83 75 61 58 57 60
32 23 39 39 42 45 41 44 38 48 49 51 49 46 44 39 41 43 45 51 54 52 59 63 67 70 66 51 33 32 40 44 46 47 50 60 70 84 95 99 98 93 90 86 78 73 71 72 75
27 37 41 34 36 34 35 36 38 44 54 52 47 45 44 43 46 49 51 61 64 63 66 70 71 73 67 48 33 33 42 44 46 46 50 59 64 72 87 91 94 94 93 95 88 82 79 81 84
46 28 36 38 35 34 35 36 44 47 50 50 52 49 49 48 47 52 58 69 73 73 73 74 78 78 69 47 33 33 43 46 46 46 49 58 62 74 80 79 95 94 96 93 93 91 91 90 89

GFSSGP_prec_cthk_114.txt.gz
RH
13 11 11 12 13 11 11 12 15 16 17 18 20 22 22 22 22 21 18 22 22 21 20 18 17 17 15 14 16 20 27 31 35 38 42 46 52 57 55 56 64 67 61 52 48 48 53 55 57
13 11 12 15 12 11 11 12 15 17 18 18 20 21 21 23 20 21 22 20 20 19 18 17 17 17 16 16 18 23 30 35 40 45 48 56 64 64 70 67 65 72 63 59 53 51 55 53 50
13 12 14 13 12 11 11 13 15 16 18 19 19 20 22 22 21 23 23 21 20 19 18 16 16 17 16 16 18 23 30 35 41 47 54 64 72 81 73 94 78 72 70 61 58 53 54 50 49
15 14 13 12 12 11 11 14 14 17 18 19 19 20 21 21 22 21 22 22 21 20 18 17 19 19 18 17 17 21 27 34 50 57 61 73 80 87 81 79 77 78 65 68 67 47 48 49 53
15 17 14 13 12 11 12 16 16 17 18 20 20 20 22 21 20 20 21 23 22 21 20 20 21 22 20 19 18 19 25 29 42 75 69 74 80 93 92 83 97 72 73 72 56 57 51 56 57
17 16 15 12 12 12 10 13 15 16 18 19 19 20 21 22 21 21 22 23 24 23 22 21 22 23 23 21 19 20 22 27 34 48 62 65 72 72 62 58 75 82 77 64 57 57 55 61 61
19 18 15 13 13 13 12 11 15 16 18 19 19 19 21 22 20 20 22 23 25 25 24 23 24 26 25 23 22 19 22 27 30 39 51 65 78 77 63 68 73 74 67 64 70 64 58 62 57
22 21 19 16 16 13 13 12 12 15 19 19 20 21 23 22 19 20 22 24 26 27 26 25 26 27 28 26 24 21 23 26 29 34 43 61 79 80 83 85 72 66 72 76 71 76 65 66 55
27 22 18 17 17 16 15 12 13 15 17 19 21 21 21 20 19 21 22 24 27 27 28 28 27 28 30 29 27 24 24 28 30 35 40 57 80 81 78 75 75 80 79 77 80 80 68 62 58
29 25 21 20 20 19 17 16 15 15 17 19 21 20 20 20 22 22 25 26 28 29 29 29 29 30 31 31 31 28 29 30 32 36 40 51 62 70 71 73 82 86 84 81 78 76 69 64 64
34 28 28 25 26 24 21 19 16 15 17 18 21 21 21 21 21 22 22 24 26 30 32 31 32 32 33 34 32 30 32 35 36 44 50 57 59 68 69 76 79 86 85 85 79 80 77 70 66
40 36 35 32 32 30 27 25 22 18 16 18 20 22 21 23 22 22 22 23 27 29 34 32 33 33 35 35 33 32 33 37 36 42 55 62 64 68 68 73 80 84 91 91 87 82 84 72 63
40 39 37 38 37 34 32 28 26 23 21 16 18 20 21 22 22 23 23 22 24 28 34 32 34 33 35 35 34 35 37 42 40 51 60 68 67 72 67 73 80 86 93 96 94 94 75 58 51
38 38 39 38 37 37 35 32 31 28 26 22 19 18 20 22 23 25 24 23 23 26 30 33 32 35 34 37 37 41 40 41 40 46 54 59 69 74 74 77 80 89 95 97 96 93 88 73 49
38 38 38 37 38 37 37 32 32 32 31 28 24 22 21 22 22 22 21 22 24 26 29 31 32 35 35 35 39 44 45 41 35 42 50 59 64 74 75 80 83 88 93 96 95 95 95 82 55
37 37 38 37 38 38 39 30 33 33 32 31 30 28 27 25 24 22 21 21 23 25 29 34 34 34 35 37 39 43 46 43 34 38 45 55 60 67 71 81 85 87 91 94 94 94 89 70 56
31 30 31 35 40 39 38 33 37 36 34 33 32 31 31 30 27 25 24 23 23 25 29 33 34 33 35 39 40 45 48 46 33 35 41 52 61 65 68 83 92 94 94 96 93 94 88 65 60
27 29 29 30 31 35 36 34 36 36 35 35 35 34 33 32 30 28 27 26 24 24 28 32 35 35 37 39 43 46 51 50 33 34 38 46 56 65 72 87 94 97 97 97 93 94 88 64 57
24 25 26 26 31 38 34 32 33 34 33 33 32 32 33 33 31 29 27 26 24 24 27 32 36 38 37 40 44 47 51 50 36 33 36 45 59 64 77 90 97 97 98 96 93 93 84 65 58
14 20 22 23 26 32 30 25 27 27 29 29 29 29 29 29 29 28 28 27 24 25 27 32 36 40 39 42 48 51 53 49 35 34 35 46 59 62 82 92 95 97 98 98 95 93 88 70 59
14 13 16 22 26 26 26 23 24 23 23 23 23 23 23 23 24 26 27 28 27 26 29 33 35 40 42 48 51 54 57 50 36 33 37 49 57 63 81 89 96 96 98 97 95 95 92 81 62
14 14 15 18 22 24 25 21 21 23 22 21 22 23 24 25 27 24 25 26 27 28 30 31 37 41 47 51 52 53 58 52 36 34 42 52 60 68 78 87 95 98 96 98 97 96 92 86 73
15 18 17 19 22 25 23 24 19 19 19 22 22 27 29 28 29 28 24 24 24 28 30 30 34 42 47 51 55 57 61 53 35 36 47 53 63 70 79 88 93 98 98 96 97 98 98 89 84
21 26 20 21 22 26 20 24 19 20 24 24 32 34 34 35 35 33 31 27 27 30 30 32 36 43 48 53 58 60 61 45 33 37 47 55 63 66 74 87 94 98 98 99 98 97 98 93 90
23 31 27 29 29 20 21 26 19 22 27 31 37 38 38 37 37 35 36 33 32 34 34 35 41 47 50 53 56 59 58 40 33 40 47 54 62 67 81 87 98 98 97 97 98 98 98 95 92
30 29 26 24 24 24 31 26 21 22 27 37 39 41 41 40 41 38 36 38 38 36 35 38 42 51 53 55 57 61 54 39 35 43 45 52 62 68 82 91 99 99 98 99 99 98 98 97 84
26 36 17 24 30 36 29 27 24 26 26 37 41 43 43 46 44 40 39 39 41 42 39 39 43 52 58 60 65 66 49 39 38 42 41 43 50 70 85 94 98 98 99 99 98 98 99 99 87
27 25 30 30 32 25 19 27 35 36 34 42 45 46 47 50 46 42 42 42 43 47 46 43 46 55 62 66 69 65 50 40 39 41 41 41 50 66 84 92 98 99 98 98 99 99 99 97 89
35 43 43 28 28 29 32 31 44 52 44 49 51 51 49 47 47 47 43 45 45 53 53 52 53 61 67 70 72 60 49 40 39 40 41 42 52 63 81 90 94 98 96 98 98 96 88 78 59
39 43 47 44 36 30 35 34 52 48 55 58 52 50 49 51 48 46 46 47 49 54 60 60 60 66 73 76 71 58 51 42 41 40 42 44 53 60 68 89 91 97 94 94 94 82 72 72 65

GFSSGP_prec_cthk_117.txt.gz
RH
12 12 14 14 15 13 11 13 14 17 15 16 17 24 23 26 30 30 28 23 23 24 20 16 14 14 12 11 12 15 20 24 29 33 37 42 49 59 65 58 58 62 60 52 43 44 48 51 54
16 17 15 15 17 13 14 12 16 15 17 15 16 23 19 22 19 22 24 21 22 22 16 15 15 14 13 11 13 16 20 25 29 34 41 51 56 66 70 69 65 66 70 56 46 47 51 55 55
16 16 16 16 15 13 13 14 16 18 17 16 17 18 20 23 21 26 28 20 22 22 18 14 15 16 14 13 12 14 17 22 27 37 48 64 73 91 98 96 94 86 73 63 52 48 53 53 51
18 17 18 18 16 14 13 14 17 20 17 17 18 20 20 23 23 24 26 22 23 25 23 17 18 18 17 16 13 13 16 19 24 37 57 64 80 86 89 86 94 98 86 72 65 57 49 47 49
18 19 19 17 14 12 15 14 20 19 18 18 19 21 22 23 25 23 24 23 23 25 24 20 19 20 20 18 16 14 16 19 22 33 47 65 69 89 83 85 93 96 94 78 73 68 50 46 53
20 20 19 17 15 15 14 15 17 16 16 18 19 21 25 27 27 25 23 24 23 24 24 21 21 22 22 20 19 17 18 21 24 30 43 50 62 82 73 70 67 80 87 77 68 55 56 52 62
22 20 19 17 17 17 16 16 13 14 16 19 19 21 23 30 29 26 24 26 24 26 22 22 23 25 25 23 20 20 19 23 26 29 36 41 53 73 71 65 61 68 77 74 64 63 61 54 58
25 24 21 19 21 18 19 17 14 14 16 23 20 21 24 29 25 22 26 28 28 27 25 23 24 25 26 26 23 21 20 22 26 30 36 44 55 75 74 69 61 73 72 67 69 70 71 65 58
33 28 22 21 22 20 20 17 17 15 17 20 21 22 26 25 25 25 25 26 27 28 29 30 28 26 26 28 27 23 22 23 25 30 38 47 49 58 70 73 72 74 63 70 78 74 78 78 66
37 32 25 25 23 21 21 19 18 19 17 18 19 18 21 23 25 25 27 29 28 27 28 30 33 31 28 29 29 26 23 22 25 27 32 47 56 62 64 68 69 67 70 81 86 80 83 90 72
41 34 33 29 29 25 22 21 20 18 20 21 22 22 20 22 22 25 27 29 31 32 32 30 32 34 33 30 32 30 25 30 33 33 31 44 57 67 76 71 69 71 77 85 85 88 89 86 68
41 40 40 38 35 31 27 27 24 22 20 19 24 23 25 21 21 22 25 26 29 34 33 29 31 33 32 31 34 36 30 35 39 40 37 49 59 64 68 68 68 71 82 84 84 87 84 75 71
41 41 43 42 40 37 34 30 29 26 27 24 20 21 22 20 21 22 23 25 27 31 34 33 31 32 30 31 36 37 37 40 40 42 34 46 54 61 68 71 75 80 84 85 88 87 84 78 82
44 45 43 44 42 41 39 35 35 29 30 29 26 22 21 21 21 22 23 23 26 28 31 32 30 32 33 30 32 37 37 39 36 38 33 41 55 59 69 75 78 82 83 85 91 91 84 90 88
37 40 42 39 40 40 42 36 35 36 35 33 30 28 23 21 20 22 23 24 25 29 30 28 29 31 33 31 32 35 41 43 40 39 32 39 54 65 69 73 76 81 85 86 92 96 96 92 88
29 37 41 38 41 40 44 30 35 37 37 34 33 33 31 27 24 23 24 24 24 28 30 29 30 30 32 36 37 40 38 41 41 42 32 34 42 58 68 73 75 81 84 89 95 94 97 96 92
32 26 29 35 38 43 43 36 35 38 39 35 35 33 33 33 30 27 26 25 25 26 26 28 30 32 33 35 38 42 41 42 45 45 34 29 35 48 63 71 73 82 83 87 94 96 96 97 93
17 30 32 30 33 36 38 36 37 37 39 37 35 35 35 35 33 33 31 28 29 28 26 26 29 31 35 37 38 43 43 44 45 48 39 28 32 42 55 66 72 79 87 90 90 95 97 93 90
22 23 17 34 33 33 33 33 34 36 35 35 36 36 38 37 38 35 35 34 32 30 30 27 27 31 34 35 38 41 42 45 48 51 44 29 30 38 51 61 65 72 85 94 93 96 98 94 88
12 16 26 19 20 31 29 32 36 33 30 32 32 33 35 35 34 36 36 35 32 30 31 28 28 32 34 35 38 41 45 46 52 56 49 30 28 36 49 56 64 76 91 95 96 98 98 95 89
12 12 13 21 18 27 31 29 26 24 24 24 23 26 30 30 30 30 31 32 31 33 34 30 29 32 35 36 39 45 47 48 52 54 50 34 29 36 50 57 69 83 88 95 94 98 94 94 94
19 14 18 17 22 22 23 24 23 23 23 24 23 24 24 25 25 26 27 29 31 33 36 34 31 34 36 38 40 48 46 48 51 55 52 34 30 39 49 58 68 82 90 95 96 99 94 93 91
10 17 26 22 25 26 22 18 18 21 23 25 24 23 25 29 34 36 34 32 32 33 34 34 36 38 37 39 43 49 50 50 52 56 54 35 32 43 49 57 68 80 88 96 96 98 96 96 93
24 24 26 30 33 40 19 21 17 22 24 27 29 27 31 40 43 41 41 36 31 34 33 34 35 40 39 40 48 50 52 53 55 57 51 35 38 45 55 62 65 76 88 93 98 98 97 97 97
38 33 32 47 44 29 18 23 18 22 25 29 41 41 43 45 44 42 44 39 36 38 37 33 35 42 41 44 51 54 54 56 58 56 48 37 43 47 56 63 65 70 86 94 98 98 98 97 97
49 45 37 44 40 22 18 24 17 24 26 34 40 43 43 46 45 43 41 41 39 41 42 37 38 43 45 50 54 55 55 60 60 54 46 37 41 45 50 62 65 75 89 95 98 98 99 98 98
44 44 36 40 34 31 24 19 21 27 31 43 47 44 49 48 48 47 42 44 43 41 41 40 39 45 49 51 54 57 59 62 61 50 46 42 40 40 43 54 66 84 93 97 98 98 97 99 99
48 40 40 40 46 35 24 25 26 33 41 51 49 48 52 48 48 47 44 40 41 42 42 46 46 48 51 54 57 60 65 68 57 50 48 38 37 39 47 56 72 85 94 96 99 99 99 98 98
45 40 34 40 38 37 28 25 26 31 40 48 61 56 55 54 51 46 41 41 39 43 45 50 51 50 52 56 59 64 68 68 55 54 46 37 37 41 50 57 71 86 92 98 99 98 99 99 98
65 40 34 37 41 32 29 28 41 32 51 56 67 62 62 56 51 46 45 43 42 45 46 50 55 56 56 59 63 67 71 60 55 57 44 38 38 43 51 57 71 86 96 99 98 99 99 99 98

GFSSGP_prec_cthk_120.txt.gz
RH
11 12 11 16 16 16 14 12 13 14 18 20 19 18 25 30 33 36 36 36 28 20 16 15 12 10 9 10 11 12 14 18 24 30 33 37 44 51 61 68 62 58 53 51 51 55 54 52 53
12 17 18 16 17 16 14 15 13 14 19 17 16 19 20 22 25 28 29 25 20 16 15 13 11 10 10 9 10 13 15 20 25 30 36 42 50 63 80 94 86 79 71 62 55 47 50 52 56
13 19 18 19 15 16 15 14 14 17 20 18 16 16 19 19 24 23 23 22 20 16 14 13 13 13 12 11 9 11 15 19 25 31 39 50 63 68 84 98 93 97 95 76 63 52 51 57 55
16 21 17 17 17 16 15 15 15 19 22 19 17 18 18 22 23 27 25 22 23 19 15 15 14 15 14 13 11 11 14 18 24 34 40 49 52 68 77 80 87 85 99 91 77 61 52 54 53
23 20 18 17 15 15 16 14 17 20 25 21 17 19 20 22 24 26 26 24 23 22 17 17 16 17 16 15 14 12 14 17 23 32 39 47 46 64 75 78 78 84 88 95 89 73 53 49 52
29 23 20 18 18 18 17 15 16 19 23 22 19 18 25 25 25 24 26 25 24 21 19 18 18 18 18 17 16 15 13 17 21 25 31 43 57 57 70 66 70 73 84 86 85 70 58 50 54
31 28 22 19 18 18 18 18 18 18 20 20 19 20 21 29 28 25 27 26 25 22 20 20 19 20 21 19 19 17 15 17 20 22 26 37 53 57 65 67 64 68 75 76 75 66 60 58 54
34 32 28 23 20 19 18 19 21 20 18 19 20 24 23 31 32 27 27 28 27 24 21 21 20 21 22 21 21 20 18 17 18 20 25 32 44 53 65 71 68 60 68 69 71 77 73 63 59
38 36 29 28 26 22 21 20 21 21 19 17 24 24 27 34 34 30 28 28 29 27 23 20 21 22 22 23 22 23 22 18 18 20 23 29 39 50 53 65 70 73 84 69 72 77 80 83 70
41 37 32 34 32 30 27 24 24 22 20 18 23 24 24 26 28 31 29 29 30 27 26 22 20 21 22 23 24 24 24 21 19 21 22 26 34 47 58 68 65 73 82 76 77 77 82 87 85
42 35 39 36 37 37 33 27 25 22 21 22 21 25 21 23 25 26 29 29 29 28 27 26 23 21 22 22 24 25 25 22 22 25 28 28 38 47 58 69 75 77 72 74 76 80 84 86 92
44 40 43 41 41 40 37 34 27 25 21 23 24 23 26 25 22 21 24 30 33 32 30 29 27 24 23 22 24 27 26 26 27 29 31 32 35 48 56 62 76 70 64 71 77 79 82 89 93
40 40 42 42 43 42 42 38 33 27 28 26 23 22 24 28 26 24 24 25 28 33 32 29 30 27 25 22 24 27 29 31 35 35 33 35 34 47 54 63 72 68 70 73 80 81 86 91 90
28 37 42 45 44 43 44 43 43 30 33 31 29 25 23 23 25 24 23 24 26 26 35 30 29 27 26 24 24 27 35 35 39 39 36 36 33 43 57 62 68 67 80 78 83 85 90 92 84
24 31 34 36 42 45 47 42 39 38 40 36 32 30 27 25 23 22 22 24 23 24 25 32 29 28 26 25 26 28 31 36 37 39 38 38 32 34 54 68 69 70 80 81 84 89 95 91 88
24 25 26 29 37 41 46 35 37 39 43 39 37 35 32 30 29 26 23 23 23 24 26 27 27 27 28 25 26 28 30 34 35 36 38 41 33 31 39 62 72 75 76 81 85 88 93 95 95
9 22 23 27 31 29 41 36 39 43 42 41 43 40 38 36 34 32 29 26 25 25 27 27 28 28 27 27 28 29 29 35 38 37 39 45 40 30 32 46 65 71 74 78 81 87 92 95 96
9 11 17 20 28 37 36 38 40 45 46 43 44 42 39 39 37 36 34 31 29 27 27 27 28 28 27 31 32 33 34 36 39 39 41 46 45 32 31 37 53 69 74 76 79 85 93 95 95
15 14 12 13 14 30 40 39 39 39 38 42 42 42 41 39 39 40 37 35 32 32 29 29 30 30 30 30 34 36 37 35 39 42 42 45 48 36 29 33 46 62 70 73 79 85 89 96 97
12 13 13 11 11 18 28 35 36 35 36 36 40 40 39 39 41 43 43 39 36 35 34 33 31 32 31 29 34 38 39 36 38 41 44 46 50 42 31 31 39 56 64 69 77 87 91 98 95
15 17 13 14 15 20 23 29 28 28 30 33 35 33 33 37 37 39 41 40 39 37 35 34 33 34 34 33 37 40 43 41 39 41 45 46 50 45 32 31 38 49 61 63 76 88 93 96 93
26 17 16 20 22 24 21 22 23 24 26 29 26 23 25 28 33 36 35 37 35 35 33 32 34 35 37 37 36 37 40 39 41 40 44 48 50 46 36 30 38 46 55 63 73 89 93 98 91
41 26 27 22 22 31 27 20 13 22 23 22 24 27 27 27 25 28 30 31 32 33 31 31 32 37 39 36 38 41 45 43 45 44 46 48 52 51 38 31 38 45 55 63 74 89 95 97 96
52 52 43 37 28 37 26 21 15 16 21 21 26 31 31 30 33 32 33 34 36 37 37 35 34 38 38 36 41 44 45 49 47 47 49 48 54 50 41 33 38 46 54 64 71 82 91 98 96
63 72 56 54 44 36 22 26 18 19 18 23 28 38 41 42 43 42 48 52 49 46 46 42 39 41 42 40 43 44 48 55 55 51 52 51 55 49 43 37 38 46 56 64 71 74 84 91 96
85 74 64 63 52 32 24 38 18 20 19 29 42 55 50 50 53 54 61 57 51 53 45 42 40 40 50 43 45 46 52 59 62 56 56 56 57 51 49 42 39 44 53 62 67 72 92 94 98
75 66 51 54 48 43 36 33 23 20 23 25 48 59 61 59 59 54 50 46 44 41 42 39 41 39 41 44 46 52 59 63 64 59 60 63 59 54 49 43 41 43 46 54 66 85 92 96 99
81 67 63 54 56 53 43 34 27 20 25 31 50 53 62 65 69 53 49 43 39 39 39 39 43 43 43 45 50 56 60 63 61 62 64 65 57 55 47 38 39 42 50 65 77 88 97 98 98
89 84 68 55 39 48 53 43 24 26 27 37 45 52 44 82 52 54 48 42 39 39 40 41 43 48 49 46 55 60 62 64 65 66 70 66 59 56 45 38 40 46 56 71 87 91 95 97 98
76 87 75 53 48 41 42 38 29 39 40 45 55 69 57 67 55 51 45 42 40 42 43 43 43 48 52 55 56 58 63 66 67 71 73 63 59 54 43 39 43 49 58 74 88 97 99 99 99